[[{"header":{"parameterUnit":"m.s-1","parameterCategory":1,"la1":31.0,"la2":29.5877,"lo1":-88.7671,"lo2":-86.6584,"dy":0.0162,"dx":0.0185,"nx":115,"ny":88,"refTime":"2024-05-12T12:00:00:Z","depth":0,"parameterNumber":2,"parameterNumberName":"U-component_of_WINDS"},"data":[0.0,0.0,0.0,0.0,0.0,0.0,0.0,0.0,0.0,0.0,0.0,0.0,0.0,0.0,0.0,0.0,0.0,0.0,0.0,0.0,0.0,0.0,0.0,0.0,0.0,0.0,0.0,0.0,0.0,0.0,0.0,0.0,0.0,0.0,0.0,0.0,0.0,0.0,0.0,0.0,0.0,0.0,0.0,0.0,0.0,0.0,0.0,0.0,0.0,0.0,0.0,0.0,0.0,0.0,0.0,0.0,0.0,0.0,0.0,0.0,0.0,0.0,0.0,0.0,0.0,0.0,0.0,0.0,0.0,0.0,0.0,0.0,0.0,0.0,0.0,0.0,0.0,0.0,0.0,0.0,0.0,0.0,0.0,0.0,0.0,0.0,0.0,0.0,0.0,0.0,0.0,0.0,0.0,0.0,0.0,0.0,0.0,0.0,0.0,0.0,0.0,0.0,0.0,0.0,0.0,0.0,0.0,0.0,0.0,0.0,0.0,0.0,0.0,0.0,0.0,0.0,0.0,0.0,0.0,0.0,0.0,0.0,0.0,0.0,0.0,0.0,0.0,0.0,0.0,0.0,0.0,0.0,0.0,0.0,0.0,0.0,0.0,0.0,0.0,0.0,0.0,0.0,0.0,0.0,0.0,0.0,0.0,0.0,0.0,0.0,0.0,0.0,0.0,0.0,0.0,0.0,0.0,0.0,0.0,0.0,0.0,0.0,0.0,0.0,0.0,0.0,0.0,0.0,0.0,0.0,0.0,0.0,0.0,0.0,0.0,0.0,0.0,0.0,0.0,0.0,0.0,0.0,0.0,0.0,0.0,0.0,0.0,0.0,0.0,0.0,0.0,0.0,0.0,0.0,0.0,0.0,0.0,0.0,0.0,0.0,0.0,0.0,0.0,0.0,0.0,0.0,0.0,0.0,0.0,0.0,0.0,0.0,0.0,0.0,0.0,0.0,0.0,0.0,0.0,0.0,0.0,0.0,0.0,0.0,0.0,0.0,0.0,0.0,0.0,0.0,0.0,0.0,0.0,0.0,0.0,0.0,0.0,0.0,0.0,0.0,0.0,0.0,0.0,0.0,0.0,0.0,0.0,0.0,0.0,0.0,0.0,0.0,0.0,0.0,0.0,0.0,0.0,0.0,0.0,0.0,0.0,0.0,0.0,0.0,0.0,0.0,0.0,0.0,0.0,0.0,0.0,0.0,0.0,0.0,0.0,0.0,0.0,0.0,0.0,0.0,0.0,0.0,0.0,0.0,0.0,0.0,0.0,0.0,0.0,0.0,0.0,0.0,0.0,0.0,0.0,0.0,0.0,0.0,0.0,0.0,0.0,0.0,0.0,0.0,0.0,0.0,0.0,0.0,0.0,0.0,0.0,0.0,0.0,0.0,0.0,0.0,0.0,0.0,0.0,0.0,0.0,0.0,0.0,0.0,0.0,0.0,0.0,0.0,0.0,0.0,0.0,0.0,0.0,0.0,0.0,0.0,0.0,0.0,0.0,0.0,0.0,0.0,0.0,0.0,0.0,0.0,0.0,0.0,0.0,0.0,0.0,0.0,0.0,0.0,0.0,0.0,0.0,0.0,0.0,0.0,0.0,0.0,0.0,0.0,0.0,0.0,0.0,0.0,0.0,0.0,0.0,0.0,0.0,0.0,0.0,0.0,0.0,0.0,0.0,0.0,0.0,0.0,0.0,0.0,0.0,0.0,0.0,0.0,0.0,0.0,0.0,0.0,0.0,0.0,0.0,0.0,0.0,0.0,0.0,0.0,0.0,0.0,0.0,0.0,0.0,0.0,0.0,0.0,0.0,0.0,0.0,0.0,0.0,0.0,0.0,0.0,0.0,0.0,0.0,0.0,0.0,0.0,0.0,0.0,0.0,0.0,0.0,0.0,0.0,0.0,0.0,0.0,0.0,0.0,0.0,0.0,0.0,0.0,0.0,0.0,0.0,0.0,0.0,0.0,0.0,0.0,0.0,0.0,0.0,0.0,0.0,0.0,0.0,0.0,0.0,0.0,0.0,0.0,0.0,0.0,0.0,0.0,0.0,0.0,0.0,0.0,0.0,0.0,0.0,0.0,0.0,0.0,0.0,0.0,0.0,0.0,0.0,0.0,0.0,0.0,0.0,0.0,0.0,0.0,0.0,0.0,0.0,0.0,0.0,0.0,0.0,0.0,0.0,0.0,0.0,0.0,0.0,0.0,0.0,0.0,0.0,0.0,0.0,0.0,0.0,0.0,0.0,0.0,0.0,0.0,0.0,0.0,0.0,0.0,0.0,0.0,0.0,0.0,0.0,0.0,0.0,0.0,0.0,0.0,0.0,0.0,0.0,0.0,0.0,0.0,0.0,0.0,0.0,0.0,0.0,0.0,0.0,0.0,0.0,0.0,0.0,0.0,0.0,0.0,0.0,0.0,0.0,0.0,0.0,0.0,0.0,0.0,0.0,0.0,0.0,0.0,0.0,0.0,0.0,0.0,0.0,0.0,0.0,0.0,0.0,0.0,0.0,0.0,0.0,0.0,0.0,0.0,0.0,0.0,0.0,0.0,0.0,0.0,0.0,0.0,0.0,0.0,0.0,0.0,0.0,0.0,0.0,0.0,0.0,0.0,0.0,0.0,0.0,0.0,0.0,0.0,0.0,0.0,0.0,0.0,0.0,0.0,0.0,0.0,0.0,0.0,0.0,0.0,0.0,0.0,0.0,0.0,0.0,0.0,0.0,0.0,0.0,0.0,0.0,0.0,0.0,0.0,0.0,0.0,0.0,0.0,0.0,0.0,0.0,0.0,0.0,0.0,0.0,0.0,0.0,0.0,0.0,0.0,0.0,0.0,0.0,0.0,0.0,0.0,0.0,0.0,0.0,0.0,0.0,0.0,0.0,0.0,0.0,0.0,0.0,0.0,0.0,0.0,0.0,0.0,0.0,0.0,0.0,0.0,0.0,0.0,0.0,0.0,0.0,0.0,0.0,0.0,0.0,0.0,0.0,0.0,0.0,0.0,0.0,0.0,0.0,0.0,0.0,0.0,0.0,0.0,0.0,0.0,0.0,0.0,0.0,0.0,0.0,0.0,0.0,0.0,0.0,0.0,0.0,0.0,0.0,0.0,0.0,0.0,0.0,0.0,0.0,0.0,0.0,0.0,0.0,0.0,0.0,0.0,0.0,0.0,0.0,0.0,0.0,0.0,0.0,0.0,0.0,0.0,0.0,0.0,0.0,0.0,0.0,0.0,0.0,0.0,0.0,0.0,0.0,0.0,0.0,0.0,0.0,0.0,0.0,0.0,0.0,0.0,0.0,0.0,0.0,0.0,0.0,0.0,0.0,0.0,0.0,0.0,0.0,0.0,0.0,0.0,0.0,0.0,0.0,0.0,0.0,0.0,0.0,0.0,0.0,0.0,0.0,0.0,0.0,0.0,0.0,0.0,0.0,0.0,0.0,0.0,0.0,0.0,0.0,0.0,0.0,0.0,0.0,0.0,0.0,0.0,0.0,0.0,0.0,0.0,0.0,0.0,0.0,0.0,0.0,0.0,0.0,0.0,0.0,0.0,0.0,0.0,0.0,0.0,0.0,0.0,0.0,0.0,0.0,0.0,0.0,0.0,0.0,0.0,0.0,0.0,0.0,0.0,0.0,0.0,0.0,0.0,0.0,0.0,0.0,0.0,0.0,0.0,0.0,0.0,0.0,0.0,0.0,0.0,0.0,0.0,0.0,0.0,0.0,0.0,0.0,0.0,0.0,0.0,0.0,0.0,0.0,0.0,0.0,0.0,0.0,0.0,0.0,0.0,0.0,0.0,0.0,0.0,0.0,0.0,0.0,0.0,0.0,0.0,0.0,0.0,0.0,0.0,0.0,0.0,0.0,0.0,0.0,0.0,0.0,0.0,0.0,0.0,0.0,0.0,0.0,0.0,0.0,0.0,0.0,0.0,0.0,0.0,0.0,0.0,0.0,0.0,0.0,0.0,0.0,0.0,0.0,0.0,0.0,0.0,0.0,0.0,0.0,0.0,0.0,0.0,0.0,0.0,0.0,0.0,0.0,0.0,0.0,0.0,0.0,0.0,0.0,0.0,0.0,0.0,0.0,0.0,0.0,0.0,0.0,0.0,0.0,0.0,0.0,0.0,0.0,0.0,0.0,0.0,0.0,0.0,0.0,0.0,0.0,0.0,0.0,0.0,0.0,0.0,0.0,0.0,0.0,0.0,0.0,0.0,0.0,0.0,0.0,0.0,0.0,0.0,0.0,0.0,0.0,0.0,0.0,0.0,0.0,0.0,-5.7351,0.0,0.0,0.0,0.0,0.0,0.0,0.0,0.0,0.0,0.0,0.0,0.0,0.0,0.0,0.0,0.0,0.0,0.0,0.0,0.0,0.0,0.0,0.0,0.0,0.0,0.0,0.0,0.0,0.0,0.0,0.0,0.0,0.0,0.0,0.0,0.0,0.0,0.0,0.0,0.0,0.0,0.0,0.0,0.0,0.0,0.0,0.0,0.0,0.0,0.0,0.0,0.0,0.0,0.0,0.0,0.0,0.0,0.0,0.0,0.0,0.0,0.0,0.0,0.0,0.0,0.0,0.0,0.0,0.0,0.0,0.0,0.0,0.0,0.0,0.0,0.0,0.0,0.0,0.0,0.0,0.0,0.0,0.0,0.0,0.0,0.0,0.0,0.0,0.0,0.0,0.0,0.0,0.0,0.0,0.0,0.0,0.0,0.0,0.0,0.0,0.0,0.0,0.0,0.0,0.0,0.0,0.0,0.0,0.0,0.0,-5.7188,-5.7188,-5.7264,-5.7289,-5.7313,0.0,0.0,0.0,0.0,0.0,0.0,0.0,0.0,0.0,0.0,0.0,0.0,0.0,0.0,0.0,0.0,0.0,0.0,0.0,0.0,0.0,0.0,0.0,0.0,0.0,0.0,0.0,0.0,0.0,0.0,0.0,0.0,0.0,0.0,0.0,0.0,0.0,0.0,0.0,0.0,0.0,0.0,0.0,0.0,0.0,0.0,0.0,0.0,0.0,0.0,0.0,0.0,0.0,0.0,0.0,0.0,0.0,0.0,0.0,0.0,0.0,0.0,0.0,0.0,0.0,0.0,0.0,0.0,0.0,0.0,0.0,0.0,0.0,0.0,0.0,0.0,0.0,0.0,0.0,0.0,0.0,0.0,0.0,0.0,0.0,0.0,0.0,0.0,0.0,0.0,0.0,0.0,0.0,0.0,0.0,0.0,0.0,0.0,0.0,0.0,0.0,0.0,0.0,0.0,0.0,0.0,0.0,0.0,0.0,0.0,0.0,0.0,-5.7289,-5.7388,-5.7486,0.0,0.0,0.0,0.0,0.0,0.0,0.0,0.0,0.0,0.0,0.0,0.0,0.0,0.0,0.0,0.0,0.0,0.0,0.0,0.0,0.0,0.0,0.0,0.0,0.0,0.0,0.0,0.0,0.0,0.0,0.0,0.0,0.0,0.0,0.0,0.0,0.0,0.0,0.0,0.0,0.0,0.0,0.0,0.0,0.0,0.0,0.0,0.0,0.0,0.0,0.0,0.0,0.0,0.0,0.0,0.0,0.0,0.0,0.0,0.0,0.0,0.0,0.0,0.0,0.0,0.0,0.0,0.0,0.0,0.0,0.0,0.0,0.0,0.0,0.0,0.0,0.0,0.0,0.0,0.0,0.0,0.0,0.0,0.0,0.0,0.0,0.0,0.0,0.0,0.0,0.0,0.0,0.0,0.0,0.0,0.0,0.0,0.0,0.0,0.0,0.0,0.0,0.0,0.0,0.0,0.0,0.0,0.0,0.0,0.0,-5.7188,-5.7188,-5.7213,0.0,-5.7739,0.0,0.0,0.0,0.0,0.0,0.0,0.0,0.0,0.0,0.0,0.0,0.0,0.0,0.0,0.0,0.0,0.0,0.0,0.0,0.0,0.0,0.0,0.0,0.0,0.0,0.0,0.0,0.0,0.0,0.0,0.0,0.0,0.0,0.0,0.0,0.0,0.0,0.0,0.0,0.0,0.0,0.0,0.0,0.0,0.0,0.0,0.0,0.0,0.0,0.0,0.0,0.0,0.0,0.0,0.0,0.0,0.0,0.0,0.0,0.0,0.0,0.0,0.0,0.0,0.0,0.0,0.0,0.0,0.0,0.0,0.0,0.0,0.0,0.0,0.0,0.0,0.0,0.0,0.0,0.0,0.0,0.0,0.0,0.0,0.0,0.0,0.0,0.0,0.0,0.0,0.0,0.0,0.0,0.0,0.0,0.0,0.0,0.0,0.0,0.0,0.0,0.0,0.0,0.0,0.0,0.0,0.0,0.0,0.0,0.0,-5.7188,-5.7188,-5.7188,-5.7264,0.0,0.0,0.0,0.0,0.0,0.0,0.0,0.0,0.0,0.0,0.0,0.0,0.0,0.0,0.0,0.0,0.0,0.0,0.0,0.0,0.0,0.0,0.0,0.0,0.0,0.0,0.0,0.0,0.0,0.0,0.0,0.0,0.0,0.0,0.0,0.0,0.0,0.0,0.0,0.0,0.0,0.0,0.0,0.0,0.0,0.0,0.0,0.0,0.0,0.0,0.0,0.0,0.0,0.0,0.0,0.0,0.0,0.0,0.0,0.0,0.0,0.0,0.0,0.0,0.0,0.0,0.0,0.0,0.0,0.0,0.0,0.0,0.0,0.0,0.0,0.0,0.0,0.0,0.0,0.0,0.0,0.0,0.0,0.0,0.0,0.0,0.0,0.0,0.0,0.0,0.0,0.0,0.0,0.0,0.0,0.0,0.0,0.0,0.0,0.0,0.0,0.0,0.0,0.0,0.0,0.0,0.0,0.0,0.0,0.0,-5.7188,-5.7188,-5.7188,-5.7188,-5.7188,-5.7188,0.0,0.0,0.0,0.0,0.0,0.0,0.0,0.0,0.0,0.0,0.0,0.0,0.0,0.0,0.0,0.0,0.0,0.0,0.0,0.0,0.0,0.0,0.0,0.0,0.0,0.0,0.0,0.0,0.0,0.0,0.0,0.0,0.0,0.0,0.0,0.0,0.0,0.0,0.0,0.0,0.0,0.0,0.0,0.0,0.0,0.0,0.0,0.0,0.0,0.0,0.0,0.0,0.0,0.0,0.0,0.0,0.0,0.0,0.0,0.0,0.0,0.0,0.0,0.0,0.0,0.0,0.0,0.0,0.0,0.0,0.0,0.0,0.0,0.0,0.0,0.0,0.0,0.0,0.0,0.0,0.0,0.0,0.0,0.0,0.0,0.0,0.0,0.0,0.0,0.0,0.0,0.0,0.0,0.0,0.0,0.0,0.0,0.0,0.0,0.0,0.0,0.0,0.0,0.0,0.0,0.0,0.0,0.0,-5.7188,-5.7188,-5.7188,-5.7188,-5.7188,-5.7188,0.0,0.0,0.0,0.0,0.0,0.0,0.0,0.0,0.0,0.0,0.0,0.0,0.0,0.0,0.0,0.0,0.0,0.0,0.0,0.0,0.0,0.0,0.0,0.0,0.0,0.0,0.0,0.0,0.0,0.0,0.0,0.0,0.0,0.0,0.0,0.0,0.0,0.0,0.0,0.0,0.0,0.0,0.0,0.0,0.0,0.0,0.0,0.0,0.0,0.0,0.0,0.0,0.0,0.0,0.0,0.0,0.0,0.0,0.0,0.0,0.0,0.0,0.0,0.0,0.0,0.0,0.0,0.0,0.0,0.0,0.0,0.0,0.0,0.0,0.0,0.0,0.0,0.0,0.0,0.0,0.0,0.0,0.0,0.0,0.0,0.0,0.0,0.0,0.0,0.0,0.0,0.0,0.0,0.0,0.0,0.0,0.0,0.0,0.0,0.0,0.0,0.0,0.0,0.0,0.0,0.0,0.0,0.0,0.0,-5.7188,-5.7188,-5.7188,-5.7188,-5.7188,-5.7188,0.0,0.0,0.0,0.0,0.0,0.0,0.0,0.0,0.0,0.0,0.0,0.0,0.0,0.0,0.0,0.0,0.0,0.0,0.0,0.0,0.0,0.0,0.0,0.0,0.0,0.0,0.0,0.0,0.0,0.0,0.0,0.0,0.0,0.0,0.0,0.0,0.0,0.0,0.0,0.0,0.0,0.0,0.0,0.0,0.0,0.0,0.0,0.0,0.0,0.0,0.0,0.0,0.0,0.0,0.0,0.0,0.0,0.0,0.0,0.0,0.0,0.0,0.0,0.0,0.0,0.0,0.0,0.0,0.0,0.0,0.0,0.0,0.0,0.0,0.0,0.0,0.0,0.0,0.0,0.0,0.0,0.0,0.0,0.0,0.0,0.0,0.0,0.0,0.0,0.0,0.0,0.0,0.0,0.0,0.0,0.0,0.0,0.0,0.0,0.0,0.0,0.0,0.0,0.0,0.0,0.0,0.0,0.0,0.0,-5.7224,0.0,-5.7587,-5.7587,-5.784,-5.7985,0.0,0.0,0.0,0.0,0.0,0.0,0.0,0.0,0.0,0.0,0.0,0.0,0.0,0.0,0.0,0.0,0.0,0.0,0.0,0.0,0.0,0.0,0.0,0.0,0.0,0.0,0.0,0.0,0.0,0.0,0.0,0.0,0.0,0.0,0.0,0.0,0.0,0.0,0.0,0.0,0.0,0.0,0.0,0.0,0.0,0.0,0.0,0.0,0.0,0.0,0.0,0.0,0.0,0.0,0.0,0.0,0.0,0.0,0.0,0.0,0.0,0.0,0.0,0.0,0.0,0.0,0.0,0.0,0.0,0.0,0.0,0.0,0.0,0.0,0.0,0.0,0.0,0.0,0.0,0.0,0.0,0.0,0.0,0.0,0.0,0.0,0.0,0.0,0.0,0.0,0.0,0.0,0.0,0.0,0.0,0.0,0.0,0.0,0.0,0.0,0.0,0.0,0.0,0.0,0.0,0.0,0.0,0.0,-5.7261,-5.7261,-5.8021,-5.842,-5.842,-5.9144,-5.9579,0.0,0.0,0.0,0.0,0.0,0.0,0.0,0.0,0.0,0.0,0.0,0.0,0.0,0.0,0.0,0.0,0.0,0.0,0.0,0.0,0.0,0.0,0.0,0.0,0.0,0.0,0.0,0.0,0.0,0.0,0.0,0.0,0.0,0.0,0.0,0.0,0.0,0.0,0.0,0.0,0.0,0.0,0.0,0.0,0.0,0.0,0.0,0.0,0.0,0.0,0.0,0.0,0.0,0.0,0.0,0.0,0.0,0.0,0.0,0.0,0.0,0.0,0.0,0.0,0.0,0.0,0.0,0.0,0.0,0.0,0.0,0.0,0.0,0.0,0.0,0.0,0.0,0.0,0.0,0.0,0.0,0.0,0.0,0.0,0.0,0.0,0.0,0.0,0.0,0.0,0.0,0.0,0.0,0.0,0.0,0.0,0.0,0.0,0.0,0.0,0.0,0.0,0.0,0.0,0.0,0.0,0.0,0.0,0.0,-5.8854,-5.9108,-5.9216,-5.9216,-5.947,-5.9615,0.0,0.0,0.0,0.0,0.0,0.0,0.0,0.0,0.0,0.0,0.0,0.0,0.0,0.0,0.0,0.0,0.0,0.0,0.0,0.0,0.0,0.0,0.0,0.0,0.0,0.0,0.0,0.0,0.0,0.0,0.0,0.0,0.0,0.0,0.0,0.0,0.0,0.0,0.0,0.0,0.0,0.0,0.0,0.0,0.0,0.0,0.0,0.0,0.0,0.0,0.0,0.0,0.0,0.0,0.0,0.0,0.0,0.0,0.0,0.0,0.0,0.0,0.0,0.0,0.0,0.0,0.0,0.0,0.0,0.0,0.0,0.0,0.0,0.0,0.0,0.0,0.0,0.0,0.0,0.0,0.0,0.0,0.0,0.0,0.0,0.0,0.0,0.0,0.0,0.0,0.0,0.0,0.0,0.0,0.0,0.0,0.0,0.0,0.0,0.0,0.0,0.0,0.0,0.0,0.0,0.0,0.0,0.0,0.0,-6.1788,-6.1245,-6.11,-6.139,-6.139,-6.11,-6.053,0.0,0.0,0.0,0.0,0.0,0.0,0.0,0.0,0.0,0.0,0.0,0.0,0.0,0.0,0.0,0.0,0.0,0.0,0.0,0.0,0.0,0.0,0.0,0.0,0.0,0.0,0.0,0.0,0.0,0.0,0.0,0.0,0.0,0.0,0.0,0.0,0.0,0.0,0.0,0.0,0.0,0.0,0.0,0.0,0.0,0.0,0.0,0.0,0.0,0.0,0.0,0.0,0.0,0.0,0.0,0.0,0.0,0.0,0.0,0.0,0.0,0.0,0.0,0.0,0.0,0.0,0.0,0.0,0.0,0.0,0.0,0.0,0.0,0.0,0.0,0.0,0.0,0.0,0.0,0.0,0.0,0.0,0.0,0.0,0.0,0.0,0.0,0.0,0.0,0.0,0.0,0.0,0.0,0.0,0.0,0.0,0.0,0.0,0.0,0.0,0.0,0.0,0.0,0.0,0.0,0.0,0.0,0.0,-6.5772,-6.4396,-6.3961,-6.4577,-6.4468,-6.3744,0.0,0.0,0.0,0.0,0.0,0.0,0.0,0.0,0.0,0.0,0.0,0.0,0.0,0.0,0.0,0.0,0.0,0.0,0.0,0.0,0.0,0.0,0.0,0.0,0.0,0.0,0.0,0.0,0.0,0.0,0.0,0.0,0.0,0.0,0.0,0.0,0.0,0.0,0.0,0.0,0.0,0.0,0.0,0.0,0.0,0.0,0.0,0.0,0.0,0.0,0.0,0.0,0.0,0.0,0.0,0.0,0.0,0.0,0.0,0.0,0.0,0.0,0.0,0.0,0.0,0.0,0.0,0.0,0.0,0.0,0.0,0.0,0.0,0.0,0.0,0.0,0.0,0.0,0.0,0.0,0.0,0.0,0.0,0.0,0.0,0.0,0.0,0.0,0.0,0.0,0.0,0.0,0.0,0.0,0.0,0.0,0.0,0.0,0.0,0.0,0.0,0.0,0.0,0.0,0.0,0.0,0.0,0.0,0.0,-6.8192,-6.8959,-6.8633,-6.7112,-6.5917,-6.4794,0.0,0.0,0.0,0.0,0.0,0.0,0.0,0.0,0.0,0.0,0.0,0.0,0.0,0.0,0.0,0.0,0.0,0.0,0.0,0.0,0.0,0.0,0.0,0.0,0.0,0.0,0.0,0.0,0.0,0.0,0.0,0.0,0.0,0.0,0.0,0.0,0.0,0.0,0.0,0.0,0.0,0.0,0.0,0.0,0.0,0.0,0.0,0.0,0.0,0.0,0.0,0.0,0.0,0.0,0.0,0.0,0.0,0.0,0.0,0.0,0.0,0.0,0.0,0.0,0.0,0.0,0.0,0.0,0.0,0.0,0.0,0.0,0.0,0.0,0.0,0.0,0.0,0.0,0.0,0.0,0.0,0.0,0.0,0.0,0.0,0.0,0.0,0.0,0.0,0.0,0.0,0.0,0.0,0.0,0.0,0.0,0.0,0.0,0.0,0.0,0.0,0.0,0.0,0.0,0.0,0.0,0.0,0.0,-6.8271,-6.9684,-7.2871,-7.374,-7.2038,-6.8488,-6.6062,0.0,0.0,0.0,0.0,0.0,0.0,0.0,0.0,0.0,0.0,0.0,0.0,0.0,0.0,0.0,0.0,0.0,0.0,0.0,0.0,0.0,0.0,0.0,0.0,0.0,0.0,0.0,0.0,0.0,0.0,0.0,0.0,0.0,0.0,0.0,0.0,0.0,0.0,0.0,0.0,0.0,0.0,0.0,0.0,0.0,0.0,0.0,0.0,0.0,0.0,0.0,0.0,0.0,0.0,0.0,0.0,0.0,0.0,0.0,0.0,0.0,0.0,0.0,0.0,0.0,0.0,0.0,0.0,0.0,0.0,0.0,0.0,0.0,0.0,0.0,0.0,0.0,0.0,0.0,0.0,0.0,0.0,0.0,0.0,0.0,0.0,0.0,0.0,0.0,0.0,0.0,0.0,0.0,0.0,0.0,0.0,0.0,0.0,0.0,0.0,0.0,0.0,0.0,0.0,0.0,0.0,0.0,0.0,-7.0584,-7.0915,-7.5985,-7.834,-7.747,-7.1531,-6.7547,0.0,0.0,0.0,0.0,0.0,0.0,0.0,0.0,0.0,0.0,0.0,0.0,0.0,0.0,0.0,0.0,0.0,0.0,0.0,0.0,0.0,0.0,0.0,0.0,0.0,0.0,0.0,0.0,0.0,0.0,0.0,0.0,0.0,0.0,0.0,0.0,0.0,0.0,0.0,0.0,0.0,0.0,0.0,0.0,0.0,0.0,0.0,0.0,0.0,0.0,0.0,0.0,0.0,0.0,0.0,0.0,0.0,0.0,0.0,0.0,0.0,0.0,0.0,0.0,0.0,0.0,0.0,0.0,0.0,0.0,0.0,0.0,0.0,0.0,0.0,0.0,0.0,0.0,0.0,0.0,0.0,0.0,0.0,0.0,0.0,0.0,0.0,0.0,0.0,0.0,0.0,0.0,0.0,0.0,0.0,0.0,0.0,0.0,0.0,0.0,0.0,0.0,0.0,0.0,0.0,0.0,0.0,0.0,-7.1603,-7.4102,-7.7144,-7.8629,-7.8448,-7.2871,-6.943,0.0,0.0,0.0,0.0,0.0,0.0,0.0,0.0,0.0,0.0,0.0,0.0,0.0,0.0,0.0,0.0,0.0,0.0,0.0,0.0,0.0,0.0,0.0,0.0,0.0,0.0,0.0,0.0,0.0,0.0,0.0,0.0,0.0,0.0,0.0,0.0,0.0,0.0,0.0,0.0,0.0,0.0,0.0,0.0,0.0,0.0,0.0,0.0,-6.4533,0.0,0.0,0.0,0.0,0.0,0.0,0.0,0.0,0.0,0.0,0.0,0.0,0.0,0.0,0.0,0.0,0.0,0.0,0.0,0.0,0.0,0.0,0.0,0.0,0.0,0.0,0.0,0.0,0.0,0.0,0.0,0.0,0.0,0.0,0.0,0.0,0.0,0.0,0.0,0.0,0.0,0.0,0.0,0.0,0.0,0.0,0.0,0.0,0.0,0.0,0.0,0.0,0.0,0.0,0.0,0.0,0.0,0.0,0.0,-7.2472,-7.5623,-7.8412,-7.9825,-7.968,-7.5478,-7.2106,0.0,0.0,0.0,0.0,0.0,0.0,0.0,0.0,0.0,0.0,0.0,0.0,0.0,0.0,0.0,0.0,0.0,0.0,0.0,0.0,0.0,0.0,0.0,0.0,0.0,0.0,0.0,0.0,0.0,0.0,0.0,0.0,0.0,0.0,0.0,0.0,0.0,0.0,0.0,0.0,0.0,0.0,0.0,0.0,0.0,0.0,0.0,0.0,0.0,0.0,0.0,0.0,0.0,0.0,0.0,0.0,0.0,0.0,0.0,0.0,0.0,0.0,0.0,0.0,0.0,0.0,0.0,0.0,0.0,0.0,0.0,0.0,0.0,0.0,0.0,0.0,0.0,0.0,0.0,0.0,0.0,0.0,0.0,0.0,0.0,0.0,0.0,0.0,0.0,0.0,0.0,0.0,0.0,0.0,0.0,0.0,0.0,0.0,0.0,0.0,0.0,0.0,0.0,0.0,0.0,0.0,0.0,-7.0082,-7.3233,-7.6782,-7.9643,-8.1092,-8.1056,-7.7977,-7.45,-7.0698,0.0,0.0,0.0,0.0,0.0,0.0,0.0,0.0,0.0,0.0,0.0,0.0,0.0,0.0,0.0,0.0,0.0,0.0,0.0,0.0,0.0,0.0,0.0,0.0,0.0,0.0,0.0,0.0,0.0,0.0,0.0,0.0,0.0,0.0,0.0,0.0,0.0,0.0,-6.2676,-6.2305,0.0,0.0,0.0,0.0,0.0,0.0,0.0,0.0,-6.4218,0.0,0.0,0.0,0.0,0.0,0.0,0.0,0.0,0.0,0.0,0.0,0.0,0.0,0.0,0.0,0.0,0.0,0.0,0.0,0.0,0.0,0.0,0.0,0.0,0.0,0.0,0.0,0.0,0.0,0.0,0.0,0.0,0.0,0.0,0.0,0.0,0.0,0.0,0.0,0.0,0.0,0.0,0.0,0.0,0.0,0.0,0.0,0.0,0.0,0.0,0.0,0.0,0.0,0.0,0.0,0.0,-6.975,-7.0915,-7.403,-7.9173,-8.0476,-8.1092,-8.102,-7.7977,-7.4718,-7.1458,0.0,0.0,0.0,0.0,0.0,0.0,0.0,0.0,0.0,0.0,0.0,0.0,0.0,0.0,0.0,0.0,0.0,0.0,0.0,0.0,0.0,0.0,0.0,0.0,0.0,0.0,0.0,0.0,0.0,0.0,0.0,0.0,0.0,0.0,0.0,0.0,0.0,0.0,0.0,-6.3384,-6.3012,0.0,0.0,0.0,0.0,0.0,0.0,0.0,0.0,-6.5837,0.0,0.0,0.0,0.0,0.0,0.0,0.0,0.0,0.0,0.0,0.0,0.0,0.0,0.0,0.0,0.0,0.0,0.0,0.0,0.0,0.0,0.0,0.0,0.0,0.0,0.0,0.0,0.0,0.0,0.0,0.0,0.0,0.0,0.0,0.0,0.0,0.0,0.0,0.0,0.0,0.0,0.0,0.0,0.0,0.0,0.0,0.0,0.0,0.0,0.0,0.0,0.0,0.0,0.0,0.0,-7.0806,-7.2943,-7.6094,-8.0332,-8.0911,-8.1092,-8.1056,-7.7977,-7.4971,0.0,0.0,0.0,0.0,0.0,0.0,0.0,0.0,0.0,0.0,0.0,0.0,0.0,0.0,0.0,0.0,0.0,0.0,0.0,0.0,0.0,0.0,0.0,0.0,0.0,0.0,0.0,0.0,0.0,0.0,0.0,0.0,0.0,0.0,0.0,0.0,0.0,0.0,0.0,0.0,-6.4634,-6.4807,-6.7142,0.0,0.0,0.0,0.0,0.0,0.0,-6.6351,-6.5989,0.0,0.0,0.0,0.0,0.0,0.0,0.0,0.0,0.0,0.0,0.0,0.0,0.0,0.0,0.0,0.0,0.0,0.0,0.0,0.0,0.0,0.0,0.0,0.0,0.0,0.0,0.0,0.0,0.0,0.0,0.0,0.0,0.0,0.0,0.0,0.0,0.0,0.0,0.0,0.0,0.0,0.0,0.0,0.0,0.0,0.0,0.0,0.0,0.0,0.0,0.0,0.0,0.0,0.0,0.0,-7.1277,-7.4573,-7.7796,-8.073,-8.102,-8.1092,-8.102,-7.7507,-7.4645,0.0,0.0,0.0,0.0,0.0,0.0,0.0,0.0,0.0,0.0,0.0,0.0,0.0,0.0,0.0,0.0,0.0,0.0,0.0,0.0,0.0,0.0,0.0,0.0,0.0,0.0,0.0,0.0,0.0,0.0,0.0,0.0,0.0,0.0,0.0,0.0,0.0,0.0,0.0,0.0,0.0,-6.646,-6.8845,-6.7148,0.0,0.0,0.0,0.0,-6.6315,-6.6714,0.0,0.0,0.0,0.0,0.0,0.0,0.0,0.0,0.0,0.0,0.0,0.0,0.0,0.0,0.0,0.0,0.0,0.0,0.0,0.0,0.0,0.0,0.0,0.0,0.0,0.0,0.0,0.0,0.0,0.0,0.0,0.0,0.0,0.0,0.0,0.0,0.0,0.0,0.0,0.0,0.0,0.0,0.0,0.0,0.0,0.0,0.0,0.0,0.0,0.0,0.0,0.0,0.0,0.0,0.0,0.0,-7.0553,-7.4319,-7.7507,-7.9933,-8.0766,-8.1092,-8.102,-7.5913,-7.2979,0.0,0.0,0.0,0.0,0.0,0.0,0.0,0.0,0.0,0.0,0.0,0.0,0.0,0.0,0.0,0.0,0.0,0.0,0.0,0.0,0.0,0.0,0.0,0.0,0.0,0.0,0.0,0.0,0.0,0.0,0.0,0.0,0.0,0.0,0.0,0.0,0.0,0.0,0.0,0.0,0.0,-6.646,-6.8881,-6.7148,-6.5627,0.0,0.0,-6.8808,-6.8808,-7.0517,0.0,0.0,0.0,0.0,0.0,0.0,0.0,0.0,0.0,0.0,0.0,0.0,0.0,0.0,0.0,0.0,0.0,0.0,0.0,0.0,0.0,0.0,0.0,0.0,0.0,0.0,0.0,0.0,0.0,0.0,0.0,0.0,0.0,0.0,0.0,0.0,0.0,0.0,0.0,0.0,0.0,0.0,0.0,0.0,0.0,0.0,0.0,0.0,0.0,0.0,0.0,0.0,0.0,0.0,0.0,-6.9973,-7.1168,-7.6311,-7.9535,-8.0549,-8.0947,-8.1092,-8.1092,-7.5659,-7.2943,0.0,0.0,0.0,0.0,0.0,0.0,0.0,0.0,0.0,0.0,0.0,0.0,0.0,0.0,0.0,0.0,0.0,0.0,0.0,0.0,0.0,0.0,0.0,0.0,0.0,0.0,0.0,0.0,0.0,0.0,0.0,0.0,0.0,0.0,0.0,0.0,0.0,0.0,0.0,0.0,0.0,0.0,-6.9098,-6.8669,0.0,0.0,0.0,-7.0046,-6.8706,0.0,0.0,0.0,0.0,0.0,0.0,0.0,0.0,0.0,0.0,0.0,0.0,0.0,0.0,0.0,0.0,0.0,0.0,0.0,0.0,0.0,0.0,0.0,0.0,0.0,0.0,0.0,0.0,0.0,0.0,0.0,0.0,0.0,0.0,0.0,0.0,0.0,0.0,0.0,0.0,0.0,0.0,0.0,0.0,0.0,0.0,0.0,0.0,0.0,0.0,0.0,0.0,0.0,0.0,0.0,0.0,0.0,-7.1929,-7.7941,-8.1092,-8.1092,-8.1092,-8.1092,-8.102,-7.6637,0.0,0.0,0.0,0.0,0.0,0.0,0.0,0.0,0.0,0.0,0.0,0.0,0.0,0.0,0.0,0.0,0.0,0.0,0.0,0.0,0.0,0.0,0.0,0.0,0.0,0.0,0.0,-6.3382,0.0,0.0,0.0,0.0,0.0,0.0,0.0,0.0,0.0,0.0,0.0,0.0,0.0,0.0,-6.9207,-6.9207,-6.9865,-7.0517,0.0,0.0,-7.1024,-6.972,-7.2979,-7.4247,0.0,0.0,0.0,0.0,0.0,0.0,0.0,0.0,0.0,0.0,0.0,0.0,0.0,0.0,0.0,0.0,0.0,0.0,0.0,0.0,0.0,0.0,0.0,0.0,0.0,0.0,0.0,0.0,0.0,0.0,0.0,0.0,0.0,0.0,0.0,0.0,0.0,0.0,0.0,0.0,0.0,0.0,0.0,0.0,0.0,0.0,0.0,0.0,0.0,0.0,0.0,0.0,0.0,0.0,0.0,-7.2798,-7.8231,-8.1128,-8.1092,-8.1092,-8.1092,-8.1092,-7.9281,-7.6891,0.0,0.0,0.0,0.0,0.0,0.0,0.0,0.0,0.0,0.0,0.0,0.0,0.0,0.0,0.0,0.0,0.0,0.0,0.0,0.0,0.0,0.0,0.0,0.0,0.0,0.0,0.0,0.0,0.0,0.0,0.0,0.0,0.0,0.0,0.0,0.0,0.0,0.0,0.0,0.0,0.0,-6.9207,-6.9207,-6.9895,-7.0915,0.0,0.0,-7.1965,-7.3273,-7.5623,-7.6203,-7.2907,0.0,0.0,0.0,0.0,0.0,0.0,0.0,0.0,0.0,0.0,0.0,0.0,0.0,0.0,0.0,0.0,0.0,0.0,0.0,0.0,0.0,0.0,0.0,0.0,0.0,0.0,0.0,0.0,0.0,0.0,0.0,0.0,0.0,0.0,0.0,0.0,0.0,0.0,0.0,0.0,0.0,0.0,0.0,0.0,0.0,0.0,0.0,0.0,0.0,0.0,0.0,0.0,0.0,-7.2907,-7.2798,-7.8738,-8.1599,-8.1128,-8.1092,-8.1092,-8.1092,-7.9535,-7.7217,0.0,0.0,0.0,0.0,0.0,0.0,0.0,0.0,0.0,0.0,0.0,0.0,0.0,0.0,0.0,0.0,0.0,0.0,0.0,0.0,0.0,0.0,0.0,0.0,0.0,0.0,0.0,0.0,-6.7981,-6.7764,-6.5808,0.0,0.0,0.0,0.0,0.0,0.0,0.0,0.0,0.0,0.0,-7.0263,-7.1205,-7.2074,0.0,0.0,-7.3595,-7.3563,-7.3233,-7.5189,-7.5515,-7.1893,-7.1024,0.0,0.0,0.0,0.0,0.0,0.0,0.0,0.0,0.0,0.0,0.0,0.0,0.0,0.0,0.0,0.0,0.0,0.0,0.0,0.0,0.0,0.0,0.0,0.0,0.0,0.0,0.0,0.0,0.0,0.0,0.0,0.0,0.0,0.0,0.0,0.0,0.0,0.0,0.0,0.0,0.0,0.0,0.0,0.0,0.0,0.0,0.0,0.0,0.0,0.0,0.0,0.0,-7.3707,-7.3418,-7.9499,-8.2396,-8.1817,-8.1817,-8.1817,-8.1817,-8.0947,-7.8992,0.0,0.0,0.0,0.0,0.0,0.0,0.0,0.0,0.0,0.0,0.0,0.0,0.0,0.0,0.0,0.0,0.0,0.0,0.0,0.0,0.0,0.0,0.0,0.0,0.0,0.0,0.0,0.0,-6.8525,-6.809,-6.5844,0.0,0.0,0.0,0.0,0.0,0.0,0.0,0.0,0.0,0.0,-7.1313,-7.1929,-7.269,-7.3197,-7.3197,-7.3486,-7.3486,-7.2798,-7.4138,-7.4283,-7.1531,0.0,0.0,0.0,0.0,0.0,0.0,0.0,0.0,0.0,0.0,0.0,0.0,0.0,0.0,0.0,0.0,0.0,0.0,0.0,0.0,0.0,0.0,0.0,0.0,0.0,0.0,0.0,0.0,0.0,0.0,-6.1933,0.0,0.0,0.0,0.0,0.0,0.0,0.0,0.0,0.0,0.0,0.0,0.0,0.0,0.0,0.0,0.0,0.0,0.0,0.0,0.0,0.0,0.0,-7.4287,-7.5083,-8.0585,-8.3446,-8.341,-8.341,-8.3374,-8.341,-8.4135,-8.3048,-7.9788,0.0,0.0,0.0,0.0,0.0,0.0,0.0,0.0,0.0,0.0,0.0,0.0,0.0,0.0,0.0,0.0,0.0,0.0,0.0,0.0,0.0,0.0,0.0,0.0,0.0,0.0,-6.2774,-6.4359,-6.5736,0.0,0.0,0.0,0.0,0.0,0.0,0.0,0.0,0.0,0.0,-7.0191,-7.2074,-7.0698,-7.1096,-7.1639,-7.1639,-7.1024,-7.1024,-7.2472,-7.2726,-7.2762,0.0,0.0,0.0,0.0,0.0,0.0,0.0,0.0,0.0,0.0,0.0,0.0,0.0,0.0,0.0,0.0,0.0,0.0,0.0,0.0,0.0,0.0,0.0,0.0,0.0,0.0,0.0,-6.2041,-6.2041,0.0,0.0,0.0,0.0,0.0,0.0,0.0,0.0,0.0,0.0,0.0,-6.9901,-6.9937,0.0,0.0,0.0,0.0,0.0,0.0,0.0,0.0,0.0,0.0,0.0,0.0,-7.537,-7.5406,-8.1165,-8.4026,-8.3519,-8.3483,-8.3483,-8.3483,-8.4279,-8.3446,-8.0766,0.0,0.0,0.0,0.0,0.0,0.0,0.0,0.0,0.0,0.0,0.0,0.0,0.0,0.0,0.0,0.0,0.0,0.0,0.0,0.0,0.0,0.0,0.0,0.0,0.0,-6.6388,0.0,0.0,0.0,0.0,0.0,0.0,0.0,0.0,0.0,0.0,0.0,-6.8307,-6.9104,-6.9865,-7.0553,-7.106,-7.135,-7.1893,0.0,0.0,0.0,0.0,0.0,0.0,0.0,0.0,0.0,0.0,0.0,0.0,0.0,0.0,-7.0408,-6.9358,-7.0444,-7.1458,-7.1168,0.0,0.0,0.0,0.0,0.0,0.0,0.0,0.0,0.0,0.0,0.0,0.0,0.0,0.0,-6.5308,0.0,-6.4114,0.0,0.0,0.0,0.0,0.0,0.0,0.0,0.0,-7.0734,-7.2291,-7.316,-7.316,-7.316,0.0,-7.2327,-7.0046,0.0,0.0,0.0,0.0,0.0,0.0,0.0,0.0,-7.6058,-7.5804,-8.1853,-8.4859,-8.4352,-8.4316,-8.4316,-8.4352,-8.4823,-8.4388,-8.2831,-7.968,-7.7,0.0,0.0,0.0,0.0,0.0,0.0,0.0,0.0,0.0,0.0,0.0,0.0,0.0,0.0,0.0,0.0,0.0,0.0,0.0,0.0,0.0,0.0,0.0,-6.7655,0.0,0.0,0.0,0.0,0.0,0.0,0.0,0.0,0.0,-6.7257,-6.8633,-6.9901,-7.0661,-7.0806,-7.0806,-7.0698,0.0,0.0,0.0,0.0,0.0,0.0,0.0,-6.9032,-6.8525,-6.8887,-6.9611,-7.0625,-7.1205,-7.1748,-7.2581,0.0,0.0,-7.1893,-7.2871,-7.3888,-7.3888,-7.3269,-7.2871,-7.3378,-7.2871,-7.2436,0.0,0.0,0.0,0.0,0.0,0.0,0.0,0.0,-7.1386,-7.1313,0.0,-6.8235,0.0,0.0,0.0,0.0,0.0,-7.0046,0.0,0.0,-7.7833,-7.9318,-7.6565,-7.642,-7.642,-7.6311,-7.4175,-7.3052,-7.2943,-7.3016,0.0,0.0,0.0,0.0,0.0,0.0,-7.6311,-7.6637,-8.2686,-8.5873,-8.5873,-8.5873,-8.5873,-8.5873,-8.5873,-8.5873,-8.5764,-8.2867,-8.1201,-8.0984,-7.5189,0.0,0.0,0.0,0.0,0.0,0.0,0.0,0.0,0.0,0.0,0.0,0.0,0.0,0.0,0.0,0.0,0.0,0.0,0.0,0.0,-6.8126,0.0,0.0,0.0,0.0,0.0,0.0,0.0,0.0,0.0,0.0,-6.8271,-6.9466,-7.0625,-7.1313,0.0,0.0,0.0,0.0,-7.0372,-6.7583,-6.704,-6.7112,-6.7257,-6.8452,-6.9865,-7.1313,0.0,0.0,-7.3957,-7.2762,-7.2146,-7.2834,-7.4899,-7.5877,-7.45,-7.4319,-7.4283,-7.4211,-7.3667,-7.3016,-7.2943,-7.2943,-7.2291,-7.5019,0.0,0.0,0.0,0.0,-6.9877,-7.0509,-7.1494,-7.1494,-7.1494,-7.1458,-7.0553,0.0,0.0,0.0,0.0,0.0,0.0,-7.3269,-7.4971,-7.6818,-7.8376,-7.9716,-7.9752,-7.9716,-7.968,-7.9028,-7.8702,-7.8738,-7.9861,-7.6891,-7.0149,0.0,0.0,0.0,0.0,-7.7144,-7.9028,-8.3519,-8.5909,-8.5909,-8.5909,-8.5909,-8.5909,-8.5909,-8.5909,-8.5909,-8.5004,-8.3446,-8.1201,-7.9354,0.0,0.0,0.0,0.0,0.0,0.0,0.0,0.0,0.0,0.0,0.0,0.0,0.0,0.0,0.0,0.0,0.0,0.0,0.0,-6.8017,-7.0553,-7.0734,0.0,0.0,0.0,0.0,0.0,0.0,0.0,0.0,0.0,-7.0553,-7.0444,-7.0294,0.0,0.0,-6.8525,-6.7619,-6.8814,-7.0118,-7.0879,-7.1024,0.0,-7.3342,-7.2979,-7.2726,-7.316,-7.4573,-7.5623,-7.5587,-7.6167,-7.6891,-7.7651,-7.7941,-7.8195,-7.8919,-7.8557,-7.7977,-7.747,-7.7144,-7.7217,-7.7688,-7.7651,-7.7579,-7.8416,-7.4957,-7.3694,-7.3152,-7.3152,-7.3152,-7.3974,-7.5334,-7.5297,-7.5478,-7.5696,-7.4428,-7.4319,-7.5008,-7.374,0.0,0.0,0.0,-7.5877,-7.8195,-7.8195,-7.9245,-8.1056,-8.1092,-8.1092,-8.1092,-8.1092,-8.1092,-8.1128,-8.1418,-7.8955,-7.3849,0.0,0.0,-7.2364,-7.5877,-7.8593,-8.0476,-8.4026,-8.6018,-8.6344,-8.667,-8.667,-8.6344,-8.638,-8.6235,-8.5909,-8.5909,-8.5004,-8.3084,-8.178,-7.9354,0.0,0.0,0.0,0.0,0.0,0.0,0.0,0.0,0.0,0.0,0.0,-6.8307,-6.6895,0.0,0.0,0.0,-7.1096,-7.0698,-7.0372,-7.1639,0.0,0.0,0.0,0.0,0.0,0.0,0.0,-6.809,-7.0046,-7.1494,-7.1494,-7.1096,-7.0879,-7.1024,-7.0227,-6.9502,-6.9176,0.0,-7.1929,-7.3052,-7.3197,-7.3704,-7.5116,-7.508,-7.5044,-7.5732,-7.6565,-7.7217,-7.7289,-7.8086,-7.8955,-7.9607,-7.9499,-7.9499,-8.044,-8.0223,-7.9897,-7.968,-7.939,-7.9354,-7.9825,-7.9426,-7.91,-8.044,-8.0839,-7.7905,-7.6674,-7.6674,-7.6674,-7.834,-8.1056,-8.1056,-8.1491,-8.1997,-7.9136,-7.834,-7.8992,-7.6167,0.0,-7.7977,-7.7977,-7.91,-8.1092,-8.1092,-8.1092,-8.1092,-8.1092,-8.1165,-8.1201,-8.1201,-8.1237,-8.1237,-7.9933,-7.9064,-7.881,-7.9607,-7.8412,-7.5551,-7.8195,-8.0187,-8.1201,-8.4171,-8.6163,-8.7104,-8.779,-8.7826,-8.7141,-8.7177,-8.6851,-8.6126,-8.6018,-8.5982,-8.5909,-8.312,-8.1382,-8.0947,0.0,0.0,0.0,0.0,0.0,0.0,0.0,0.0,0.0,0.0,0.0,0.0,0.0,0.0,0.0,-7.5192,0.0,-7.4283,-7.2291,0.0,0.0,0.0,-7.1132,-7.2581,-7.2762,-7.2472,-7.1603,0.0,0.0,-7.1784,-7.1784,-7.24,-7.4066,-7.3997,-7.3559,-7.2907,-7.4066,-7.4938,-7.4356,-7.4356,-7.4431,-7.5116,-7.6022,-7.7253,-7.8484,-7.8883,-7.8883,-7.8883,-7.8919,-7.9245,-7.9933,-7.9933,-7.9969,-8.0006,-8.0006,-8.0151,-8.0875,-8.0332,-7.9788,-7.9825,-7.8883,-7.805,-8.0947,-8.1056,-8.0295,-7.9969,-7.9969,-7.9969,-8.0404,-8.1092,-8.1092,-8.1237,-8.1382,-8.1201,-8.1925,-8.3265,-8.312,-8.2686,-8.207,-8.207,-8.1708,-8.1128,-8.1092,-8.1092,-8.1092,-8.1092,-8.1454,-8.1998,-8.1998,-8.2324,-8.2903,-8.3157,-8.2034,-7.9788,-8.044,-7.9209,-7.6203,-7.7362,-7.9354,-8.1998,-8.3338,-8.533,-8.7829,-8.8118,-8.8118,-8.7937,-8.7899,-8.7865,-8.7648,-8.7068,-8.6742,-8.6706,-8.5475,-8.3664,-8.1201,-7.7326,0.0,0.0,0.0,0.0,0.0,0.0,0.0,0.0,0.0,-6.9611,-6.78,0.0,-7.0951,0.0,-7.6275,-7.8195,-7.6782,-7.671,0.0,0.0,-7.2871,-7.2291,-7.269,-7.3269,-7.3088,-7.1639,-7.2581,-7.3559,-7.4175,-7.4214,-7.508,-7.7181,-7.4899,-7.316,-7.3559,-7.5008,-7.6167,-7.6637,-7.7615,-7.8702,-7.9136,-7.968,-8.0006,-8.044,-8.0513,-8.0549,-8.0549,-8.0549,-8.0621,-8.073,-8.0295,-8.0187,-8.0694,-8.0332,-8.0223,-8.0802,-7.9969,-7.9173,-7.9752,-7.9571,-7.9462,-8.1092,-8.1092,-8.1092,-8.0476,-7.9571,-8.0658,-8.1092,-8.1092,-8.1092,-8.1309,-8.1708,-8.2867,-8.3845,-8.4714,-8.5185,-8.4678,-8.3483,-8.312,-8.2287,-8.1165,-8.1454,-8.1635,-8.1672,-8.1998,-8.2396,-8.2831,-8.3193,-8.3591,-8.4062,-8.5149,-8.4823,-8.312,-8.3881,-8.2831,-8.0078,-7.834,-7.8557,-8.0658,-8.2903,-8.5547,-8.8626,-8.9096,-8.8444,-8.6706,-8.6634,-8.5801,-8.4062,-8.3555,-8.3338,-8.3301,-8.2577,-8.1346,-7.9535,-7.613,-7.3378,0.0,0.0,0.0,0.0,0.0,0.0,0.0,0.0,0.0,0.0,0.0,-7.211,-7.2545,-7.671,-7.8412,-7.6094,-7.6311,-7.6275,-7.5587,-7.5116,-7.4971,-7.5334,-7.5768,-7.5551,-7.4319,-7.4971,-7.5804,-7.6601,-7.671,-7.7326,-7.8992,-7.7326,-7.6058,-7.6529,-7.7362,-7.8195,-7.8992,-7.9861,-8.0585,-8.1056,-8.1092,-8.1092,-8.1092,-8.1092,-8.1092,-8.1092,-8.1092,-8.1092,-8.1056,-8.073,-8.0585,-8.0984,-8.0766,-8.0621,-8.0839,-8.0404,-8.0006,-8.0332,-8.0151,-8.0078,-8.1092,-8.1092,-8.1092,-7.9897,-7.8122,-8.0223,-8.0766,-8.0187,-8.0187,-8.0802,-8.1925,-8.3627,-8.4424,-8.4533,-8.4642,-8.4243,-8.3446,-8.2867,-8.2179,-8.1491,-8.2143,-8.2432,-8.2468,-8.3265,-8.37,-8.3809,-8.4605,-8.504,-8.5185,-8.6525,-8.7032,-8.6778,-8.743,-8.6597,-8.4171,-8.0042,-7.8303,-7.9064,-8.2867,-8.6199,-8.8843,-8.9241,-8.772,-8.446,-8.4243,-8.2613,-7.9209,-7.8919,-7.8847,-7.8847,-7.8086,-7.7796,-7.8014,-7.4392,-7.24,0.0,-6.9756,0.0,0.0,0.0,0.0,0.0,0.0,0.0,0.0,-7.4504,-7.4175,-7.4323,-7.6927,-7.7543,-7.5044,-7.4793,-7.5659,-7.7688,-7.7869,-7.8086,-7.8774,-7.8774,-7.8448,-7.7724,-7.7651,-7.7941,-7.8666,-7.8847,-7.9136,-7.9897,-7.9897,-7.968,-7.9969,-7.9933,-8.0187,-8.102,-8.1092,-8.102,-8.1092,-8.1092,-8.1092,-8.1092,-8.1092,-8.1092,-8.1092,-8.1092,-8.1092,-8.1092,-8.1092,-8.1092,-8.1092,-8.1092,-8.1092,-8.1092,-8.102,-8.0984,-8.0984,-8.0585,-8.0078,-8.1092,-8.1092,-8.1092,-8.0839,-8.0476,-8.0911,-7.8883,-7.5228,-7.5261,-7.6818,-7.9499,-8.1744,-8.312,-8.3736,-8.4388,-8.4243,-8.3519,-8.4026,-8.3809,-8.3048,-8.3193,-8.3265,-8.3301,-8.4098,-8.4786,-8.5438,-8.6235,-8.6923,-8.7539,-8.7826,-8.7032,-8.5185,-8.5293,-8.4171,-8.1853,0.0,0.0,0.0,-8.3953,-8.5982,-8.6452,-8.4135,-8.2577,-8.1817,-8.1817,0.0,-8.0694,-8.0042,-7.968,-7.9643,-7.8883,0.0,0.0,0.0,0.0,0.0,0.0,0.0,0.0,0.0,0.0,0.0,-7.5515,-7.5442,-7.5985,-7.5334,-7.5442,-7.671,-7.7362,-7.8303,-7.9607,-7.9752,-7.9933,-8.0332,-7.9825,-7.9499,-7.9643,-7.91,-7.8629,-7.8521,-7.8448,-7.8774,-7.9535,-7.968,-7.9969,-8.0694,-8.0875,-8.0875,-8.0875,-8.0839,-8.0947,-8.1092,-8.1092,-8.1092,-8.1092,-8.1092,-8.1092,-8.1092,-8.1092,-8.1092,-8.1092,-8.1092,-8.1092,-8.1092,-8.1092,-8.1092,-8.1092,-8.1092,-8.1092,-8.1092,-8.1092,-8.1092,-8.1092,-8.0984,-8.0875,-8.1092,0.0,-8.1092,-8.044,0.0,-7.9318,-7.7253,-7.4066,-7.6456,-7.8376,-8.0006,-8.1563,-8.2541,-8.2867,-8.207,-8.1527,-8.1056,-7.9897,-8.0223,-8.1708,-8.2143,-8.3374,-8.5257,-8.6054,-8.6634,-8.7068,-8.7829,-8.8408,-8.8807,-8.9205,-8.877,-8.7611,-8.7611,-8.6996,-8.5837,-8.5801,-8.504,-8.3483,-8.5076,-8.6634,-8.8082,-8.6634,-8.504,-8.3555,0.0,0.0,0.0,0.0,0.0,0.0,0.0,0.0,0.0,0.0,0.0,-7.9209,-7.7434,-7.7,-7.8521,-7.8666,-7.9354,-8.0911,-8.102,-8.0006,-7.7688,-7.8195,-7.881,-7.9245,-7.9281,-7.9788,-8.0947,-8.1092,-8.1092,-8.1092,-8.073,-8.0368,-7.9933,-7.9535,-7.9318,-7.9281,-7.9318,-7.9607,-8.0404,-8.0513,-8.0658,-8.102,-8.1092,-8.1092,-8.1092,-8.1092,-8.1092,-8.1092,-8.1092,-8.1092,-8.1092,-8.1092,-8.1092,-8.1092,-8.1092,-8.1092,-8.1092,-8.1092,-8.1092,-8.1092,-8.1092,-8.1092,-8.1092,-8.1092,-8.1092,-8.1092,-8.1092,-8.1092,-8.1092,-8.1092,-8.1092,-8.1092,-8.1092,-8.1092,-7.9969,-7.8122,-7.8122,-7.7,-7.5442,0.0,0.0,0.0,-8.1599,-8.207,-8.1925,-8.0151,-7.9499,-7.9571,-7.7181,-7.7977,-8.1382,-8.207,-8.4098,-8.7213,-8.8046,-8.8444,-8.8444,-8.9241,-8.9603,-8.964,-9.0255,-9.0618,-9.0618,-9.0618,-9.0618,-9.0618,-9.0618,-8.9314,-8.6851,-8.6199,-8.7141,-8.9676,-8.9205,-8.7684,-8.5112,-8.504,-8.3809,-8.1237,-8.1092,-8.1092,-8.1092,-8.0476,-8.0295,-8.0658,-7.9499,-7.8883,-7.9136,-7.8557,-7.9281,-8.1744,-8.1961,-8.3084,-8.5728,-8.5764,-8.4026,-8.0006,-8.1454,-8.2179,-8.1382,-8.1201,-8.1092,-8.1092,-8.1092,-8.1092,-8.1092,-8.1092,-8.0839,-8.0223,-8.0114,-8.0114,-8.0114,-8.0114,-8.0368,-8.0984,-8.1056,-8.1092,-8.1092,-8.1092,-8.1092,-8.1092,-8.1092,-8.1092,-8.1092,-8.1092,-8.1092,-8.1092,-8.1092,-8.1092,-8.1092,-8.1092,-8.1092,-8.1092,-8.1092,-8.1092,-8.1092,-8.1092,-8.1092,-8.1092,-8.1092,-8.1092,-8.1092,-8.1092,-8.1092,-8.1092,-8.1092,-8.1092,-8.1092,-8.1092,-8.1092,-8.0911,-8.0621,-8.0585,-8.044,-7.9969,-7.8629,-7.8014,-7.8159,-8.0332,-8.1273,-8.1273,-8.1635,-8.2541,-8.3845,-8.4098,-8.5257,-8.6994,-8.7177,-8.7464,-8.8043,-8.8843,-8.9241,-8.9277,-9.0038,-9.0436,-9.0436,-9.0509,-9.0618,-9.0581,-9.0618,-9.0618,-9.0618,-9.0618,-9.04,-8.9893,-8.7285,-8.609,-8.6489,-8.3881,-8.2251,-8.1817,-8.1925,-8.1599,-8.1128,-8.1201,-8.1092,-8.1092,-8.102,-8.1853,-8.3845,-8.3809,-8.4279,-8.5547,-8.5547,-8.5438,-8.5221,-8.5221,-8.5438,-8.5801,-8.5257,-8.4533,-8.3917,-8.3519,-8.2976,-8.2179,-8.1527,-8.1092,-8.1092,-8.1092,-8.1092,-8.1092,-8.1092,-8.1056,-8.0911,-8.0911,-8.0875,-8.0875,-8.0947,-8.0911,-8.1056,-8.1092,-8.1092,-8.1092,-8.1092,-8.1092,-8.1092,-8.1092,-8.1092,-8.1092,-8.1092,-8.1092,-8.1092,-8.1092,-8.1092,-8.1092,-8.1092,-8.1092,-8.1092,-8.1092,-8.1092,-8.1092,-8.1092,-8.1092,-8.1092,-8.1092,-8.1092,-8.1092,-8.1092,-8.1092,-8.1092,-8.1092,-8.1092,-8.1092,-8.1092,-8.1092,-8.1092,-8.1092,-8.1092,-8.1092,-8.102,-7.9933,-7.9462,-7.9571,-8.0621,-8.1346,-8.1635,-8.0766,-8.0984,-8.207,-8.1128,-8.2251,-8.4895,-8.5004,-8.6163,-8.8118,-8.8589,-8.8734,-8.8807,-8.9567,-8.9748,-8.9422,-9.0147,-9.0364,-9.0002,-9.0364,-9.0618,-9.0618,-9.0618,-9.0618,-9.0581,-8.9169,-8.8444,-8.8408,-8.7032,-8.6271,-8.6235,-8.6271,-8.6271,-8.6271,-8.6271,-8.6271,-8.6271,-8.6271,-8.6778,-8.7793,-8.7503,-8.7575,-8.8227,-8.7503,-8.6887,-8.6525,-8.6126,-8.5909,-8.5873,-8.5547,-8.533,-8.5366,-8.4207,-8.3157,-8.236,-8.1925,-8.1563,-8.1165,-8.1092,-8.1092,-8.1092,-8.1092,-8.1092,-8.1092,-8.1092,-8.1092,-8.1092,-8.1092,-8.1092,-8.1092,-8.1092,-8.1092,-8.1092,-8.1092,-8.1092,-8.1092,-8.1092,-8.1092,-8.1092,-8.1092,-8.1092,-8.1092,-8.1092,-8.1092,-8.1092,-8.1092,-8.1092,-8.1092,-8.1092,-8.1092,-8.1092,-8.1092,-8.1092,-8.1092,-8.1092,-8.1092,-8.1092,-8.1092,-8.1092,-8.1092,-8.1092,-8.0947,-8.1092,-8.1092,-8.1092,-8.1092,-8.1092,-8.1092,-8.1092,-8.1128,-8.1273,-8.1382,-8.1382,-8.1382,-8.1817,-8.2324,-8.0585,-8.0332,-8.0911,-7.9318,-8.0368,-8.341,-8.3627,-8.5257,-8.7935,-8.8188,-8.8188,-8.8261,-8.8843,-8.8807,-8.8405,-8.9459,-8.9857,-8.9495,-9.0038,-9.04,-9.0618,-9.0618,-9.0618,-9.0618,-9.0618,-9.0618,-9.0618,-9.0618,-9.0581,-9.0618,-9.0581,-9.0618,-9.0618,-9.0618,-9.0618,-9.0618,-9.0618,-9.0618,-9.0581,-9.0002,-8.9603,-8.9314,-8.8263,-8.7394,-8.6996,-8.6308,-8.5909,-8.5909,-8.5909,-8.5801,-8.5547,-8.4497,-8.341,-8.2686,-8.2179,-8.1708,-8.1237,-8.1092,-8.1092,-8.1092,-8.1092,-8.1092,-8.1092,-8.1092,-8.1092,-8.1092,-8.1092,-8.1092,-8.1092,-8.1092,-8.1092,-8.1092,-8.1092,-8.1092,-8.1092,-8.1092,-8.1092,-8.1092,-8.1092,-8.1092,-8.1092,-8.1092,-8.1092,-8.1092,-8.1092,-8.1092,-8.1092,-8.1092,-8.1092,-8.1092,-8.1092,-8.1092,-8.1092,-8.1092,-8.1092,-8.1092,-8.1092,-8.1092,-8.1092,-8.1092,-8.073,-8.1092,-8.1092,-8.1092,-8.1092,-8.1092,-8.1092,-8.1128,-8.1237,-8.1853,-8.2215,-8.2251,-8.2179,-8.265,-8.3301,-8.3084,-8.3736,-8.5076,-8.5076,-8.5801,-8.7285,-8.7645,-8.7826,-8.8118,-8.8152,-8.8188,-8.8152,-8.8224,-8.8263,-8.8118,-8.8297,-8.877,-8.9314,-8.9459,-8.9893,-9.0509,-9.0581,-9.0618,-9.0618,-9.0618,-9.0618,-9.0618,-9.0618,-9.0618,-9.0618,-9.0618,-9.0618,-9.0618,-9.0618,-9.0618,-9.0618,-9.0618,-9.0618,-9.0581,-9.0509,-9.0147,-8.9459,-8.9241,-8.8553,-8.7141,-8.6344,-8.5909,-8.5909,-8.5873,-8.5583,-8.4931,-8.4642,-8.4207,-8.3301,-8.2034,-8.1309,-8.1128,-8.1092,-8.1092,-8.1092,-8.1092,-8.1092,-8.1092,-8.1092,-8.1092,-8.1092,-8.1092,-8.1092,-8.1092,-8.1092,-8.1092,-8.1092,-8.1092,-8.1092,-8.1092,-8.1092,-8.1092,-8.1092,-8.1092,-8.1092,-8.1092,-8.1092,-8.1092,-8.1092,-8.1092,-8.1092,-8.1092,-8.1092,-8.1092,-8.1092,-8.1092,-8.1092,-8.1092,-8.1092,-8.1092,-8.1092,-8.1092,-8.1092,-8.1092,-8.1092,-8.0585,-8.1092,-8.1092,-8.1092,-8.1092,-8.1092,-8.1092,-8.1382,-8.1817,-8.2143,-8.2831,-8.3664,-8.37,-8.3917,-8.4207,-8.4207,-8.4823,-8.5873,-8.5909,-8.6199,-8.6815,-8.6851,-8.6851,-8.6851,-8.6851,-8.6851,-8.6887,-8.7285,-8.7285,-8.6996,-8.7285,-8.7937,-8.8698,-8.9169,-8.9567,-8.9893,-9.0364,-9.0618,-9.0618,-9.0618,-9.0618,-9.0618,-9.0618,-9.0618,-9.0618,-9.0618,-9.0618,-9.0618,-9.0618,-9.0618,-9.0618,-9.0618,-9.0618,-9.0618,-9.0618,-9.0473,-9.0074,-8.9205,-8.8191,-8.7068,-8.6308,-8.5909,-8.5909,-8.5438,-8.504,-8.4678,-8.3845,-8.312,-8.2758,-8.2179,-8.1635,-8.1201,-8.1092,-8.1092,-8.1092,-8.1092,-8.1092,-8.1092,-8.1092,-8.1092,-8.1092,-8.1092,-8.1092,-8.1092,-8.1092,-8.1092,-8.1092,-8.1092,-8.1092,-8.1092,-8.1092,-8.1092,-8.1092,-8.1092,-8.1092,-8.1092,-8.1092,-8.1092,-8.1092,-8.1092,-8.1092,-8.1092,-8.1092,-8.1092,-8.1092,-8.1092,-8.1092,-8.1092,-8.1092,-8.1092,-8.1092,-8.1092,-8.1092,-8.1092,-8.1092,-8.044,-8.1092,-8.1092,-8.1092,-8.1092,-8.1128,-8.1346,-8.1744,-8.236,-8.2758,-8.3627,-8.4642,-8.4895,-8.504,-8.504,-8.5004,-8.533,-8.5837,-8.5909,-8.5909,-8.5909,-8.5909,-8.5909,-8.5909,-8.5909,-8.5909,-8.5982,-8.6452,-8.6452,-8.6018,-8.6416,-8.7213,-8.8155,-8.877,-8.9277,-8.9748,-9.0328,-9.0618,-9.0618,-9.0618,-9.0618,-9.0618,-9.0618,-9.0618,-9.0618,-9.0618,-9.0618,-9.0618,-9.0618,-9.0618,-9.0618,-9.0618,-9.0618,-9.0618,-9.0618,-9.0618,-9.0509,-8.9314,-8.8191,-8.7356,-8.6634,-8.609,-8.5873,-8.533,-8.4823,-8.4279,-8.3301,-8.2468,-8.1961,-8.1961,-8.1635,-8.1237,-8.1092,-8.1092,-8.1092,-8.1092,-8.1092,-8.1092,-8.1092,-8.1092,-8.1092,-8.1092,-8.1092,-8.1092,-8.1092,-8.1092,-8.1092,-8.1092,-8.1092,-8.1092,-8.1092,-8.1092,-8.1092,-8.1092,-8.1092,-8.1092,-8.1092,-8.1092,-8.1092,-8.1092,-8.1092,-8.1092,-8.1092,-8.1092,-8.1092,-8.1092,-8.1092,-8.1092,-8.1092,-8.1092,-8.1092,-8.1092,-8.1092,-8.1092,-8.1092,-8.0404,-8.1092,-8.1092,-8.1092,-8.1128,-8.1165,-8.1889,-8.2251,-8.2541,-8.3881,-8.4605,-8.4859,-8.5475,-8.5837,-8.5801,-8.5764,-8.5837,-8.5909,-8.5909,-8.5909,-8.5909,-8.5909,-8.5909,-8.5909,-8.5909,-8.5909,-8.5909,-8.5982,-8.5982,-8.5909,-8.5945,-8.6742,-8.808,-8.8261,-8.906,-9.0219,-9.0509,-9.0618,-9.0618,-9.0618,-9.0618,-9.0618,-9.0618,-9.0618,-9.0618,-9.0618,-9.0618,-9.0618,-9.0618,-9.0618,-9.0618,-9.0618,-9.0618,-9.0618,-9.0618,-9.0618,-9.0509,-8.9785,-8.8988,-8.8155,-8.7358,-8.6634,-8.6018,-8.5764,-8.5149,-8.3809,-8.3374,-8.265,-8.1346,-8.1273,-8.1201,-8.1128,-8.1092,-8.1092,-8.1092,-8.1092,-8.1092,-8.1092,-8.1092,-8.1092,-8.1092,-8.1092,-8.1092,-8.1092,-8.1092,-8.1092,-8.1092,-8.1092,-8.1092,-8.1092,-8.1092,-8.1092,-8.1092,-8.1092,-8.1092,-8.1092,-8.1092,-8.1092,-8.1092,-8.1092,-8.1092,-8.1092,-8.1092,-8.1092,-8.1092,-8.1092,-8.1092,-8.1092,-8.1092,-8.1092,-8.1092,-8.1092,-8.1092,-8.1092,-8.1092,-8.044,-8.1092,-8.1092,-8.1092,-8.1382,-8.1889,-8.2179,-8.2867,-8.3845,-8.4424,-8.5004,-8.5438,-8.5764,-8.5909,-8.5909,-8.5909,-8.5909,-8.5909,-8.5909,-8.5909,-8.5909,-8.5909,-8.5909,-8.5909,-8.5909,-8.5909,-8.5909,-8.5909,-8.5909,-8.5909,-8.5909,-8.6416,-8.7394,-8.7935,-8.877,-8.9748,-9.0364,-9.0618,-9.0618,-9.0618,-9.0618,-9.0618,-9.0618,-9.0618,-9.0618,-9.0618,-9.0618,-9.0618,-9.0618,-9.0618,-9.0618,-9.0618,-9.0618,-9.0618,-9.0618,-9.0618,-9.0545,-8.9821,-8.906,-8.8263,-8.7428,-8.6706,-8.5982,-8.5402,-8.4678,-8.3664,-8.3012,-8.2251,-8.1382,-8.1092,-8.1092,-8.1092,-8.1092,-8.1092,-8.1092,-8.1092,-8.1092,-8.1092,-8.1092,-8.1092,-8.1092,-8.1092,-8.1092,-8.1092,-8.1092,-8.1092,-8.1092,-8.1092,-8.1092,-8.1092,-8.1092,-8.1092,-8.1092,-8.1092,-8.1092,-8.1092,-8.1092,-8.1092,-8.1092,-8.1092,-8.1092,-8.1092,-8.1092,-8.1092,-8.1092,-8.1092,-8.1092,-8.1092,-8.1092,-8.1092,-8.1092,-8.1092,-8.1092,-8.1092,-8.1092,-8.0332,-8.1092,-8.1092,-8.1092,-8.1563,-8.2324,-8.2577,-8.3446,-8.4678,-8.4968,-8.5366,-8.5837,-8.5909,-8.5909,-8.5909,-8.5909,-8.5909,-8.5909,-8.5909,-8.5909,-8.5909,-8.5909,-8.5909,-8.5909,-8.5909,-8.5909,-8.5909,-8.5909,-8.5909,-8.5945,-8.6163,-8.667,-8.743,-8.8227,-8.8988,-8.9748,-9.0328,-9.0618,-9.0618,-9.0618,-9.0618,-9.0618,-9.0618,-9.0618,-9.0618,-9.0618,-9.0618,-9.0618,-9.0618,-9.0618,-9.0618,-9.0618,-9.0618,-9.0618,-9.0618,-9.0473,-9.0183,-8.9712,-8.8915,-8.7974,-8.7283,-8.6597,-8.5619,-8.5004,-8.4279,-8.3265,-8.2577,-8.1961,-8.1346,-8.1092,-8.1092,-8.1092,-8.1092,-8.1092,-8.1092,-8.1092,-8.1092,-8.1092,-8.1092,-8.1092,-8.1092,-8.1092,-8.1092,-8.1092,-8.1092,-8.1092,-8.1092,-8.1092,-8.1092,-8.1092,-8.1092,-8.1092,-8.1092,-8.1092,-8.1092,-8.1092,-8.1092,-8.1092,-8.1092,-8.1092,-8.1092,-8.1092,-8.1092,-8.1092,-8.1092,-8.1092,-8.1092,-8.1092,-8.1092,-8.1092,-8.1092,-8.1092,-8.1092,-8.1092,-8.1092,-8.0368,-8.1092,-8.1092,-8.1092,-8.1599,-8.2432,-8.3084,-8.3917,-8.4823,-8.5511,-8.5837,-8.5909,-8.5909,-8.5909,-8.5909,-8.5909,-8.5909,-8.5909,-8.5909,-8.5909,-8.5909,-8.5909,-8.5909,-8.5909,-8.5909,-8.5909,-8.5909,-8.5909,-8.5909,-8.5945,-8.6561,-8.7283,-8.8116,-8.8879,-8.964,-9.0545,-9.0581,-9.0618,-9.0618,-9.0618,-9.0618,-9.0618,-9.0618,-9.0618,-9.0618,-9.0618,-9.0618,-9.0618,-9.0618,-9.0618,-9.0618,-9.0618,-9.0618,-9.0618,-9.0618,-9.0255,-8.964,-8.9386,-8.8662,-8.7358,-8.6996,-8.6235,-8.5112,-8.4678,-8.3953,-8.2722,-8.2324,-8.1961,-8.1273,-8.1092,-8.1092,-8.1092,-8.1092,-8.1092,-8.1092,-8.1092,-8.1092,-8.1092,-8.1092,-8.1092,-8.1092,-8.1092,-8.1092,-8.1092,-8.1092,-8.1092,-8.1092,-8.1092,-8.1092,-8.1092,-8.1092,-8.1092,-8.1092,-8.1092,-8.1092,-8.1092,-8.1092,-8.1092,-8.1092,-8.1092,-8.1092,-8.1092,-8.1092,-8.1092,-8.1092,-8.1092,-8.1092,-8.1092,-8.1092,-8.1092,-8.1092,-8.1092,-8.1092,-8.1092,-8.102,-8.0658,-8.1092,-8.1092,-8.1092,-8.1889,-8.3048,-8.3374,-8.4243,-8.5475,-8.5837,-8.5909,-8.5909,-8.5909,-8.5909,-8.5909,-8.5909,-8.5909,-8.5909,-8.5909,-8.5909,-8.5909,-8.5909,-8.5909,-8.5909,-8.5909,-8.5909,-8.5909,-8.5909,-8.5909,-8.6054,-8.667,-8.743,-8.8188,-8.9024,-8.9785,-9.0545,-9.0618,-9.0618,-9.0618,-9.0618,-9.0618,-9.0618,-9.0618,-9.0618,-9.0618,-9.0618,-9.0618,-9.0618,-9.0618,-9.0618,-9.0618,-9.0618,-9.0618,-9.0618,-9.0618,-9.0219,-8.9531,-8.9386,-8.8698,-8.7249,-8.6489,-8.5801,-8.4823,-8.4207,-8.341,-8.2468,-8.2251,-8.1925,-8.1237,-8.1092,-8.1092,-8.1092,-8.1092,-8.1092,-8.1092,-8.1092,-8.1092,-8.1092,-8.1092,-8.1092,-8.1092,-8.1092,-8.1092,-8.1128,-8.1128,-8.1201,-8.1128,-8.1128,-8.1165,-8.1128,-8.1092,-8.1092,-8.1092,-8.1092,-8.1092,-8.1092,-8.1092,-8.1092,-8.1092,-8.1092,-8.1092,-8.1092,-8.1092,-8.1092,-8.1092,-8.1092,-8.1092,-8.1092,-8.1092,-8.1092,-8.1092,-8.1092,-8.1092,-8.1092,-8.0911,-8.0658,-8.1092,-8.1092,-8.1092,-8.2034,-8.341,-8.3483,-8.4424,-8.5764,-8.5909,-8.5909,-8.5909,-8.5909,-8.5909,-8.5909,-8.5909,-8.5909,-8.5909,-8.5909,-8.5909,-8.5909,-8.5909,-8.5909,-8.5909,-8.5909,-8.5909,-8.5909,-8.5909,-8.5909,-8.5945,-8.6923,-8.7681,-8.83,-8.9314,-9.0074,-9.0581,-9.0618,-9.0618,-9.0618,-9.0618,-9.0618,-9.0618,-9.0618,-9.0618,-9.0618,-9.0618,-9.0618,-9.0618,-9.0618,-9.0618,-9.0618,-9.0618,-9.0618,-9.0618,-9.0581,-9.0255,-8.9531,-8.9024,-8.8336,-8.7104,-8.6054,-8.5112,-8.4279,-8.3483,-8.2686,-8.2034,-8.1853,-8.1563,-8.1237,-8.1092,-8.1092,-8.1092,-8.1092,-8.1092,-8.1092,-8.1092,-8.1092,-8.1092,-8.1092,-8.1092,-8.1165,-8.1346,-8.1382,-8.1201,-8.178,-8.1599,-8.1346,-8.1382,-8.1346,-8.1237,-8.1092,-8.1092,-8.1092,-8.1092,-8.1092,-8.1092,-8.1092,-8.1092,-8.1092,-8.1092,-8.1092,-8.1092,-8.1092,-8.1092,-8.1092,-8.1092,-8.1092,-8.1092,-8.1092,-8.1092,-8.1092,-8.1092,-8.1092,-8.1092,-8.1092,-8.0911,-8.1092,-8.1092,-8.1092,-8.2034,-8.341,-8.3483,-8.4424,-8.5764,-8.5909,-8.5909,-8.5909,-8.5909,-8.5909,-8.5909,-8.5909,-8.5909,-8.5909,-8.5909,-8.5909,-8.5909,-8.5909,-8.5909,-8.5909,-8.5909,-8.5909,-8.5909,-8.5909,-8.5909,-8.5982,-8.7358,-8.8188,-8.8333,-8.9712,-9.0581,-9.0618,-9.0618,-9.0618,-9.0618,-9.0618,-9.0618,-9.0618,-9.0618,-9.0618,-9.0618,-9.0618,-9.0618,-9.0618,-9.0618,-9.0618,-9.0618,-9.0618,-9.0545,-9.0545,-9.0545,-9.0219,-8.9205,-8.8553,-8.7829,-8.6851,-8.5619,-8.4533,-8.3845,-8.3084,-8.207,-8.1708,-8.1708,-8.1672,-8.1527,-8.1346,-8.1273,-8.1346,-8.1309,-8.1309,-8.1273,-8.1273,-8.1128,-8.1092,-8.1092,-8.1165,-8.1309,-8.178,-8.1998,-8.1309,-8.236,-8.2179,-8.178,-8.1744,-8.1599,-8.1491,-8.1309,-8.1128,-8.1092,-8.1092,-8.1092,-8.1092,-8.1092,-8.1092,-8.1092,-8.1092,-8.1092,-8.1092,-8.1092,-8.1092,-8.1092,-8.1092,-8.1092,-8.1092,-8.1092,-8.1092,-8.1092,-8.1092,-8.1092,-8.1092,-8.1092,-8.1092,-8.1092,-8.1092,-8.1092,-8.2034,-8.3374,-8.3483,-8.4424,-8.5801,-8.5909,-8.5909,-8.5909,-8.5909,-8.5909,-8.5909,-8.5909,-8.5909,-8.5909,-8.5909,-8.5909,-8.5909,-8.5909,-8.5909,-8.5909,-8.5909,-8.5909,-8.5909,-8.5909,-8.5909,-8.6018,-8.743,-8.8116,-8.8261,-8.9712,-9.0581,-9.0618,-9.0581,-9.0618,-9.0618,-9.0618,-9.0618,-9.0618,-9.0618,-9.0618,-9.0618,-9.0618,-9.0618,-9.0618,-9.0618,-9.0618,-9.0618,-9.0618,-9.0292,-8.9893,-9.0255,-8.9748,-8.8191,-8.8046,-8.7611,-8.6344,-8.5293,-8.4605,-8.4352,-8.3555,-8.3084,-8.2903,-8.2831,-8.2867,-8.2758,-8.2396,-8.2215,-8.2577,-8.2287,-8.2287,-8.2613,-8.1817,-8.1201,-8.1201,-8.1128,-8.1309,-8.1853,-8.1744,-8.1708,-8.1889,-8.1925,-8.1961,-8.1853,-8.1708,-8.1599,-8.1563,-8.1346,-8.1092,-8.1092,-8.1092,-8.1092,-8.1092,-8.1092,-8.1092,-8.1092,-8.1092,-8.1092,-8.1092,-8.1092,-8.1092,-8.1092,-8.1092,-8.1092,-8.1092,-8.1092,-8.1092,-8.1092,-8.1092,-8.1092,-8.1092,-8.1092,-8.1092,-8.1092,-8.1092,-8.1092,-8.1853,-8.2976,-8.3338,-8.4207,-8.5293,-8.5764,-8.5909,-8.5909,-8.5909,-8.5909,-8.5909,-8.5909,-8.5909,-8.5909,-8.5909,-8.5909,-8.5909,-8.5909,-8.5909,-8.5909,-8.5909,-8.5909,-8.5909,-8.5909,-8.5909,-8.609,-8.7141,-8.7609,-8.7974,-8.9314,-9.0038,-9.0074,-9.0473,-9.0581,-9.0618,-9.0618,-9.0618,-9.0618,-9.0618,-9.0618,-9.0618,-9.0618,-9.0618,-9.0581,-9.0292,-9.0219,-9.0509,-9.0581,-9.0219,-8.9531,-8.9821,-8.9277,-8.7648,-8.7645,-8.7285,-8.6416,-8.5366,-8.4714,-8.4533,-8.3953,-8.3555,-8.3446,-8.3483,-8.3483,-8.3374,-8.3012,-8.3084,-8.3265,-8.3048,-8.2867,-8.2758,-8.2143,-8.1744,-8.2034,-8.1817,-8.1998,-8.2396,-8.2432,-8.207,-8.236,-8.2106,-8.1961,-8.1853,-8.1744,-8.1672,-8.1635,-8.1309,-8.1092,-8.1092,-8.1092,-8.1092,-8.1092,-8.1092,-8.1092,-8.1092,-8.1092,-8.1092,-8.1092,-8.1092,-8.1092,-8.1092,-8.1092,-8.1092,-8.1092,-8.1092,-8.1092,-8.1092,-8.1092,-8.1092,-8.1092,-8.1092,-8.1092,-8.1092,-8.1092,-8.1092,-8.1563,-8.236,-8.3048,-8.3845,-8.475,-8.5402,-8.5801,-8.5873,-8.5909,-8.5909,-8.5909,-8.5909,-8.5909,-8.5909,-8.5909,-8.5909,-8.5909,-8.5909,-8.5909,-8.5909,-8.5909,-8.5909,-8.5909,-8.5909,-8.5909,-8.6126,-8.6706,-8.7032,-8.7467,-8.8626,-8.9205,-8.935,-8.9893,-9.0292,-9.0219,-9.0255,-9.0328,-9.04,-9.0473,-9.0618,-9.0618,-9.0618,-9.0618,-9.04,-8.9966,-8.9748,-9.0436,-9.04,-8.9857,-8.9277,-8.9241,-8.8734,-8.7974,-8.7247,-8.6994,-8.6706,-8.5547,-8.4859,-8.4786,-8.4243,-8.3736,-8.3917,-8.4026,-8.4026,-8.4026,-8.37,-8.3664,-8.3664,-8.3627,-8.341,-8.3048,-8.2577,-8.265,-8.3193,-8.2867,-8.2577,-8.3229,-8.3301,-8.2976,-8.2722,-8.2686,-8.2722,-8.1925,-8.178,-8.1672,-8.1599,-8.1382,-8.1201,-8.1092,-8.1092,-8.1092,-8.1092,-8.1092,-8.1092,-8.1092,-8.1092,-8.1092,-8.1092,-8.1092,-8.1092,-8.1092,-8.1092,-8.1092,-8.1092,-8.1092,-8.1092,-8.1092,-8.1092,-8.1092,-8.1092,-8.1092,-8.1092,-8.1092,-8.1092,-8.1092,-8.1563,-8.2251,-8.2505,-8.3374,-8.4642,-8.4859,-8.5257,-8.5764,-8.5873,-8.5873,-8.5909,-8.5909,-8.5909,-8.5909,-8.5909,-8.5909,-8.5909,-8.5909,-8.5909,-8.5909,-8.5909,-8.5909,-8.5909,-8.5909,-8.5909,-8.609,-8.6561,-8.7032,-8.7177,-8.7865,-8.8442,-8.8553,-8.8734,-8.8734,-8.8843,-8.9314,-8.9676,-8.9857,-9.0255,-9.0545,-9.0581,-9.0545,-9.0581,-9.0436,-8.9821,-8.9495,-8.9459,-8.906,-8.8626,-8.8517,-8.8481,-8.7865,-8.6959,-8.6887,-8.6742,-8.6199,-8.5837,-8.5619,-8.5511,-8.533,-8.5402,-8.5402,-8.5293,-8.533,-8.5257,-8.4823,-8.446,-8.4461,-8.4424,-8.4208,-8.3773,-8.3012,-8.2795,-8.3809,-8.312,-8.2541,-8.265,-8.2686,-8.2505,-8.2324,-8.1853,-8.1853,-8.1817,-8.1816,-8.1635,-8.1526,-8.1382,-8.1308,-8.1199,-8.1163,-8.1163,-8.1128,-8.1128,-8.1092,-8.1092,-8.1092,-8.1092,-8.1092,-8.1092,-8.1092,-8.1092,-8.1092,-8.1092,-8.1092,-8.1128,-8.1128,-8.1092,-8.1092,-8.1092,-8.1092,-8.1092,-8.1092,-8.1092,-8.1092,-8.1092,-8.1346,-8.178,-8.2143,-8.2758,-8.3519,-8.399,-8.4569,-8.5221,-8.533,-8.5511,-8.5873,-8.5909,-8.5909,-8.5909,-8.5909,-8.5909,-8.5909,-8.5909,-8.5909,-8.5909,-8.5909,-8.5909,-8.5909,-8.5909,-8.5909,-8.6018,-8.6271,-8.6452,-8.6597,-8.7285,-8.7573,-8.7718,-8.7971,-8.8224,-8.8297,-8.8589,-8.8988,-8.9422,-8.9785,-9.0292,-9.04,-9.0255,-9.0038,-8.9966,-8.8879,-8.8589,-8.8481,-8.7793,-8.7322,-8.7611,-8.7609,-8.7032,-8.6271,-8.6199,-8.6344,-8.5982,-8.5909,-8.5873,-8.5909,-8.5909,-8.5909,-8.5909,-8.5909,-8.5909,-8.5837,-8.5511,-8.5295,-8.5297,-8.4935,-8.4754,-8.421,-8.3265,-8.2829,-8.294,-8.2613,-8.2722,-8.3049,-8.2976,-8.2649,-8.2214,-8.1633,-8.1415,-8.1668,-8.1737,-8.1628,-8.1628,-8.1517,-8.1446,-8.1374,-8.1305,-8.1234,-8.1234,-8.1163,-8.1092,-8.1092,-8.1092,-8.1092,-8.1092,-8.1092,-8.1092,-8.1092,-8.1128,-8.1128,-8.1128,-8.1163,-8.12,-8.1164,-8.1128,-8.1092,-8.1092,-8.1092,-8.1092,-8.1092,-8.1092,-8.1092,-8.1092,-8.1201,-8.178,-8.2179,-8.2469,-8.3048,-8.3772,-8.4388,-8.4533,-8.4895,-8.5547,-8.5656,-8.5728,-8.5909,-8.5909,-8.5909,-8.5909,-8.5909,-8.5909,-8.5909,-8.5909,-8.5909,-8.5909,-8.5909,-8.5909,-8.5909,-8.5909,-8.6054,-8.6054,-8.6489,-8.6851,-8.7032,-8.743,-8.7648,-8.7648,-8.7865,-8.8263,-8.8807,-8.906,-8.9531,-8.9785,-8.9785,-8.9386,-8.9024,-8.8082,-8.743,-8.7862,-8.667,-8.638,-8.6634,-8.6815,-8.6634,-8.5909,-8.5982,-8.5982,-8.5945,-8.5909,-8.5909,-8.5909,-8.5909,-8.5909,-8.5909,-8.5909,-8.5909,-8.5911,-8.5802,-8.5878,-8.6027,-8.541,-8.4682,-8.4061,-8.3294,-8.2494,-8.1918,-8.2031,-8.2757,-8.3447,-8.3047,-8.261,-8.2245,-8.1771,-8.1589,-8.1478,-8.1581,-8.1615,-8.1649,-8.1615,-8.1581,-8.1547,-8.1443,-8.134,-8.1305,-8.1305,-8.1199,-8.1128,-8.1092,-8.1092,-8.1092,-8.1092,-8.1092,-8.1128,-8.1163,-8.1163,-8.1199,-8.1271,-8.1235,-8.1164,-8.1163,-8.1234,-8.1199,-8.1163,-8.1019,-8.1092,-8.1092,-8.1092,-8.1092,-8.1128,-8.1273,-8.1708,-8.2251,-8.2396,-8.2939,-8.3627,-8.37,-8.4135,-8.4714,-8.4895,-8.5221,-8.5656,-8.5837,-8.5909,-8.5909,-8.5909,-8.5909,-8.5909,-8.5909,-8.5909,-8.5909,-8.5909,-8.5909,-8.5909,-8.5909,-8.5909,-8.5945,-8.6054,-8.6163,-8.6199,-8.6271,-8.6525,-8.667,-8.6996,-8.7394,-8.7684,-8.8227,-8.8589,-8.8879,-8.9024,-8.8879,-8.8336,-8.7575,-8.7104,-8.7104,-8.6344,-8.6054,-8.6126,-8.6163,-8.6054,-8.5945,-8.5909,-8.5909,-8.5909,-8.5909,-8.5909,-8.5909,-8.5909,-8.5909,-8.5909,-8.5947,-8.5947,-8.5948,-8.6025,-8.6137,-8.632,-8.5628,-8.4862,-8.4095,-8.34,-8.2746,-8.2492,-8.2166,-8.1951,-8.2462,-8.2496,-8.2565,-8.2162,-8.1905,-8.1759,-8.1649,-8.1683,-8.1751,-8.1751,-8.1717,-8.1683,-8.1649,-8.1581,-8.1478,-8.141,-8.1375,-8.134,-8.1199,-8.1163,-8.1128,-8.1128,-8.1092,-8.1092,-8.1128,-8.1199,-8.1234,-8.127,-8.1341,-8.1305,-8.127,-8.1305,-8.1375,-8.1158,-8.0907,-8.0618,-8.1092,-8.1092,-8.1092,-8.1092,-8.1092,-8.1092,-8.1309,-8.1635,-8.1708,-8.2143,-8.2686,-8.2903,-8.3338,-8.3917,-8.4062,-8.4533,-8.5185,-8.5764,-8.5873,-8.5909,-8.5909,-8.5909,-8.5909,-8.5909,-8.5909,-8.5909,-8.5909,-8.5909,-8.5909,-8.5909,-8.5909,-8.5909,-8.5909,-8.5909,-8.5909,-8.5945,-8.5909,-8.6018,-8.6271,-8.667,-8.7032,-8.7754,-8.8116,-8.8263,-8.8118,-8.7937,-8.7575,-8.6851,-8.6452,-8.638,-8.609,-8.5945,-8.5909,-8.5909,-8.5909,-8.5909,-8.5909,-8.5909,-8.5909,-8.5909,-8.5909,-8.5909,-8.5909,-8.5909,-8.5947,-8.5986,-8.6025,-8.6136,-8.621,-8.632,-8.6501,-8.5842,-8.5256,-8.4813,-8.3898,-8.3171,-8.2808,-8.2291,-8.1897,-8.1686,-8.2009,-8.2153,-8.2041,-8.1855,-8.1855,-8.1852,-8.1852,-8.1852,-8.1852,-8.1852,-8.1818,-8.1818,-8.1785,-8.1649,-8.1583,-8.1549,-8.1443,-8.1375,-8.127,-8.1234,-8.1199,-8.1163,-8.1128,-8.1092,-8.1163,-8.127,-8.127,-8.1234,-8.1305,-8.1375,-8.1305,-8.1196,-8.0903,-8.0612,-8.0323,-8.1092,-8.1092,-8.1092,-8.1092,-8.1092,-8.1092,-8.1128,-8.1092,-8.1128,-8.1454,-8.1998,-8.2106,-8.2505,-8.312,-8.3483,-8.3881,-8.4497,-8.5112,-8.5366,-8.5583,-8.5583,-8.5656,-8.5948,-8.5911,-8.5911,-8.5986,-8.5948,-8.5911,-8.5909,-8.5909,-8.5909,-8.5909,-8.5909,-8.5909,-8.5909,-8.5909,-8.5909,-8.5909,-8.5909,-8.6271,-8.6851,-8.7539,-8.7826,-8.7754,-8.7211,-8.7032,-8.6742,-8.6308,-8.6018,-8.5982,-8.5945,-8.5909,-8.5909,-8.5909,-8.5909,-8.5909,-8.5909,-8.5909,-8.5909,-8.5909,-8.5909,-8.5909,-8.5909,-8.5947,-8.5877,-8.5917,-8.6028,-8.632,-8.621,-8.639,-8.6569,-8.6201,-8.5722,-8.5202,-8.4355,-8.3441,-8.2898,-8.2458,-8.2128,-8.1989,-8.1989,-8.1952,-8.1952,-8.1985,-8.2022,-8.2022,-8.2022,-8.2055,-8.2018,-8.2088,-8.2088,-8.2088,-8.2022,-8.1852,-8.1751,-8.1683,-8.1615,-8.1512,-8.1443,-8.141,-8.134,-8.127,-8.1199,-8.1128,-8.1163,-8.1234,-8.1199,-8.1234,-8.134,-8.134,-8.1234,-8.1016,-8.0717,-8.0283,-7.9889,-8.1092,-8.1092,-8.1092,-8.1092,-8.1092,-8.1092,-8.1092,-8.1092,-8.1092,-8.1128,-8.1346,-8.1309,-8.1744,-8.2396,-8.3157,-8.3483,-8.3664,-8.3917,-8.4352,-8.4786,-8.4859,-8.5224,-8.5843,-8.5948,-8.5733,-8.5771,-8.5917,-8.5987,-8.5876,-8.5838,-8.5909,-8.5909,-8.5909,-8.5909,-8.5909,-8.5909,-8.5909,-8.5909,-8.5909,-8.5945,-8.6163,-8.6815,-8.6778,-8.6597,-8.6634,-8.6706,-8.6235,-8.5982,-8.5909,-8.5909,-8.5909,-8.5909,-8.5909,-8.5909,-8.5909,-8.5909,-8.5909,-8.5909,-8.5911,-8.5909,-8.5947,-8.5948,-8.5875,-8.595,-8.5773,-8.5519,-8.5626,-8.6535,-8.6058,-8.5945,-8.6487,-8.6669,-8.6043,-8.5236,-8.4462,-8.3508,-8.2814,-8.2451,-8.219,-8.2154,-8.2088,-8.2121,-8.2121,-8.2154,-8.2186,-8.2186,-8.2186,-8.2186,-8.2186,-8.2186,-8.2186,-8.2154,-8.2154,-8.2022,-8.1952,-8.1885,-8.1818,-8.1717,-8.1615,-8.1547,-8.1514,-8.141,-8.127,-8.1199,-8.1199,-8.1163,-8.12,-8.1199,-8.134,-8.1195,-8.0979,-8.0721,-8.0526,-8.0024,-7.9273,-8.1092,-8.1092,-8.1092,-8.1092,-8.1092,-8.1092,-8.1092,-8.1092,-8.1092,-8.1092,-8.1092,-8.1092,-8.1309,-8.178,-8.2432,-8.2794,-8.2903,-8.3229,-8.3627,-8.3917,-8.4099,-8.4318,-8.4573,-8.4682,-8.4719,-8.5082,-8.5337,-8.5519,-8.5591,-8.5808,-8.5987,-8.5947,-8.5909,-8.5909,-8.5909,-8.5909,-8.5909,-8.5909,-8.5909,-8.5909,-8.5982,-8.6163,-8.6235,-8.5909,-8.6235,-8.6163,-8.6018,-8.5909,-8.5909,-8.5909,-8.5909,-8.5909,-8.5909,-8.5909,-8.5911,-8.5988,-8.5552,-8.5552,-8.5878,-8.5876,-8.5915,-8.588,-8.5663,-8.5228,-8.508,-8.4894,-8.4851,-8.539,-8.5207,-8.5312,-8.5566,-8.5637,-8.5306,-8.4756,-8.4242,-8.3691,-8.292,-8.2443,-8.2186,-8.2186,-8.2186,-8.2186,-8.2186,-8.2186,-8.2186,-8.2186,-8.2186,-8.2186,-8.2186,-8.2186,-8.2186,-8.2186,-8.2186,-8.2154,-8.2121,-8.2088,-8.2055,-8.1952,-8.1818,-8.1751,-8.1683,-8.1583,-8.1445,-8.127,-8.1199,-8.1163,-8.1092,-8.1055,-8.1053,-8.0834,-8.0615,-8.0103,-7.9553,-7.8797,-7.8046,-8.1092,-8.1092,-8.1092,-8.1092,-8.1092,-8.1092,-8.1092,-8.1092,-8.1092,-8.1092,-8.1092,-8.1092,-8.1092,-8.1201,-8.1708,-8.1998,-8.2034,-8.265,-8.2976,-8.312,-8.3266,-8.3484,-8.3846,-8.3882,-8.3954,-8.4056,-8.4713,-8.4933,-8.5044,-8.53,-8.5628,-8.5987,-8.5986,-8.5986,-8.5948,-8.5947,-8.5909,-8.5909,-8.5909,-8.5909,-8.5909,-8.5909,-8.5945,-8.5909,-8.5909,-8.5909,-8.5909,-8.5909,-8.5909,-8.5909,-8.5948,-8.5876,-8.5621,-8.5588,-8.5444,-8.5337,-8.4828,-8.4937,-8.5228,-8.5373,-8.5555,-8.5482,-8.5336,-8.4679,-8.4416,-8.4225,-8.4293,-8.4722,-8.4392,-8.4392,-8.4572,-8.4719,-8.4535,-8.4242,-8.3801,-8.3471,-8.3067,-8.2517,-8.2186,-8.2186,-8.2186,-8.2186,-8.2186,-8.2186,-8.2186,-8.2186,-8.2186,-8.2186,-8.2186,-8.2186,-8.2186,-8.2186,-8.2186,-8.2186,-8.2186,-8.2186,-8.2186,-8.2154,-8.2018,-8.1919,-8.1818,-8.1717,-8.1581,-8.1408,-8.1124,-8.0908,-8.069,-8.0692,-8.0693,-8.0366,-7.993,-7.9057,-7.8368,-7.7649,-7.7178,-8.1092,-8.1092,-8.1128,-8.1092,-8.1092,-8.1092,-8.1092,-8.1092,-8.1092,-8.1092,-8.1092,-8.1092,-8.1092,-8.1165,-8.1201,-8.1309,-8.1237,-8.1273,-8.1817,-8.2215,-8.2469,-8.2903,-8.3264,-8.3516,-8.3733,-8.4049,-8.4266,-8.427,-8.4238,-8.4562,-8.5297,-8.6138,-8.5773,-8.5954,-8.588,-8.5588,-8.5623,-8.5586,-8.5586,-8.5621,-8.5693,-8.5728,-8.5801,-8.5801,-8.5837,-8.5873,-8.5873,-8.5692,-8.5621,-8.5621,-8.5624,-8.5481,-8.5008,-8.5082,-8.4864,-8.4499,-8.4171,-8.4276,-8.4456,-8.4496,-8.4278,-8.424,-8.4237,-8.4195,-8.3895,-8.3664,-8.3841,-8.4168,-8.3728,-8.3801,-8.4168,-8.4499,-8.3948,-8.3618,-8.3214,-8.2994,-8.27,-8.248,-8.2186,-8.2186,-8.2186,-8.2186,-8.2186,-8.2186,-8.2186,-8.2186,-8.2186,-8.2186,-8.2186,-8.2186,-8.2186,-8.2186,-8.2186,-8.2186,-8.2186,-8.2186,-8.2186,-8.2186,-8.2121,-8.2018,-8.1919,-8.1818,-8.1428,-8.1144,-8.0824,-8.0537,-8.0177,-7.9961,-7.9747,-7.9715,-7.928,-7.8372,-7.7683,-7.7106,-7.671,-8.134,-8.1408,-8.1408,-8.1305,-8.1092,-8.1092,-8.1092,-8.1092,-8.1092,-8.1092,-8.1092,-8.1092,-8.1092,-8.1092,-8.1092,-8.1092,-8.1092,-8.1092,-8.1346,-8.149,-8.1779,-8.2064,-8.2458,-8.2705,-8.2732,-8.3121,-8.3481,-8.3704,-8.3707,-8.4,-8.4584,-8.5105,-8.4969,-8.4862,-8.4755,-8.49,-8.4828,-8.4755,-8.4646,-8.4573,-8.4645,-8.4969,-8.5149,-8.5149,-8.5149,-8.5149,-8.504,-8.4605,-8.4535,-8.4572,-8.4682,-8.4537,-8.4355,-8.4425,-8.4241,-8.3875,-8.3616,-8.3571,-8.3712,-8.3831,-8.3838,-8.3502,-8.3603,-8.3591,-8.3228,-8.2814,-8.281,-8.292,-8.2957,-8.303,-8.2994,-8.3104,-8.2884,-8.2737,-8.259,-8.2517,-8.2406,-8.2223,-8.2186,-8.2186,-8.2186,-8.2186,-8.2186,-8.2186,-8.2186,-8.2186,-8.2186,-8.2186,-8.2186,-8.2186,-8.2186,-8.2186,-8.2186,-8.2186,-8.2186,-8.2186,-8.2186,-8.2186,-8.2186,-8.2011,-8.1872,-8.1297,-8.0908,-8.0695,-8.0372,-7.9871,-7.9439,-7.9041,-7.8831,-7.8767,-7.8372,-7.7688,-7.7072,-7.6599,-7.6454,-8.1478,-8.1615,-8.1615,-8.1478,-8.127,-8.1199,-8.1199,-8.1234,-8.1199,-8.1199,-8.127,-8.127,-8.127,-8.127,-8.127,-8.127,-8.1305,-8.1305,-8.127,-8.1376,-8.1517,-8.1547,-8.1683,-8.1892,-8.2208,-8.23,-8.2663,-8.3034,-8.3034,-8.3618,-8.3731,-8.3738,-8.3676,-8.3685,-8.4165,-8.3986,-8.3986,-8.3951,-8.3916,-8.3809,-8.3919,-8.4246,-8.45,-8.4537,-8.4537,-8.4537,-8.4428,-8.4137,-8.3956,-8.3991,-8.399,-8.3842,-8.3767,-8.3725,-8.3722,-8.3495,-8.3197,-8.2934,-8.3081,-8.3197,-8.3244,-8.2904,-8.2931,-8.2704,-8.237,-8.2186,-8.237,-8.2333,-8.226,-8.2186,-8.2186,-8.237,-8.2443,-8.2406,-8.237,-8.2296,-8.2296,-8.2186,-8.2186,-8.2186,-8.2186,-8.2186,-8.2186,-8.2186,-8.2186,-8.2186,-8.2186,-8.2186,-8.2186,-8.2186,-8.2186,-8.2186,-8.2186,-8.2186,-8.2186,-8.2186,-8.2186,-8.2186,-8.2113,-8.1893,-8.1607,-8.0996,-8.0487,-8.0235,-7.9804,-7.9161,-7.8694,-7.83,-7.8022,-7.7816,-7.7422,-7.7101,-7.6886,-7.6484,-7.6481,-8.1478,-8.1615,-8.1613,-8.1613,-8.1613,-8.1445,-8.1443,-8.1512,-8.1445,-8.1445,-8.151,-8.1547,-8.1547,-8.1547,-8.1512,-8.1512,-8.1512,-8.1547,-8.1547,-8.1547,-8.1581,-8.1717,-8.1818,-8.1919,-8.2055,-8.2154,-8.237,-8.2443,-8.2333,-8.259,-8.2553,-8.2517,-8.2671,-8.2971,-8.4117,-8.4091,-8.3986,-8.3949,-8.384,-8.3767,-8.3732,-8.3806,-8.3916,-8.3952,-8.3952,-8.3917,-8.3808,-8.3553,-8.3406,-8.3476,-8.3689,-8.3468,-8.2995,-8.3197,-8.3008,-8.2321,-8.2308,-8.2264,-8.2296,-8.2264,-8.2337,-8.2378,-8.248,-8.2333,-8.2223,-8.2186,-8.2186,-8.2186,-8.2186,-8.2186,-8.2186,-8.2186,-8.2186,-8.2186,-8.2186,-8.2186,-8.2186,-8.2186,-8.2186,-8.2186,-8.2186,-8.2186,-8.2186,-8.2186,-8.2186,-8.2186,-8.2186,-8.2186,-8.2186,-8.2186,-8.2186,-8.2186,-8.2186,-8.2186,-8.2186,-8.2186,-8.2186,-8.2186,-8.2003,-8.1709,-8.1269,-8.0654,-8.0214,-7.9842,-7.9123,-7.8373,-7.7943,-7.755,-7.7527,-7.7466,-7.701,-7.6693,-7.6548,-7.6512,-7.6545,-8.1855,-8.1985,-8.1985,-8.221,-8.2392,-8.1815,-8.1581,-8.1615,-8.1581,-8.1581,-8.1579,-8.1615,-8.1615,-8.1615,-8.1647,-8.1647,-8.1647,-8.1615,-8.1615,-8.1649,-8.1751,-8.1818,-8.1919,-8.2018,-8.2121,-8.2186,-8.2186,-8.2186,-8.2223,-8.2186,-8.2186,-8.2186,-8.2223,-8.241,-8.2781,-8.2828,-8.2791,-8.2758,-8.269,-8.2589,-8.2698,-8.2997,-8.322,-8.322,-8.3255,-8.3255,-8.3218,-8.289,-8.2705,-8.2808,-8.2944,-8.2761,-8.2468,-8.2631,-8.2484,-8.2125,-8.2186,-8.2186,-8.2186,-8.2223,-8.2186,-8.2186,-8.2186,-8.2186,-8.2186,-8.2186,-8.2186,-8.2186,-8.2186,-8.2186,-8.2186,-8.2186,-8.2186,-8.2186,-8.2186,-8.2186,-8.2186,-8.2186,-8.2186,-8.2186,-8.2186,-8.2186,-8.2186,-8.2186,-8.2186,-8.2186,-8.2186,-8.2186,-8.2186,-8.2186,-8.2186,-8.2186,-8.2186,-8.2186,-8.2186,-8.2186,-8.2076,-8.2003,-8.1672,-8.1269,-8.0791,-8.0167,-7.958,-7.8961,-7.827,-7.7615,-7.7516,-7.738,-7.7312,-7.7144,-7.6842,-7.6708,-7.6708,-7.6676,-7.661,-8.227,-8.2497,-8.2678,-8.2972,-8.314,-8.2355,-8.2072,-8.226,-8.2355,-8.2386,-8.2418,-8.2418,-8.2449,-8.2386,-8.2169,-8.2109,-8.2076,-8.1885,-8.1818,-8.1818,-8.1919,-8.1985,-8.2088,-8.2121,-8.2154,-8.2186,-8.2186,-8.2186,-8.2186,-8.2186,-8.2186,-8.2186,-8.2186,-8.226,-8.2264,-8.23,-8.23,-8.2304,-8.2275,-8.2168,-8.2245,-8.2398,-8.2623,-8.2623,-8.2623,-8.2623,-8.2477,-8.2184,-8.1852,-8.1952,-8.2022,-8.2055,-8.2154,-8.2186,-8.2186,-8.2186,-8.2186,-8.2186,-8.2186,-8.2186,-8.2186,-8.2186,-8.2186,-8.2186,-8.2186,-8.2186,-8.2186,-8.2186,-8.2186,-8.2186,-8.2186,-8.2186,-8.2186,-8.2186,-8.2186,-8.2186,-8.2186,-8.2186,-8.2186,-8.2186,-8.2186,-8.2186,-8.2186,-8.2186,-8.2186,-8.2186,-8.2186,-8.2186,-8.2186,-8.2186,-8.2186,-8.2186,-8.2186,-8.2186,-8.2186,-8.2186,-8.2039,-8.1819,-8.1379,-8.0865,-7.9984,-7.9323,-7.8736,-7.8222,-7.7787,-7.7426,-7.7384,-7.7279,-7.7254,-7.716,-7.6998,-7.6934,-7.6934,-7.6838,-7.6741,-8.2809,-8.3082,-8.3645,-8.3885,-8.3768,-8.3181,-8.3152,-8.3607,-8.3742,-8.3806,-8.3832,-8.3726,-8.358,-8.3607,-8.3227,-8.2994,-8.2846,-8.2465,-8.237,-8.2215,-8.2247,-8.2215,-8.2215,-8.2251,-8.2186,-8.2186,-8.2186,-8.2186,-8.2186,-8.2186,-8.2186,-8.2186,-8.2186,-8.2186,-8.2186,-8.2186,-8.2186,-8.2186,-8.2154,-8.2121,-8.2194,-8.2194,-8.2308,-8.2308,-8.2308,-8.2308,-8.2235,-8.2157,-8.2121,-8.2154,-8.2186,-8.2186,-8.2186,-8.2186,-8.2186,-8.2186,-8.2186,-8.2186,-8.2186,-8.2186,-8.2186,-8.2186,-8.2186,-8.2186,-8.2186,-8.2186,-8.2186,-8.2186,-8.2186,-8.2186,-8.2186,-8.2186,-8.2186,-8.2186,-8.2186,-8.2186,-8.2186,-8.2186,-8.2186,-8.2186,-8.2186,-8.2186,-8.2186,-8.2186,-8.2186,-8.2186,-8.2186,-8.2186,-8.2186,-8.2186,-8.2186,-8.2186,-8.2186,-8.2186,-8.2186,-8.215,-8.1819,-8.1562,-8.0975,-8.0424,-7.947,-7.8626,-7.8148,-7.7781,-7.7457,-7.731,-7.731,-7.731,-7.731,-7.7217,-7.7087,-7.7056,-7.7092,-7.6966,-7.6902,-8.2935,-8.3053,-8.3645,-8.4117,-8.4462,-8.4612,-8.4376,-8.3847,-8.3885,-8.3911,-8.3911,-8.3911,-8.4015,-8.3885,-8.3726,-8.3672,-8.3424,-8.3169,-8.3206,-8.3002,-8.2684,-8.2622,-8.2528,-8.2402,-8.2247,-8.2186,-8.2186,-8.2186,-8.2186,-8.2186,-8.2186,-8.2186,-8.2186,-8.2186,-8.2186,-8.2186,-8.2186,-8.2186,-8.2186,-8.2186,-8.2186,-8.2186,-8.2186,-8.2186,-8.2186,-8.2186,-8.2186,-8.2186,-8.2186,-8.2186,-8.2186,-8.2186,-8.2186,-8.2186,-8.2186,-8.2186,-8.2186,-8.2186,-8.2186,-8.2186,-8.2186,-8.2186,-8.2186,-8.2186,-8.2186,-8.2186,-8.2186,-8.2186,-8.2186,-8.2186,-8.2186,-8.2186,-8.2186,-8.2186,-8.2186,-8.2186,-8.2186,-8.2186,-8.2186,-8.2186,-8.2186,-8.2186,-8.2186,-8.2186,-8.2186,-8.2186,-8.2186,-8.2186,-8.2186,-8.2186,-8.2003,-8.2003,-8.215,-8.215,-8.2113,-8.2076,-8.1672,-8.1232,-8.0571,-7.9837,-7.8919,-7.8185,-7.7708,-7.742,-7.731,-7.731,-7.731,-7.731,-7.731,-7.731,-7.7248,-7.7212,-7.7212,-7.7087,-7.7024,-8.347,-8.3742,-8.4317,-8.4734,-8.5062,-8.5352,-8.5105,-8.458,-8.4533,-8.451,-8.4533,-8.4557,-8.451,-8.451,-8.4341,-8.4218,-8.4167,-8.3672,-8.3535,-8.348,-8.3177,-8.3002,-8.2853,-8.2708,-8.2402,-8.2279,-8.2186,-8.2186,-8.2186,-8.2186,-8.2186,-8.2186,-8.2186,-8.2186,-8.2186,-8.2186,-8.2186,-8.2186,-8.2186,-8.2186,-8.2186,-8.2186,-8.2186,-8.2186,-8.2186,-8.2186,-8.2186,-8.2186,-8.2186,-8.2186,-8.2186,-8.2186,-8.2186,-8.2186,-8.2186,-8.2186,-8.2186,-8.2186,-8.2186,-8.2186,-8.2186,-8.2186,-8.2186,-8.2186,-8.2186,-8.2186,-8.2186,-8.2186,-8.2186,-8.2186,-8.2186,-8.2186,-8.2186,-8.2186,-8.2186,-8.2186,-8.2186,-8.2186,-8.2186,-8.2186,-8.2186,-8.2186,-8.2186,-8.2186,-8.2186,-8.2186,-8.2186,-8.2186,-8.2186,-8.2186,-8.1856,-8.1562,-8.1856,-8.2076,-8.1966,-8.1709,-8.1195,-8.0571,-7.98,-7.9029,-7.8295,-7.7855,-7.7494,-7.7347,-7.731,-7.731,-7.731,-7.731,-7.731,-7.731,-7.731,-7.7273,-7.7243,-7.7248,-7.7217,-8.4242,-8.4711,-8.5291,-8.5451,-8.5511,-8.5511,-8.5491,-8.5511,-8.5431,-8.5491,-8.5413,-8.5471,-8.5373,-8.5169,-8.4914,-8.478,-8.4618,-8.4218,-8.4066,-8.3989,-8.3752,-8.3563,-8.3396,-8.3053,-8.2823,-8.2502,-8.2316,-8.2343,-8.2219,-8.2186,-8.2186,-8.2186,-8.2186,-8.2186,-8.2186,-8.2186,-8.2186,-8.2186,-8.2186,-8.2186,-8.2186,-8.2186,-8.2186,-8.2186,-8.2186,-8.2186,-8.2186,-8.2186,-8.2186,-8.2186,-8.2186,-8.2186,-8.2186,-8.2186,-8.2186,-8.2186,-8.2186,-8.2186,-8.2186,-8.2186,-8.2186,-8.2186,-8.2186,-8.2186,-8.2186,-8.2186,-8.2186,-8.2186,-8.2186,-8.2186,-8.2186,-8.2186,-8.2186,-8.2186,-8.2186,-8.2186,-8.2186,-8.2186,-8.2186,-8.2186,-8.2186,-8.2186,-8.2186,-8.2186,-8.2186,-8.2186,-8.2186,-8.2186,-8.2076,-8.2076,-8.1599,-8.1158,-8.1452,-8.1599,-8.1195,-8.0901,-8.0571,-7.991,-7.914,-7.8479,-7.7855,-7.753,-7.731,-7.731,-7.731,-7.731,-7.731,-7.731,-7.731,-7.731,-7.731,-7.731,-7.731,-7.731,-7.731,-8.4618,-8.4757,-8.5291,-8.5511,-8.5511,-8.5511,-8.5511,-8.5511,-8.5511,-8.5511,-8.5511,-8.5511,-8.5511,-8.5471,-8.5352,-8.5249,-8.5126,-8.478,-8.4825,-8.4627,-8.439,-8.4167,-8.4079,-8.3806,-8.334,-8.3002,-8.2769,-8.2497,-8.2284,-8.2186,-8.2186,-8.2186,-8.2186,-8.2186,-8.2186,-8.2186,-8.2186,-8.2186,-8.2186,-8.2186,-8.2186,-8.2186,-8.2186,-8.2186,-8.2186,-8.2186,-8.2186,-8.2186,-8.2186,-8.2186,-8.2186,-8.2186,-8.2186,-8.2186,-8.2186,-8.2186,-8.2186,-8.2186,-8.2186,-8.2186,-8.2186,-8.2186,-8.2186,-8.2186,-8.2186,-8.2186,-8.2186,-8.2186,-8.2186,-8.2186,-8.2186,-8.2186,-8.2186,-8.2186,-8.2186,-8.2186,-8.2186,-8.2186,-8.2186,-8.2186,-8.2186,-8.2186,-8.2186,-8.2186,-8.2186,-8.2186,-8.2186,-8.2113,-8.1819,-8.1672,-8.1122,-8.0791,-8.1048,-8.1048,-8.0534,-8.0314,-8.0094,-7.9507,-7.8736,-7.8075,-7.742,-7.7347,-7.731,-7.731,-7.731,-7.731,-7.731,-7.731,-7.731,-7.731,-7.731,-7.731,-7.731,-7.731,-7.731,-8.4848,-8.5083,-8.5373,-8.5511,-8.5511,-8.5511,-8.5511,-8.5511,-8.5511,-8.5511,-8.5511,-8.5511,-8.5511,-8.5511,-8.5511,-8.5511,-8.5471,-8.519,-8.519,-8.5148,-8.4958,-8.4734,-8.4557,-8.4341,-8.3661,-8.3227,-8.2769,-8.2439,-8.2219,-8.2186,-8.2186,-8.2186,-8.2186,-8.2186,-8.2186,-8.2186,-8.2186,-8.2186,-8.2186,-8.2186,-8.2186,-8.2186,-8.2186,-8.2186,-8.2186,-8.2186,-8.2186,-8.2186,-8.2186,-8.2186,-8.2186,-8.2186,-8.2186,-8.2186,-8.2186,-8.2186,-8.2186,-8.2186,-8.2186,-8.2186,-8.2186,-8.2186,-8.2186,-8.2186,-8.2186,-8.2186,-8.2186,-8.2186,-8.2186,-8.2186,-8.2186,-8.2186,-8.2186,-8.2186,-8.2186,-8.2186,-8.2186,-8.2186,-8.2186,-8.2186,-8.2186,-8.2186,-8.2186,-8.2186,-8.2186,-8.2186,-8.2186,-8.1856,-8.1599,-8.1122,-8.0608,-8.0314,-8.0461,-8.0167,-7.9543,-7.958,-7.98,-7.914,-7.8295,-7.7855,-7.7347,-7.731,-7.731,-7.731,-7.731,-7.731,-7.731,-7.731,-7.731,-7.731,-7.731,-7.731,-7.731,-7.731,-7.731,-8.5083,-8.5491,-8.5511,-8.5511,-8.5511,-8.5511,-8.5511,-8.5511,-8.5511,-8.5511,-8.5511,-8.5511,-8.5511,-8.5511,-8.5511,-8.5511,-8.5491,-8.5373,-8.5491,-8.5491,-8.5451,-8.504,-8.478,-8.458,-8.3874,-8.314,-8.256,-8.2375,-8.2186,-8.2186,-8.2186,-8.2186,-8.2186,-8.2186,-8.2186,-8.2186,-8.2186,-8.2186,-8.2186,-8.2186,-8.2186,-8.2186,-8.2186,-8.2186,-8.2186,-8.2186,-8.2186,-8.2186,-8.2186,-8.2186,-8.2186,-8.2186,-8.2186,-8.2186,-8.2186,-8.2186,-8.2186,-8.2186,-8.2186,-8.2186,-8.2186,-8.2186,-8.2186,-8.2186,-8.2186,-8.2186,-8.2186,-8.2186,-8.2186,-8.2186,-8.2186,-8.2186,-8.2186,-8.2186,-8.2186,-8.2186,-8.2186,-8.2186,-8.2186,-8.2186,-8.2186,-8.2186,-8.2186,-8.2186,-8.2186,-8.2186,-8.1966,-8.1599,-8.1158,-8.0571,-8.0021,-7.9727,-7.9727,-7.925,-7.8589,-7.8956,-7.936,-7.8589,-7.7855,-7.7494,-7.731,-7.731,-7.731,-7.731,-7.731,-7.731,-7.731,-7.731,-7.731,-7.731,-7.731,-7.731,-7.731,-7.731,-7.731,-8.5393,-8.5511,-8.5511,-8.5511,-8.5511,-8.5511,-8.5511,-8.5511,-8.5511,-8.5511,-8.5511,-8.5511,-8.5511,-8.5511,-8.5511,-8.5511,-8.5511,-8.5511,-8.5511,-8.5511,-8.5511,-8.5148,-8.4825,-8.4604,-8.3951,-8.3198,-8.2497,-8.2251,-8.2186,-8.2186,-8.2186,-8.2186,-8.2186,-8.2186,-8.2186,-8.2186,-8.2186,-8.2186,-8.2186,-8.2186,-8.2186,-8.2186,-8.2186,-8.2186,-8.2186,-8.2186,-8.2186,-8.2186,-8.2186,-8.2186,-8.2186,-8.2186,-8.2186,-8.2186,-8.2186,-8.2186,-8.2186,-8.2186,-8.2186,-8.2186,-8.2186,-8.2186,-8.2186,-8.2186,-8.2186,-8.2186,-8.2186,-8.2186,-8.2186,-8.2186,-8.2186,-8.2186,-8.2186,-8.2186,-8.2186,-8.2186,-8.2186,-8.2186,-8.2186,-8.2186,-8.2186,-8.2186,-8.2186,-8.215,-8.2113,-8.2113,-8.2003,-8.1562,-8.0681,-8.0057,-7.9433,-7.9176,-7.8956,-7.8369,-7.7781,-7.8479,-7.8736,-7.8002,-7.7457,-7.7347,-7.731,-7.731,-7.731,-7.731,-7.731,-7.731,-7.731,-7.731,-7.731,-7.731,-7.731,-7.731,-7.731,-7.731,-7.731]},{"header":{"parameterUnit":"m.s-1","parameterCategory":1,"la1":31.0,"la2":29.5877,"lo1":-88.7671,"lo2":-86.6584,"dy":0.0162,"dx":0.0185,"nx":115,"ny":88,"refTime":"2024-05-12T12:00:00:Z","depth":0,"parameterNumber":3,"parameterNumberName":"V-component_of_WINDS"},"data":[0.0,0.0,0.0,0.0,0.0,0.0,0.0,0.0,0.0,0.0,0.0,0.0,0.0,0.0,0.0,0.0,0.0,0.0,0.0,0.0,0.0,0.0,0.0,0.0,0.0,0.0,0.0,0.0,0.0,0.0,0.0,0.0,0.0,0.0,0.0,0.0,0.0,0.0,0.0,0.0,0.0,0.0,0.0,0.0,0.0,0.0,0.0,0.0,0.0,0.0,0.0,0.0,0.0,0.0,0.0,0.0,0.0,0.0,0.0,0.0,0.0,0.0,0.0,0.0,0.0,0.0,0.0,0.0,0.0,0.0,0.0,0.0,0.0,0.0,0.0,0.0,0.0,0.0,0.0,0.0,0.0,0.0,0.0,0.0,0.0,0.0,0.0,0.0,0.0,0.0,0.0,0.0,0.0,0.0,0.0,0.0,0.0,0.0,0.0,0.0,0.0,0.0,0.0,0.0,0.0,0.0,0.0,0.0,0.0,0.0,0.0,0.0,0.0,0.0,0.0,0.0,0.0,0.0,0.0,0.0,0.0,0.0,0.0,0.0,0.0,0.0,0.0,0.0,0.0,0.0,0.0,0.0,0.0,0.0,0.0,0.0,0.0,0.0,0.0,0.0,0.0,0.0,0.0,0.0,0.0,0.0,0.0,0.0,0.0,0.0,0.0,0.0,0.0,0.0,0.0,0.0,0.0,0.0,0.0,0.0,0.0,0.0,0.0,0.0,0.0,0.0,0.0,0.0,0.0,0.0,0.0,0.0,0.0,0.0,0.0,0.0,0.0,0.0,0.0,0.0,0.0,0.0,0.0,0.0,0.0,0.0,0.0,0.0,0.0,0.0,0.0,0.0,0.0,0.0,0.0,0.0,0.0,0.0,0.0,0.0,0.0,0.0,0.0,0.0,0.0,0.0,0.0,0.0,0.0,0.0,0.0,0.0,0.0,0.0,0.0,0.0,0.0,0.0,0.0,0.0,0.0,0.0,0.0,0.0,0.0,0.0,0.0,0.0,0.0,0.0,0.0,0.0,0.0,0.0,0.0,0.0,0.0,0.0,0.0,0.0,0.0,0.0,0.0,0.0,0.0,0.0,0.0,0.0,0.0,0.0,0.0,0.0,0.0,0.0,0.0,0.0,0.0,0.0,0.0,0.0,0.0,0.0,0.0,0.0,0.0,0.0,0.0,0.0,0.0,0.0,0.0,0.0,0.0,0.0,0.0,0.0,0.0,0.0,0.0,0.0,0.0,0.0,0.0,0.0,0.0,0.0,0.0,0.0,0.0,0.0,0.0,0.0,0.0,0.0,0.0,0.0,0.0,0.0,0.0,0.0,0.0,0.0,0.0,0.0,0.0,0.0,0.0,0.0,0.0,0.0,0.0,0.0,0.0,0.0,0.0,0.0,0.0,0.0,0.0,0.0,0.0,0.0,0.0,0.0,0.0,0.0,0.0,0.0,0.0,0.0,0.0,0.0,0.0,0.0,0.0,0.0,0.0,0.0,0.0,0.0,0.0,0.0,0.0,0.0,0.0,0.0,0.0,0.0,0.0,0.0,0.0,0.0,0.0,0.0,0.0,0.0,0.0,0.0,0.0,0.0,0.0,0.0,0.0,0.0,0.0,0.0,0.0,0.0,0.0,0.0,0.0,0.0,0.0,0.0,0.0,0.0,0.0,0.0,0.0,0.0,0.0,0.0,0.0,0.0,0.0,0.0,0.0,0.0,0.0,0.0,0.0,0.0,0.0,0.0,0.0,0.0,0.0,0.0,0.0,0.0,0.0,0.0,0.0,0.0,0.0,0.0,0.0,0.0,0.0,0.0,0.0,0.0,0.0,0.0,0.0,0.0,0.0,0.0,0.0,0.0,0.0,0.0,0.0,0.0,0.0,0.0,0.0,0.0,0.0,0.0,0.0,0.0,0.0,0.0,0.0,0.0,0.0,0.0,0.0,0.0,0.0,0.0,0.0,0.0,0.0,0.0,0.0,0.0,0.0,0.0,0.0,0.0,0.0,0.0,0.0,0.0,0.0,0.0,0.0,0.0,0.0,0.0,0.0,0.0,0.0,0.0,0.0,0.0,0.0,0.0,0.0,0.0,0.0,0.0,0.0,0.0,0.0,0.0,0.0,0.0,0.0,0.0,0.0,0.0,0.0,0.0,0.0,0.0,0.0,0.0,0.0,0.0,0.0,0.0,0.0,0.0,0.0,0.0,0.0,0.0,0.0,0.0,0.0,0.0,0.0,0.0,0.0,0.0,0.0,0.0,0.0,0.0,0.0,0.0,0.0,0.0,0.0,0.0,0.0,0.0,0.0,0.0,0.0,0.0,0.0,0.0,0.0,0.0,0.0,0.0,0.0,0.0,0.0,0.0,0.0,0.0,0.0,0.0,0.0,0.0,0.0,0.0,0.0,0.0,0.0,0.0,0.0,0.0,0.0,0.0,0.0,0.0,0.0,0.0,0.0,0.0,0.0,0.0,0.0,0.0,0.0,0.0,0.0,0.0,0.0,0.0,0.0,0.0,0.0,0.0,0.0,0.0,0.0,0.0,0.0,0.0,0.0,0.0,0.0,0.0,0.0,0.0,0.0,0.0,0.0,0.0,0.0,0.0,0.0,0.0,0.0,0.0,0.0,0.0,0.0,0.0,0.0,0.0,0.0,0.0,0.0,0.0,0.0,0.0,0.0,0.0,0.0,0.0,0.0,0.0,0.0,0.0,0.0,0.0,0.0,0.0,0.0,0.0,0.0,0.0,0.0,0.0,0.0,0.0,0.0,0.0,0.0,0.0,0.0,0.0,0.0,0.0,0.0,0.0,0.0,0.0,0.0,0.0,0.0,0.0,0.0,0.0,0.0,0.0,0.0,0.0,0.0,0.0,0.0,0.0,0.0,0.0,0.0,0.0,0.0,0.0,0.0,0.0,0.0,0.0,0.0,0.0,0.0,0.0,0.0,0.0,0.0,0.0,0.0,0.0,0.0,0.0,0.0,0.0,0.0,0.0,0.0,0.0,0.0,0.0,0.0,0.0,0.0,0.0,0.0,0.0,0.0,0.0,0.0,0.0,0.0,0.0,0.0,0.0,0.0,0.0,0.0,0.0,0.0,0.0,0.0,0.0,0.0,0.0,0.0,0.0,0.0,0.0,0.0,0.0,0.0,0.0,0.0,0.0,0.0,0.0,0.0,0.0,0.0,0.0,0.0,0.0,0.0,0.0,0.0,0.0,0.0,0.0,0.0,0.0,0.0,0.0,0.0,0.0,0.0,0.0,0.0,0.0,0.0,0.0,0.0,0.0,0.0,0.0,0.0,0.0,0.0,0.0,0.0,0.0,0.0,0.0,0.0,0.0,0.0,0.0,0.0,0.0,0.0,0.0,0.0,0.0,0.0,0.0,0.0,0.0,0.0,0.0,0.0,0.0,0.0,0.0,0.0,0.0,0.0,0.0,0.0,0.0,0.0,0.0,0.0,0.0,0.0,0.0,0.0,0.0,0.0,0.0,0.0,0.0,0.0,0.0,0.0,0.0,0.0,0.0,0.0,0.0,0.0,0.0,0.0,0.0,0.0,0.0,0.0,0.0,0.0,0.0,0.0,0.0,0.0,0.0,0.0,0.0,0.0,0.0,0.0,0.0,0.0,0.0,0.0,0.0,0.0,0.0,0.0,0.0,0.0,0.0,0.0,0.0,0.0,0.0,0.0,0.0,0.0,0.0,0.0,0.0,0.0,0.0,0.0,0.0,0.0,0.0,0.0,0.0,0.0,0.0,0.0,0.0,0.0,0.0,0.0,0.0,0.0,0.0,0.0,0.0,0.0,0.0,0.0,0.0,0.0,0.0,0.0,0.0,0.0,0.0,0.0,0.0,0.0,0.0,0.0,0.0,0.0,0.0,0.0,0.0,0.0,0.0,0.0,0.0,0.0,0.0,0.0,0.0,0.0,0.0,0.0,0.0,0.0,0.0,0.0,0.0,0.0,0.0,0.0,0.0,0.0,0.0,0.0,0.0,0.0,0.0,0.0,0.0,0.0,0.0,0.0,0.0,0.0,0.0,0.0,0.0,0.0,0.0,0.0,0.0,0.0,0.0,0.0,0.0,0.0,0.0,0.0,0.0,0.0,0.0,0.0,0.0,0.0,0.0,0.0,0.0,0.0,0.0,0.0,0.0,0.0,0.0,0.0,0.0,0.0,0.0,0.0,0.0,0.0,0.0,0.0,0.0,0.0,0.0,0.0,0.0,0.0,0.0,0.0,0.0,0.0,0.0,0.0,0.0,0.0,0.0,0.0,0.0,-2.2591,0.0,0.0,0.0,0.0,0.0,0.0,0.0,0.0,0.0,0.0,0.0,0.0,0.0,0.0,0.0,0.0,0.0,0.0,0.0,0.0,0.0,0.0,0.0,0.0,0.0,0.0,0.0,0.0,0.0,0.0,0.0,0.0,0.0,0.0,0.0,0.0,0.0,0.0,0.0,0.0,0.0,0.0,0.0,0.0,0.0,0.0,0.0,0.0,0.0,0.0,0.0,0.0,0.0,0.0,0.0,0.0,0.0,0.0,0.0,0.0,0.0,0.0,0.0,0.0,0.0,0.0,0.0,0.0,0.0,0.0,0.0,0.0,0.0,0.0,0.0,0.0,0.0,0.0,0.0,0.0,0.0,0.0,0.0,0.0,0.0,0.0,0.0,0.0,0.0,0.0,0.0,0.0,0.0,0.0,0.0,0.0,0.0,0.0,0.0,0.0,0.0,0.0,0.0,0.0,0.0,0.0,0.0,0.0,0.0,0.0,-2.3106,-2.3106,-2.2918,-2.2856,-2.2793,0.0,0.0,0.0,0.0,0.0,0.0,0.0,0.0,0.0,0.0,0.0,0.0,0.0,0.0,0.0,0.0,0.0,0.0,0.0,0.0,0.0,0.0,0.0,0.0,0.0,0.0,0.0,0.0,0.0,0.0,0.0,0.0,0.0,0.0,0.0,0.0,0.0,0.0,0.0,0.0,0.0,0.0,0.0,0.0,0.0,0.0,0.0,0.0,0.0,0.0,0.0,0.0,0.0,0.0,0.0,0.0,0.0,0.0,0.0,0.0,0.0,0.0,0.0,0.0,0.0,0.0,0.0,0.0,0.0,0.0,0.0,0.0,0.0,0.0,0.0,0.0,0.0,0.0,0.0,0.0,0.0,0.0,0.0,0.0,0.0,0.0,0.0,0.0,0.0,0.0,0.0,0.0,0.0,0.0,0.0,0.0,0.0,0.0,0.0,0.0,0.0,0.0,0.0,0.0,0.0,0.0,0.0,0.0,0.0,0.0,0.0,0.0,-2.2856,-2.2606,-2.2355,0.0,0.0,0.0,0.0,0.0,0.0,0.0,0.0,0.0,0.0,0.0,0.0,0.0,0.0,0.0,0.0,0.0,0.0,0.0,0.0,0.0,0.0,0.0,0.0,0.0,0.0,0.0,0.0,0.0,0.0,0.0,0.0,0.0,0.0,0.0,0.0,0.0,0.0,0.0,0.0,0.0,0.0,0.0,0.0,0.0,0.0,0.0,0.0,0.0,0.0,0.0,0.0,0.0,0.0,0.0,0.0,0.0,0.0,0.0,0.0,0.0,0.0,0.0,0.0,0.0,0.0,0.0,0.0,0.0,0.0,0.0,0.0,0.0,0.0,0.0,0.0,0.0,0.0,0.0,0.0,0.0,0.0,0.0,0.0,0.0,0.0,0.0,0.0,0.0,0.0,0.0,0.0,0.0,0.0,0.0,0.0,0.0,0.0,0.0,0.0,0.0,0.0,0.0,0.0,0.0,0.0,0.0,0.0,0.0,0.0,-2.3106,-2.3106,-2.3043,0.0,-2.1803,0.0,0.0,0.0,0.0,0.0,0.0,0.0,0.0,0.0,0.0,0.0,0.0,0.0,0.0,0.0,0.0,0.0,0.0,0.0,0.0,0.0,0.0,0.0,0.0,0.0,0.0,0.0,0.0,0.0,0.0,0.0,0.0,0.0,0.0,0.0,0.0,0.0,0.0,0.0,0.0,0.0,0.0,0.0,0.0,0.0,0.0,0.0,0.0,0.0,0.0,0.0,0.0,0.0,0.0,0.0,0.0,0.0,0.0,0.0,0.0,0.0,0.0,0.0,0.0,0.0,0.0,0.0,0.0,0.0,0.0,0.0,0.0,0.0,0.0,0.0,0.0,0.0,0.0,0.0,0.0,0.0,0.0,0.0,0.0,0.0,0.0,0.0,0.0,0.0,0.0,0.0,0.0,0.0,0.0,0.0,0.0,0.0,0.0,0.0,0.0,0.0,0.0,0.0,0.0,0.0,0.0,0.0,0.0,0.0,0.0,-2.3106,-2.3106,-2.3106,-2.2918,0.0,0.0,0.0,0.0,0.0,0.0,0.0,0.0,0.0,0.0,0.0,0.0,0.0,0.0,0.0,0.0,0.0,0.0,0.0,0.0,0.0,0.0,0.0,0.0,0.0,0.0,0.0,0.0,0.0,0.0,0.0,0.0,0.0,0.0,0.0,0.0,0.0,0.0,0.0,0.0,0.0,0.0,0.0,0.0,0.0,0.0,0.0,0.0,0.0,0.0,0.0,0.0,0.0,0.0,0.0,0.0,0.0,0.0,0.0,0.0,0.0,0.0,0.0,0.0,0.0,0.0,0.0,0.0,0.0,0.0,0.0,0.0,0.0,0.0,0.0,0.0,0.0,0.0,0.0,0.0,0.0,0.0,0.0,0.0,0.0,0.0,0.0,0.0,0.0,0.0,0.0,0.0,0.0,0.0,0.0,0.0,0.0,0.0,0.0,0.0,0.0,0.0,0.0,0.0,0.0,0.0,0.0,0.0,0.0,0.0,-2.3106,-2.3106,-2.3106,-2.3106,-2.3106,-2.3106,0.0,0.0,0.0,0.0,0.0,0.0,0.0,0.0,0.0,0.0,0.0,0.0,0.0,0.0,0.0,0.0,0.0,0.0,0.0,0.0,0.0,0.0,0.0,0.0,0.0,0.0,0.0,0.0,0.0,0.0,0.0,0.0,0.0,0.0,0.0,0.0,0.0,0.0,0.0,0.0,0.0,0.0,0.0,0.0,0.0,0.0,0.0,0.0,0.0,0.0,0.0,0.0,0.0,0.0,0.0,0.0,0.0,0.0,0.0,0.0,0.0,0.0,0.0,0.0,0.0,0.0,0.0,0.0,0.0,0.0,0.0,0.0,0.0,0.0,0.0,0.0,0.0,0.0,0.0,0.0,0.0,0.0,0.0,0.0,0.0,0.0,0.0,0.0,0.0,0.0,0.0,0.0,0.0,0.0,0.0,0.0,0.0,0.0,0.0,0.0,0.0,0.0,0.0,0.0,0.0,0.0,0.0,0.0,-2.3106,-2.3106,-2.3106,-2.3106,-2.3106,-2.3106,0.0,0.0,0.0,0.0,0.0,0.0,0.0,0.0,0.0,0.0,0.0,0.0,0.0,0.0,0.0,0.0,0.0,0.0,0.0,0.0,0.0,0.0,0.0,0.0,0.0,0.0,0.0,0.0,0.0,0.0,0.0,0.0,0.0,0.0,0.0,0.0,0.0,0.0,0.0,0.0,0.0,0.0,0.0,0.0,0.0,0.0,0.0,0.0,0.0,0.0,0.0,0.0,0.0,0.0,0.0,0.0,0.0,0.0,0.0,0.0,0.0,0.0,0.0,0.0,0.0,0.0,0.0,0.0,0.0,0.0,0.0,0.0,0.0,0.0,0.0,0.0,0.0,0.0,0.0,0.0,0.0,0.0,0.0,0.0,0.0,0.0,0.0,0.0,0.0,0.0,0.0,0.0,0.0,0.0,0.0,0.0,0.0,0.0,0.0,0.0,0.0,0.0,0.0,0.0,0.0,0.0,0.0,0.0,0.0,-2.3106,-2.3106,-2.3106,-2.3106,-2.3106,-2.3106,0.0,0.0,0.0,0.0,0.0,0.0,0.0,0.0,0.0,0.0,0.0,0.0,0.0,0.0,0.0,0.0,0.0,0.0,0.0,0.0,0.0,0.0,0.0,0.0,0.0,0.0,0.0,0.0,0.0,0.0,0.0,0.0,0.0,0.0,0.0,0.0,0.0,0.0,0.0,0.0,0.0,0.0,0.0,0.0,0.0,0.0,0.0,0.0,0.0,0.0,0.0,0.0,0.0,0.0,0.0,0.0,0.0,0.0,0.0,0.0,0.0,0.0,0.0,0.0,0.0,0.0,0.0,0.0,0.0,0.0,0.0,0.0,0.0,0.0,0.0,0.0,0.0,0.0,0.0,0.0,0.0,0.0,0.0,0.0,0.0,0.0,0.0,0.0,0.0,0.0,0.0,0.0,0.0,0.0,0.0,0.0,0.0,0.0,0.0,0.0,0.0,0.0,0.0,0.0,0.0,0.0,0.0,0.0,0.0,-2.312,0.0,-2.3267,-2.3267,-2.3369,-2.3427,0.0,0.0,0.0,0.0,0.0,0.0,0.0,0.0,0.0,0.0,0.0,0.0,0.0,0.0,0.0,0.0,0.0,0.0,0.0,0.0,0.0,0.0,0.0,0.0,0.0,0.0,0.0,0.0,0.0,0.0,0.0,0.0,0.0,0.0,0.0,0.0,0.0,0.0,0.0,0.0,0.0,0.0,0.0,0.0,0.0,0.0,0.0,0.0,0.0,0.0,0.0,0.0,0.0,0.0,0.0,0.0,0.0,0.0,0.0,0.0,0.0,0.0,0.0,0.0,0.0,0.0,0.0,0.0,0.0,0.0,0.0,0.0,0.0,0.0,0.0,0.0,0.0,0.0,0.0,0.0,0.0,0.0,0.0,0.0,0.0,0.0,0.0,0.0,0.0,0.0,0.0,0.0,0.0,0.0,0.0,0.0,0.0,0.0,0.0,0.0,0.0,0.0,0.0,0.0,0.0,0.0,0.0,0.0,-2.3135,-2.3135,-2.3442,-2.3603,-2.3603,-2.3896,-2.4071,0.0,0.0,0.0,0.0,0.0,0.0,0.0,0.0,0.0,0.0,0.0,0.0,0.0,0.0,0.0,0.0,0.0,0.0,0.0,0.0,0.0,0.0,0.0,0.0,0.0,0.0,0.0,0.0,0.0,0.0,0.0,0.0,0.0,0.0,0.0,0.0,0.0,0.0,0.0,0.0,0.0,0.0,0.0,0.0,0.0,0.0,0.0,0.0,0.0,0.0,0.0,0.0,0.0,0.0,0.0,0.0,0.0,0.0,0.0,0.0,0.0,0.0,0.0,0.0,0.0,0.0,0.0,0.0,0.0,0.0,0.0,0.0,0.0,0.0,0.0,0.0,0.0,0.0,0.0,0.0,0.0,0.0,0.0,0.0,0.0,0.0,0.0,0.0,0.0,0.0,0.0,0.0,0.0,0.0,0.0,0.0,0.0,0.0,0.0,0.0,0.0,0.0,0.0,0.0,0.0,0.0,0.0,0.0,0.0,-2.3779,-2.3881,-2.3925,-2.3925,-2.4027,-2.4086,0.0,0.0,0.0,0.0,0.0,0.0,0.0,0.0,0.0,0.0,0.0,0.0,0.0,0.0,0.0,0.0,0.0,0.0,0.0,0.0,0.0,0.0,0.0,0.0,0.0,0.0,0.0,0.0,0.0,0.0,0.0,0.0,0.0,0.0,0.0,0.0,0.0,0.0,0.0,0.0,0.0,0.0,0.0,0.0,0.0,0.0,0.0,0.0,0.0,0.0,0.0,0.0,0.0,0.0,0.0,0.0,0.0,0.0,0.0,0.0,0.0,0.0,0.0,0.0,0.0,0.0,0.0,0.0,0.0,0.0,0.0,0.0,0.0,0.0,0.0,0.0,0.0,0.0,0.0,0.0,0.0,0.0,0.0,0.0,0.0,0.0,0.0,0.0,0.0,0.0,0.0,0.0,0.0,0.0,0.0,0.0,0.0,0.0,0.0,0.0,0.0,0.0,0.0,0.0,0.0,0.0,0.0,0.0,0.0,-2.4964,-2.4744,-2.4686,-2.4803,-2.4803,-2.4686,-2.4532,0.0,0.0,0.0,0.0,0.0,0.0,0.0,0.0,0.0,0.0,0.0,0.0,0.0,0.0,0.0,0.0,0.0,0.0,0.0,0.0,0.0,0.0,0.0,0.0,0.0,0.0,0.0,0.0,0.0,0.0,0.0,0.0,0.0,0.0,0.0,0.0,0.0,0.0,0.0,0.0,0.0,0.0,0.0,0.0,0.0,0.0,0.0,0.0,0.0,0.0,0.0,0.0,0.0,0.0,0.0,0.0,0.0,0.0,0.0,0.0,0.0,0.0,0.0,0.0,0.0,0.0,0.0,0.0,0.0,0.0,0.0,0.0,0.0,0.0,0.0,0.0,0.0,0.0,0.0,0.0,0.0,0.0,0.0,0.0,0.0,0.0,0.0,0.0,0.0,0.0,0.0,0.0,0.0,0.0,0.0,0.0,0.0,0.0,0.0,0.0,0.0,0.0,0.0,0.0,0.0,0.0,0.0,0.0,-2.6574,-2.6018,-2.5842,-2.6091,-2.6047,-2.5754,0.0,0.0,0.0,0.0,0.0,0.0,0.0,0.0,0.0,0.0,0.0,0.0,0.0,0.0,0.0,0.0,0.0,0.0,0.0,0.0,0.0,0.0,0.0,0.0,0.0,0.0,0.0,0.0,0.0,0.0,0.0,0.0,0.0,0.0,0.0,0.0,0.0,0.0,0.0,0.0,0.0,0.0,0.0,0.0,0.0,0.0,0.0,0.0,0.0,0.0,0.0,0.0,0.0,0.0,0.0,0.0,0.0,0.0,0.0,0.0,0.0,0.0,0.0,0.0,0.0,0.0,0.0,0.0,0.0,0.0,0.0,0.0,0.0,0.0,0.0,0.0,0.0,0.0,0.0,0.0,0.0,0.0,0.0,0.0,0.0,0.0,0.0,0.0,0.0,0.0,0.0,0.0,0.0,0.0,0.0,0.0,0.0,0.0,0.0,0.0,0.0,0.0,0.0,0.0,0.0,0.0,0.0,0.0,0.0,-2.7465,-2.7861,-2.773,-2.7115,-2.6632,-2.6179,0.0,0.0,0.0,0.0,0.0,0.0,0.0,0.0,0.0,0.0,0.0,0.0,0.0,0.0,0.0,0.0,0.0,0.0,0.0,0.0,0.0,0.0,0.0,0.0,0.0,0.0,0.0,0.0,0.0,0.0,0.0,0.0,0.0,0.0,0.0,0.0,0.0,0.0,0.0,0.0,0.0,0.0,0.0,0.0,0.0,0.0,0.0,0.0,0.0,0.0,0.0,0.0,0.0,0.0,0.0,0.0,0.0,0.0,0.0,0.0,0.0,0.0,0.0,0.0,0.0,0.0,0.0,0.0,0.0,0.0,0.0,0.0,0.0,0.0,0.0,0.0,0.0,0.0,0.0,0.0,0.0,0.0,0.0,0.0,0.0,0.0,0.0,0.0,0.0,0.0,0.0,0.0,0.0,0.0,0.0,0.0,0.0,0.0,0.0,0.0,0.0,0.0,0.0,0.0,0.0,0.0,0.0,0.0,-2.7583,-2.8154,-2.9442,-2.9793,-2.9105,-2.7671,-2.6691,0.0,0.0,0.0,0.0,0.0,0.0,0.0,0.0,0.0,0.0,0.0,0.0,0.0,0.0,0.0,0.0,0.0,0.0,0.0,0.0,0.0,0.0,0.0,0.0,0.0,0.0,0.0,0.0,0.0,0.0,0.0,0.0,0.0,0.0,0.0,0.0,0.0,0.0,0.0,0.0,0.0,0.0,0.0,0.0,0.0,0.0,0.0,0.0,0.0,0.0,0.0,0.0,0.0,0.0,0.0,0.0,0.0,0.0,0.0,0.0,0.0,0.0,0.0,0.0,0.0,0.0,0.0,0.0,0.0,0.0,0.0,0.0,0.0,0.0,0.0,0.0,0.0,0.0,0.0,0.0,0.0,0.0,0.0,0.0,0.0,0.0,0.0,0.0,0.0,0.0,0.0,0.0,0.0,0.0,0.0,0.0,0.0,0.0,0.0,0.0,0.0,0.0,0.0,0.0,0.0,0.0,0.0,0.0,-2.8428,-2.8651,-3.07,-3.1651,-3.13,-2.89,-2.7291,0.0,0.0,0.0,0.0,0.0,0.0,0.0,0.0,0.0,0.0,0.0,0.0,0.0,0.0,0.0,0.0,0.0,0.0,0.0,0.0,0.0,0.0,0.0,0.0,0.0,0.0,0.0,0.0,0.0,0.0,0.0,0.0,0.0,0.0,0.0,0.0,0.0,0.0,0.0,0.0,0.0,0.0,0.0,0.0,0.0,0.0,0.0,0.0,0.0,0.0,0.0,0.0,0.0,0.0,0.0,0.0,0.0,0.0,0.0,0.0,0.0,0.0,0.0,0.0,0.0,0.0,0.0,0.0,0.0,0.0,0.0,0.0,0.0,0.0,0.0,0.0,0.0,0.0,0.0,0.0,0.0,0.0,0.0,0.0,0.0,0.0,0.0,0.0,0.0,0.0,0.0,0.0,0.0,0.0,0.0,0.0,0.0,0.0,0.0,0.0,0.0,0.0,0.0,0.0,0.0,0.0,0.0,0.0,-2.893,-2.9939,-3.1168,-3.1768,-3.1695,-2.9442,-2.8052,0.0,0.0,0.0,0.0,0.0,0.0,0.0,0.0,0.0,0.0,0.0,0.0,0.0,0.0,0.0,0.0,0.0,0.0,0.0,0.0,0.0,0.0,0.0,0.0,0.0,0.0,0.0,0.0,0.0,0.0,0.0,0.0,0.0,0.0,0.0,0.0,0.0,0.0,0.0,0.0,0.0,0.0,0.0,0.0,0.0,0.0,0.0,0.0,-2.5991,0.0,0.0,0.0,0.0,0.0,0.0,0.0,0.0,0.0,0.0,0.0,0.0,0.0,0.0,0.0,0.0,0.0,0.0,0.0,0.0,0.0,0.0,0.0,0.0,0.0,0.0,0.0,0.0,0.0,0.0,0.0,0.0,0.0,0.0,0.0,0.0,0.0,0.0,0.0,0.0,0.0,0.0,0.0,0.0,0.0,0.0,0.0,0.0,0.0,0.0,0.0,0.0,0.0,0.0,0.0,0.0,0.0,0.0,0.0,-2.9281,-3.0554,-3.1681,-3.2251,-3.2193,-3.0495,-2.9041,0.0,0.0,0.0,0.0,0.0,0.0,0.0,0.0,0.0,0.0,0.0,0.0,0.0,0.0,0.0,0.0,0.0,0.0,0.0,0.0,0.0,0.0,0.0,0.0,0.0,0.0,0.0,0.0,0.0,0.0,0.0,0.0,0.0,0.0,0.0,0.0,0.0,0.0,0.0,0.0,0.0,0.0,0.0,0.0,0.0,0.0,0.0,0.0,0.0,0.0,0.0,0.0,0.0,0.0,0.0,0.0,0.0,0.0,0.0,0.0,0.0,0.0,0.0,0.0,0.0,0.0,0.0,0.0,0.0,0.0,0.0,0.0,0.0,0.0,0.0,0.0,0.0,0.0,0.0,0.0,0.0,0.0,0.0,0.0,0.0,0.0,0.0,0.0,0.0,0.0,0.0,0.0,0.0,0.0,0.0,0.0,0.0,0.0,0.0,0.0,0.0,0.0,0.0,0.0,0.0,0.0,0.0,-2.8315,-2.9588,-3.1022,-3.2178,-3.2763,-3.2749,-3.1505,-3.01,-2.8564,0.0,0.0,0.0,0.0,0.0,0.0,0.0,0.0,0.0,0.0,0.0,0.0,0.0,0.0,0.0,0.0,0.0,0.0,0.0,0.0,0.0,0.0,0.0,0.0,0.0,0.0,0.0,0.0,0.0,0.0,0.0,0.0,0.0,0.0,0.0,0.0,0.0,0.0,-2.4847,-2.4936,0.0,0.0,0.0,0.0,0.0,0.0,0.0,0.0,-2.5621,0.0,0.0,0.0,0.0,0.0,0.0,0.0,0.0,0.0,0.0,0.0,0.0,0.0,0.0,0.0,0.0,0.0,0.0,0.0,0.0,0.0,0.0,0.0,0.0,0.0,0.0,0.0,0.0,0.0,0.0,0.0,0.0,0.0,0.0,0.0,0.0,0.0,0.0,0.0,0.0,0.0,0.0,0.0,0.0,0.0,0.0,0.0,0.0,0.0,0.0,0.0,0.0,0.0,0.0,0.0,0.0,-2.8093,-2.8651,-2.991,-3.1988,-3.2515,-3.2763,-3.2734,-3.1505,-3.0188,-2.8871,0.0,0.0,0.0,0.0,0.0,0.0,0.0,0.0,0.0,0.0,0.0,0.0,0.0,0.0,0.0,0.0,0.0,0.0,0.0,0.0,0.0,0.0,0.0,0.0,0.0,0.0,0.0,0.0,0.0,0.0,0.0,0.0,0.0,0.0,0.0,0.0,0.0,0.0,0.0,-2.5288,-2.506,0.0,0.0,0.0,0.0,0.0,0.0,0.0,0.0,-2.6516,0.0,0.0,0.0,0.0,0.0,0.0,0.0,0.0,0.0,0.0,0.0,0.0,0.0,0.0,0.0,0.0,0.0,0.0,0.0,0.0,0.0,0.0,0.0,0.0,0.0,0.0,0.0,0.0,0.0,0.0,0.0,0.0,0.0,0.0,0.0,0.0,0.0,0.0,0.0,0.0,0.0,0.0,0.0,0.0,0.0,0.0,0.0,0.0,0.0,0.0,0.0,0.0,0.0,0.0,0.0,-2.8608,-2.9471,-3.0744,-3.2456,-3.269,-3.2763,-3.2749,-3.1505,-3.029,0.0,0.0,0.0,0.0,0.0,0.0,0.0,0.0,0.0,0.0,0.0,0.0,0.0,0.0,0.0,0.0,0.0,0.0,0.0,0.0,0.0,0.0,0.0,0.0,0.0,0.0,0.0,0.0,0.0,0.0,0.0,0.0,0.0,0.0,0.0,0.0,0.0,0.0,0.0,0.0,-2.595,-2.5937,-2.7042,0.0,0.0,0.0,0.0,0.0,0.0,-2.6808,-2.6661,0.0,0.0,0.0,0.0,0.0,0.0,0.0,0.0,0.0,0.0,0.0,0.0,0.0,0.0,0.0,0.0,0.0,0.0,0.0,0.0,0.0,0.0,0.0,0.0,0.0,0.0,0.0,0.0,0.0,0.0,0.0,0.0,0.0,0.0,0.0,0.0,0.0,0.0,0.0,0.0,0.0,0.0,0.0,0.0,0.0,0.0,0.0,0.0,0.0,0.0,0.0,0.0,0.0,0.0,0.0,-2.8798,-3.0129,-3.1432,-3.2617,-3.2734,-3.2763,-3.2734,-3.1315,-3.0159,0.0,0.0,0.0,0.0,0.0,0.0,0.0,0.0,0.0,0.0,0.0,0.0,0.0,0.0,0.0,0.0,0.0,0.0,0.0,0.0,0.0,0.0,0.0,0.0,0.0,0.0,0.0,0.0,0.0,0.0,0.0,0.0,0.0,0.0,0.0,0.0,0.0,0.0,0.0,0.0,0.0,-2.6852,-2.7728,-2.713,0.0,0.0,0.0,0.0,-2.6793,-2.6954,0.0,0.0,0.0,0.0,0.0,0.0,0.0,0.0,0.0,0.0,0.0,0.0,0.0,0.0,0.0,0.0,0.0,0.0,0.0,0.0,0.0,0.0,0.0,0.0,0.0,0.0,0.0,0.0,0.0,0.0,0.0,0.0,0.0,0.0,0.0,0.0,0.0,0.0,0.0,0.0,0.0,0.0,0.0,0.0,0.0,0.0,0.0,0.0,0.0,0.0,0.0,0.0,0.0,0.0,0.0,0.0,-2.8505,-3.0027,-3.1315,-3.2295,-3.2632,-3.2763,-3.2734,-3.0671,-2.9486,0.0,0.0,0.0,0.0,0.0,0.0,0.0,0.0,0.0,0.0,0.0,0.0,0.0,0.0,0.0,0.0,0.0,0.0,0.0,0.0,0.0,0.0,0.0,0.0,0.0,0.0,0.0,0.0,0.0,0.0,0.0,0.0,0.0,0.0,0.0,0.0,0.0,0.0,0.0,0.0,0.0,-2.6852,-2.7742,-2.713,-2.6515,0.0,0.0,-2.7713,-2.7713,-2.8491,0.0,0.0,0.0,0.0,0.0,0.0,0.0,0.0,0.0,0.0,0.0,0.0,0.0,0.0,0.0,0.0,0.0,0.0,0.0,0.0,0.0,0.0,0.0,0.0,0.0,0.0,0.0,0.0,0.0,0.0,0.0,0.0,0.0,0.0,0.0,0.0,0.0,0.0,0.0,0.0,0.0,0.0,0.0,0.0,0.0,0.0,0.0,0.0,0.0,0.0,0.0,0.0,0.0,0.0,0.0,-2.8271,-2.8754,-3.0832,-3.2134,-3.2544,-3.2705,-3.2763,-3.2763,-3.0568,-2.9471,0.0,0.0,0.0,0.0,0.0,0.0,0.0,0.0,0.0,0.0,0.0,0.0,0.0,0.0,0.0,0.0,0.0,0.0,0.0,0.0,0.0,0.0,0.0,0.0,0.0,0.0,0.0,0.0,0.0,0.0,0.0,0.0,0.0,0.0,0.0,0.0,0.0,0.0,0.0,0.0,0.0,0.0,-2.783,-2.7744,0.0,0.0,0.0,-2.83,-2.7759,0.0,0.0,0.0,0.0,0.0,0.0,0.0,0.0,0.0,0.0,0.0,0.0,0.0,0.0,0.0,0.0,0.0,0.0,0.0,0.0,0.0,0.0,0.0,0.0,0.0,0.0,0.0,0.0,0.0,0.0,0.0,0.0,0.0,0.0,0.0,0.0,0.0,0.0,0.0,0.0,0.0,0.0,0.0,0.0,0.0,0.0,0.0,0.0,0.0,0.0,0.0,0.0,0.0,0.0,0.0,0.0,0.0,-2.9061,-3.149,-3.2763,-3.2763,-3.2763,-3.2763,-3.2734,-3.0964,0.0,0.0,0.0,0.0,0.0,0.0,0.0,0.0,0.0,0.0,0.0,0.0,0.0,0.0,0.0,0.0,0.0,0.0,0.0,0.0,0.0,0.0,0.0,0.0,0.0,0.0,0.0,-2.5608,0.0,0.0,0.0,0.0,0.0,0.0,0.0,0.0,0.0,0.0,0.0,0.0,0.0,0.0,-2.7874,-2.7874,-2.8227,-2.8491,0.0,0.0,-2.8695,-2.8169,-2.9486,-2.9998,0.0,0.0,0.0,0.0,0.0,0.0,0.0,0.0,0.0,0.0,0.0,0.0,0.0,0.0,0.0,0.0,0.0,0.0,0.0,0.0,0.0,0.0,0.0,0.0,0.0,0.0,0.0,0.0,0.0,0.0,0.0,0.0,0.0,0.0,0.0,0.0,0.0,0.0,0.0,0.0,0.0,0.0,0.0,0.0,0.0,0.0,0.0,0.0,0.0,0.0,0.0,0.0,0.0,0.0,0.0,-2.9412,-3.1607,-3.2778,-3.2763,-3.2763,-3.2763,-3.2763,-3.2032,-3.1066,0.0,0.0,0.0,0.0,0.0,0.0,0.0,0.0,0.0,0.0,0.0,0.0,0.0,0.0,0.0,0.0,0.0,0.0,0.0,0.0,0.0,0.0,0.0,0.0,0.0,0.0,0.0,0.0,0.0,0.0,0.0,0.0,0.0,0.0,0.0,0.0,0.0,0.0,0.0,0.0,0.0,-2.7874,-2.7874,-2.8151,-2.8651,0.0,0.0,-2.9076,-2.9697,-3.0554,-3.0788,-2.9456,0.0,0.0,0.0,0.0,0.0,0.0,0.0,0.0,0.0,0.0,0.0,0.0,0.0,0.0,0.0,0.0,0.0,0.0,0.0,0.0,0.0,0.0,0.0,0.0,0.0,0.0,0.0,0.0,0.0,0.0,0.0,0.0,0.0,0.0,0.0,0.0,0.0,0.0,0.0,0.0,0.0,0.0,0.0,0.0,0.0,0.0,0.0,0.0,0.0,0.0,0.0,0.0,0.0,-2.9456,-2.9412,-3.1812,-3.2968,-3.2778,-3.2763,-3.2763,-3.2763,-3.2134,-3.1198,0.0,0.0,0.0,0.0,0.0,0.0,0.0,0.0,0.0,0.0,0.0,0.0,0.0,0.0,0.0,0.0,0.0,0.0,0.0,0.0,0.0,0.0,0.0,0.0,0.0,0.0,0.0,0.0,-2.7466,-2.7378,-2.6588,0.0,0.0,0.0,0.0,0.0,0.0,0.0,0.0,0.0,0.0,-2.8388,-2.8769,-2.912,0.0,0.0,-2.9734,-2.9815,-2.9588,-3.0378,-3.051,-2.9047,-2.8695,0.0,0.0,0.0,0.0,0.0,0.0,0.0,0.0,0.0,0.0,0.0,0.0,0.0,0.0,0.0,0.0,0.0,0.0,0.0,0.0,0.0,0.0,0.0,0.0,0.0,0.0,0.0,0.0,0.0,0.0,0.0,0.0,0.0,0.0,0.0,0.0,0.0,0.0,0.0,0.0,0.0,0.0,0.0,0.0,0.0,0.0,0.0,0.0,0.0,0.0,0.0,0.0,-2.9873,-2.9756,-3.212,-3.329,-3.3056,-3.3056,-3.3056,-3.3056,-3.2705,-3.1915,0.0,0.0,0.0,0.0,0.0,0.0,0.0,0.0,0.0,0.0,0.0,0.0,0.0,0.0,0.0,0.0,0.0,0.0,0.0,0.0,0.0,0.0,0.0,0.0,0.0,0.0,0.0,0.0,-2.7686,-2.751,-2.6603,0.0,0.0,0.0,0.0,0.0,0.0,0.0,0.0,0.0,0.0,-2.8812,-2.9061,-2.9369,-2.9573,-2.9573,-2.969,-2.969,-2.9412,-2.9954,-3.0012,-2.89,0.0,0.0,0.0,0.0,0.0,0.0,0.0,0.0,0.0,0.0,0.0,0.0,0.0,0.0,0.0,0.0,0.0,0.0,0.0,0.0,0.0,0.0,0.0,0.0,0.0,0.0,0.0,0.0,0.0,0.0,-2.5022,0.0,0.0,0.0,0.0,0.0,0.0,0.0,0.0,0.0,0.0,0.0,0.0,0.0,0.0,0.0,0.0,0.0,0.0,0.0,0.0,0.0,0.0,-3.0108,-3.0431,-3.2559,-3.3715,-3.37,-3.37,-3.3685,-3.37,-3.3993,-3.3554,-3.2237,0.0,0.0,0.0,0.0,0.0,0.0,0.0,0.0,0.0,0.0,0.0,0.0,0.0,0.0,0.0,0.0,0.0,0.0,0.0,0.0,0.0,0.0,0.0,0.0,0.0,0.0,-2.5442,-2.6003,-2.6559,0.0,0.0,0.0,0.0,0.0,0.0,0.0,0.0,0.0,0.0,-2.8359,-2.912,-2.8564,-2.8725,-2.8944,-2.8944,-2.8695,-2.8695,-2.9281,-2.9383,-2.9398,0.0,0.0,0.0,0.0,0.0,0.0,0.0,0.0,0.0,0.0,0.0,0.0,0.0,0.0,0.0,0.0,0.0,0.0,0.0,0.0,0.0,0.0,0.0,0.0,0.0,0.0,0.0,-2.5066,-2.5066,0.0,0.0,0.0,0.0,0.0,0.0,0.0,0.0,0.0,0.0,0.0,-2.8242,-2.8256,0.0,0.0,0.0,0.0,0.0,0.0,0.0,0.0,0.0,0.0,0.0,0.0,-3.0451,-3.0466,-3.2793,-3.3949,-3.3744,-3.3729,-3.3729,-3.3729,-3.4051,-3.3715,-3.2632,0.0,0.0,0.0,0.0,0.0,0.0,0.0,0.0,0.0,0.0,0.0,0.0,0.0,0.0,0.0,0.0,0.0,0.0,0.0,0.0,0.0,0.0,0.0,0.0,0.0,-2.6822,0.0,0.0,0.0,0.0,0.0,0.0,0.0,0.0,0.0,0.0,0.0,-2.7598,-2.792,-2.8227,-2.8505,-2.871,-2.8827,-2.9047,0.0,0.0,0.0,0.0,0.0,0.0,0.0,0.0,0.0,0.0,0.0,0.0,0.0,0.0,-2.8447,-2.8022,-2.8461,-2.8871,-2.8754,0.0,0.0,0.0,0.0,0.0,0.0,0.0,0.0,0.0,0.0,0.0,0.0,0.0,0.0,-2.6469,0.0,-2.5985,0.0,0.0,0.0,0.0,0.0,0.0,0.0,0.0,-2.8578,-2.9208,-2.9559,-2.9559,-2.9559,0.0,-2.9222,-2.83,0.0,0.0,0.0,0.0,0.0,0.0,0.0,0.0,-3.0729,-3.0627,-3.3071,-3.4285,-3.408,-3.4066,-3.4066,-3.408,-3.4271,-3.4095,-3.3466,-3.2193,-3.111,0.0,0.0,0.0,0.0,0.0,0.0,0.0,0.0,0.0,0.0,0.0,0.0,0.0,0.0,0.0,0.0,0.0,0.0,0.0,0.0,0.0,0.0,0.0,-2.7335,0.0,0.0,0.0,0.0,0.0,0.0,0.0,0.0,0.0,-2.7174,-2.773,-2.8242,-2.8549,-2.8608,-2.8608,-2.8564,0.0,0.0,0.0,0.0,0.0,0.0,0.0,-2.7891,-2.7686,-2.7832,-2.8125,-2.8534,-2.8769,-2.8988,-2.9325,0.0,0.0,-2.9047,-2.9442,-2.9947,-2.9947,-2.9603,-2.9442,-2.9647,-2.9442,-2.9266,0.0,0.0,0.0,0.0,0.0,0.0,0.0,0.0,-2.8842,-2.8812,0.0,-2.7569,0.0,0.0,0.0,0.0,0.0,-2.83,0.0,0.0,-3.1446,-3.2046,-3.0934,-3.0876,-3.0876,-3.0832,-2.9968,-2.9515,-2.9471,-2.95,0.0,0.0,0.0,0.0,0.0,0.0,-3.0832,-3.0964,-3.3407,-3.4695,-3.4695,-3.4695,-3.4695,-3.4695,-3.4695,-3.4695,-3.4651,-3.348,-3.2807,-3.2719,-3.0378,0.0,0.0,0.0,0.0,0.0,0.0,0.0,0.0,0.0,0.0,0.0,0.0,0.0,0.0,0.0,0.0,0.0,0.0,0.0,0.0,-2.7525,0.0,0.0,0.0,0.0,0.0,0.0,0.0,0.0,0.0,0.0,-2.7583,-2.8066,-2.8534,-2.8812,0.0,0.0,0.0,0.0,-2.8432,-2.7305,-2.7086,-2.7115,-2.7174,-2.7656,-2.8227,-2.8812,0.0,0.0,-2.9881,-2.9398,-2.9149,-2.9427,-3.0261,-3.0656,-3.01,-3.0027,-3.0012,-2.9983,-2.9764,-2.95,-2.9471,-2.9471,-2.9208,-3.0691,0.0,0.0,0.0,0.0,-2.9123,-2.9026,-2.8886,-2.8886,-2.8886,-2.8871,-2.8505,0.0,0.0,0.0,0.0,0.0,0.0,-2.9603,-3.029,-3.1037,-3.1666,-3.2207,-3.2222,-3.2207,-3.2193,-3.1929,-3.1798,-3.1812,-3.2266,-3.1066,-2.8253,0.0,0.0,0.0,0.0,-3.1168,-3.1929,-3.3744,-3.471,-3.471,-3.471,-3.471,-3.471,-3.471,-3.471,-3.471,-3.4344,-3.3715,-3.2807,-3.2061,0.0,0.0,0.0,0.0,0.0,0.0,0.0,0.0,0.0,0.0,0.0,0.0,0.0,0.0,0.0,0.0,0.0,0.0,0.0,-2.7481,-2.8505,-2.8578,0.0,0.0,0.0,0.0,0.0,0.0,0.0,0.0,0.0,-2.8505,-2.8461,-2.8311,0.0,0.0,-2.7686,-2.732,-2.7803,-2.833,-2.8637,-2.8695,0.0,-2.9632,-2.9486,-2.9383,-2.9559,-3.0129,-3.0554,-3.0539,-3.0773,-3.1066,-3.1373,-3.149,-3.1593,-3.1885,-3.1739,-3.1505,-3.13,-3.1168,-3.1198,-3.1388,-3.1373,-3.1344,-3.1981,-3.1048,-3.0525,-3.0301,-3.0301,-3.0301,-3.0358,-3.0437,-3.0422,-3.0495,-3.0583,-3.0071,-3.0027,-3.0305,-2.9793,0.0,0.0,0.0,-3.0656,-3.1593,-3.1593,-3.2017,-3.2749,-3.2763,-3.2763,-3.2763,-3.2763,-3.2763,-3.2778,-3.2895,-3.19,-2.9837,0.0,0.0,-2.9237,-3.0656,-3.1754,-3.2515,-3.3949,-3.4753,-3.4885,-3.5017,-3.5017,-3.4885,-3.49,-3.4841,-3.471,-3.471,-3.4344,-3.3568,-3.3041,-3.2061,0.0,0.0,0.0,0.0,0.0,0.0,0.0,0.0,0.0,0.0,0.0,-2.7598,-2.7027,0.0,0.0,0.0,-2.8725,-2.8564,-2.8432,-2.8944,0.0,0.0,0.0,0.0,0.0,0.0,0.0,-2.751,-2.83,-2.8886,-2.8886,-2.8725,-2.8637,-2.8695,-2.8373,-2.8081,-2.7949,0.0,-2.9061,-2.9515,-2.9573,-2.9778,-3.0349,-3.0334,-3.032,-3.0598,-3.0934,-3.1198,-3.1227,-3.1549,-3.19,-3.2163,-3.212,-3.212,-3.25,-3.2412,-3.228,-3.2193,-3.2076,-3.2061,-3.2251,-3.209,-3.1959,-3.25,-3.2661,-3.1476,-3.0978,-3.0978,-3.0978,-3.1651,-3.2749,-3.2749,-3.2924,-3.3025,-3.1973,-3.1651,-3.1915,-3.0773,0.0,-3.1505,-3.1505,-3.1959,-3.2763,-3.2763,-3.2763,-3.2763,-3.2763,-3.2793,-3.2807,-3.2807,-3.2822,-3.2822,-3.2295,-3.1944,-3.1841,-3.2163,-3.1681,-3.0525,-3.1593,-3.2398,-3.2807,-3.4007,-3.4812,-3.5192,-3.5581,-3.5596,-3.5207,-3.5222,-3.509,-3.4797,-3.4753,-3.4739,-3.471,-3.3583,-3.288,-3.2705,0.0,0.0,0.0,0.0,0.0,0.0,0.0,0.0,0.0,0.0,0.0,0.0,0.0,0.0,0.0,-3.0475,0.0,-3.0012,-2.9208,0.0,0.0,0.0,-2.8739,-2.9325,-2.9398,-2.9281,-2.893,0.0,0.0,-2.9003,-2.9003,-2.9251,-2.9925,-2.9991,-2.972,-2.9456,-2.9925,-3.0372,-3.0042,-3.0042,-3.0167,-3.0349,-3.0715,-3.1212,-3.171,-3.1871,-3.1871,-3.1871,-3.1885,-3.2017,-3.2295,-3.2295,-3.231,-3.2324,-3.2324,-3.2383,-3.2676,-3.2456,-3.2237,-3.2251,-3.1871,-3.1534,-3.2705,-3.2749,-3.2441,-3.231,-3.231,-3.231,-3.2485,-3.2763,-3.2763,-3.2822,-3.288,-3.2807,-3.31,-3.3641,-3.3583,-3.3407,-3.3158,-3.3158,-3.3012,-3.2778,-3.2763,-3.2763,-3.2763,-3.2763,-3.291,-3.3129,-3.3129,-3.3261,-3.3495,-3.3597,-3.3144,-3.2237,-3.25,-3.2002,-3.0788,-3.1256,-3.2061,-3.3129,-3.3671,-3.4475,-3.5485,-3.5602,-3.5602,-3.5529,-3.5625,-3.55,-3.5412,-3.5178,-3.5046,-3.5031,-3.4534,-3.3802,-3.2807,-3.1242,0.0,0.0,0.0,0.0,0.0,0.0,0.0,0.0,0.0,-2.8125,-2.7393,0.0,-2.8666,0.0,-3.0817,-3.1593,-3.1022,-3.0993,0.0,0.0,-2.9442,-2.9208,-2.9369,-2.9603,-2.9529,-2.8944,-2.9325,-2.972,-2.9968,-3.0079,-3.0334,-3.1183,-3.0261,-2.9559,-2.972,-3.0305,-3.0773,-3.0964,-3.1359,-3.1798,-3.1973,-3.2193,-3.2324,-3.25,-3.2529,-3.2544,-3.2544,-3.2544,-3.2573,-3.2617,-3.2441,-3.2398,-3.2602,-3.2456,-3.2412,-3.2646,-3.231,-3.1988,-3.2222,-3.2149,-3.2105,-3.2763,-3.2763,-3.2763,-3.2515,-3.2149,-3.2588,-3.2763,-3.2763,-3.2763,-3.2851,-3.3012,-3.348,-3.3875,-3.4227,-3.4417,-3.4212,-3.3729,-3.3583,-3.3246,-3.2793,-3.291,-3.2983,-3.2997,-3.3129,-3.329,-3.3466,-3.3612,-3.3773,-3.3963,-3.4402,-3.4271,-3.3583,-3.389,-3.3466,-3.2354,-3.1651,-3.1739,-3.2588,-3.3495,-3.4563,-3.5807,-3.5997,-3.5734,-3.5031,-3.5002,-3.4666,-3.3963,-3.3758,-3.3671,-3.3656,-3.3363,-3.2866,-3.2134,-3.0759,-2.9647,0.0,0.0,0.0,0.0,0.0,0.0,0.0,0.0,0.0,0.0,0.0,-2.9134,-2.931,-3.0993,-3.1681,-3.0744,-3.0832,-3.0817,-3.0539,-3.0349,-3.029,-3.0437,-3.0612,-3.0525,-3.0027,-3.029,-3.0627,-3.0949,-3.0993,-3.1242,-3.1915,-3.1242,-3.0729,-3.092,-3.1256,-3.1593,-3.1915,-3.2266,-3.2559,-3.2749,-3.2763,-3.2763,-3.2763,-3.2763,-3.2763,-3.2763,-3.2763,-3.2763,-3.2749,-3.2617,-3.2559,-3.2719,-3.2632,-3.2573,-3.2661,-3.2485,-3.2324,-3.2456,-3.2383,-3.2354,-3.2763,-3.2763,-3.2763,-3.228,-3.1563,-3.2412,-3.2632,-3.2398,-3.2398,-3.2646,-3.31,-3.3788,-3.411,-3.4154,-3.4197,-3.4036,-3.3715,-3.348,-3.3202,-3.2924,-3.3188,-3.3305,-3.3319,-3.3641,-3.3817,-3.3861,-3.4183,-3.4358,-3.4417,-3.4958,-3.5163,-3.5061,-3.5324,-3.4988,-3.4007,-3.2339,-3.1637,-3.1944,-3.348,-3.4827,-3.5895,-3.6056,-3.5441,-3.4124,-3.4036,-3.3378,-3.2002,-3.1885,-3.1856,-3.1856,-3.1549,-3.1432,-3.152,-3.0056,-2.9251,0.0,-2.8183,0.0,0.0,0.0,0.0,0.0,0.0,0.0,0.0,-3.0196,-2.9968,-3.0123,-3.1081,-3.1329,-3.032,-3.0313,-3.0568,-3.1388,-3.1461,-3.1549,-3.1827,-3.1827,-3.1695,-3.1402,-3.1373,-3.149,-3.1783,-3.1856,-3.1973,-3.228,-3.228,-3.2193,-3.231,-3.2295,-3.2398,-3.2734,-3.2763,-3.2734,-3.2763,-3.2763,-3.2763,-3.2763,-3.2763,-3.2763,-3.2763,-3.2763,-3.2763,-3.2763,-3.2763,-3.2763,-3.2763,-3.2763,-3.2763,-3.2763,-3.2734,-3.2719,-3.2719,-3.2559,-3.2354,-3.2763,-3.2763,-3.2763,-3.2661,-3.2515,-3.269,-3.1871,-3.049,-3.0407,-3.1037,-3.212,-3.3027,-3.3583,-3.3832,-3.4095,-3.4036,-3.3744,-3.3949,-3.3861,-3.3554,-3.3612,-3.3641,-3.3656,-3.3978,-3.4256,-3.4519,-3.4841,-3.5119,-3.5368,-3.5596,-3.5163,-3.4417,-3.4461,-3.4007,-3.3071,0.0,0.0,0.0,-3.3919,-3.4739,-3.4929,-3.3993,-3.3363,-3.3056,-3.3056,0.0,-3.2602,-3.2339,-3.2193,-3.2178,-3.1871,0.0,0.0,0.0,0.0,0.0,0.0,0.0,0.0,0.0,0.0,0.0,-3.051,-3.0481,-3.07,-3.0437,-3.0481,-3.0993,-3.1256,-3.1637,-3.2163,-3.2222,-3.2295,-3.2456,-3.2251,-3.212,-3.2178,-3.1959,-3.1768,-3.1724,-3.1695,-3.1827,-3.2134,-3.2193,-3.231,-3.2602,-3.2676,-3.2676,-3.2676,-3.2661,-3.2705,-3.2763,-3.2763,-3.2763,-3.2763,-3.2763,-3.2763,-3.2763,-3.2763,-3.2763,-3.2763,-3.2763,-3.2763,-3.2763,-3.2763,-3.2763,-3.2763,-3.2763,-3.2763,-3.2763,-3.2763,-3.2763,-3.2763,-3.2719,-3.2676,-3.2763,0.0,-3.2763,-3.25,0.0,-3.2046,-3.1212,-2.9925,-3.089,-3.1666,-3.2324,-3.2954,-3.3244,-3.348,-3.3158,-3.2939,-3.2749,-3.228,-3.2412,-3.3012,-3.3188,-3.3685,-3.4446,-3.4768,-3.5002,-3.5178,-3.5485,-3.5719,-3.588,-3.6041,-3.5866,-3.5397,-3.5397,-3.5149,-3.468,-3.4666,-3.4358,-3.3729,-3.4373,-3.5002,-3.5588,-3.5002,-3.4358,-3.3758,0.0,0.0,0.0,0.0,0.0,0.0,0.0,0.0,0.0,0.0,0.0,-3.2002,-3.1285,-3.111,-3.1724,-3.1783,-3.2061,-3.269,-3.2734,-3.2324,-3.1388,-3.1593,-3.1841,-3.2017,-3.2032,-3.2237,-3.2705,-3.2763,-3.2763,-3.2763,-3.2617,-3.2471,-3.2295,-3.2134,-3.2046,-3.2032,-3.2046,-3.2163,-3.2485,-3.2529,-3.2588,-3.2734,-3.2763,-3.2763,-3.2763,-3.2763,-3.2763,-3.2763,-3.2763,-3.2763,-3.2763,-3.2763,-3.2763,-3.2763,-3.2763,-3.2763,-3.2763,-3.2763,-3.2763,-3.2763,-3.2763,-3.2763,-3.2763,-3.2763,-3.2763,-3.2763,-3.2763,-3.2763,-3.2763,-3.2763,-3.2763,-3.2763,-3.2763,-3.2763,-3.231,-3.1563,-3.1563,-3.111,-3.0481,0.0,0.0,0.0,-3.2968,-3.3158,-3.31,-3.2383,-3.212,-3.2149,-3.1183,-3.1505,-3.288,-3.3158,-3.3978,-3.5236,-3.5573,-3.5734,-3.5734,-3.6056,-3.6202,-3.6217,-3.6466,-3.6612,-3.6612,-3.6612,-3.6612,-3.6612,-3.6612,-3.6085,-3.509,-3.4827,-3.5207,-3.6231,-3.6041,-3.5427,-3.4388,-3.4358,-3.3861,-3.2822,-3.2763,-3.2763,-3.2763,-3.2515,-3.2441,-3.2588,-3.212,-3.1871,-3.1973,-3.1739,-3.2032,-3.3027,-3.3115,-3.3568,-3.4636,-3.4651,-3.3949,-3.2324,-3.291,-3.3202,-3.288,-3.2807,-3.2763,-3.2763,-3.2763,-3.2763,-3.2763,-3.2763,-3.2661,-3.2412,-3.2368,-3.2368,-3.2368,-3.2368,-3.2471,-3.2719,-3.2749,-3.2763,-3.2763,-3.2763,-3.2763,-3.2763,-3.2763,-3.2763,-3.2763,-3.2763,-3.2763,-3.2763,-3.2763,-3.2763,-3.2763,-3.2763,-3.2763,-3.2763,-3.2763,-3.2763,-3.2763,-3.2763,-3.2763,-3.2763,-3.2763,-3.2763,-3.2763,-3.2763,-3.2763,-3.2763,-3.2763,-3.2763,-3.2763,-3.2763,-3.2763,-3.269,-3.2573,-3.2559,-3.25,-3.231,-3.1768,-3.152,-3.1578,-3.2456,-3.2837,-3.2837,-3.2983,-3.3349,-3.3875,-3.3978,-3.4446,-3.5258,-3.5222,-3.5449,-3.5684,-3.5895,-3.6056,-3.607,-3.6378,-3.6539,-3.6539,-3.6568,-3.6612,-3.6597,-3.6612,-3.6612,-3.6612,-3.6612,-3.6524,-3.6319,-3.5266,-3.4783,-3.4944,-3.389,-3.3232,-3.3056,-3.31,-3.2968,-3.2778,-3.2807,-3.2763,-3.2763,-3.2734,-3.3071,-3.3875,-3.3861,-3.4051,-3.4563,-3.4563,-3.4519,-3.4432,-3.4432,-3.4519,-3.4666,-3.4446,-3.4154,-3.3905,-3.3744,-3.3524,-3.3202,-3.2939,-3.2763,-3.2763,-3.2763,-3.2763,-3.2763,-3.2763,-3.2749,-3.269,-3.269,-3.2676,-3.2676,-3.2705,-3.269,-3.2749,-3.2763,-3.2763,-3.2763,-3.2763,-3.2763,-3.2763,-3.2763,-3.2763,-3.2763,-3.2763,-3.2763,-3.2763,-3.2763,-3.2763,-3.2763,-3.2763,-3.2763,-3.2763,-3.2763,-3.2763,-3.2763,-3.2763,-3.2763,-3.2763,-3.2763,-3.2763,-3.2763,-3.2763,-3.2763,-3.2763,-3.2763,-3.2763,-3.2763,-3.2763,-3.2763,-3.2763,-3.2763,-3.2763,-3.2763,-3.2734,-3.2295,-3.2105,-3.2149,-3.2573,-3.2866,-3.2983,-3.2632,-3.2719,-3.3158,-3.2778,-3.3232,-3.43,-3.4344,-3.4812,-3.5602,-3.5792,-3.5851,-3.588,-3.6187,-3.6261,-3.6129,-3.6422,-3.6509,-3.6363,-3.6509,-3.6612,-3.6612,-3.6612,-3.6612,-3.6597,-3.6027,-3.5734,-3.5719,-3.5163,-3.4856,-3.4841,-3.4856,-3.4856,-3.4856,-3.4856,-3.4856,-3.4856,-3.4856,-3.5061,-3.547,-3.5353,-3.5383,-3.5646,-3.5353,-3.5105,-3.4958,-3.4797,-3.471,-3.4695,-3.4563,-3.4475,-3.449,-3.4022,-3.3597,-3.3276,-3.31,-3.2954,-3.2793,-3.2763,-3.2763,-3.2763,-3.2763,-3.2763,-3.2763,-3.2763,-3.2763,-3.2763,-3.2763,-3.2763,-3.2763,-3.2763,-3.2763,-3.2763,-3.2763,-3.2763,-3.2763,-3.2763,-3.2763,-3.2763,-3.2763,-3.2763,-3.2763,-3.2763,-3.2763,-3.2763,-3.2763,-3.2763,-3.2763,-3.2763,-3.2763,-3.2763,-3.2763,-3.2763,-3.2763,-3.2763,-3.2763,-3.2763,-3.2763,-3.2763,-3.2763,-3.2763,-3.2705,-3.2763,-3.2763,-3.2763,-3.2763,-3.2763,-3.2763,-3.2763,-3.2778,-3.2837,-3.288,-3.288,-3.288,-3.3056,-3.3261,-3.2559,-3.2456,-3.269,-3.2046,-3.2471,-3.37,-3.3788,-3.4446,-3.564,-3.5742,-3.5742,-3.5772,-3.5895,-3.588,-3.583,-3.6144,-3.6305,-3.6158,-3.6378,-3.6524,-3.6612,-3.6612,-3.6612,-3.6612,-3.6612,-3.6612,-3.6612,-3.6612,-3.6597,-3.6612,-3.6597,-3.6612,-3.6612,-3.6612,-3.6612,-3.6612,-3.6612,-3.6612,-3.6597,-3.6363,-3.6202,-3.6085,-3.5661,-3.531,-3.5149,-3.4871,-3.471,-3.471,-3.471,-3.4666,-3.4563,-3.4139,-3.37,-3.3407,-3.3202,-3.3012,-3.2822,-3.2763,-3.2763,-3.2763,-3.2763,-3.2763,-3.2763,-3.2763,-3.2763,-3.2763,-3.2763,-3.2763,-3.2763,-3.2763,-3.2763,-3.2763,-3.2763,-3.2763,-3.2763,-3.2763,-3.2763,-3.2763,-3.2763,-3.2763,-3.2763,-3.2763,-3.2763,-3.2763,-3.2763,-3.2763,-3.2763,-3.2763,-3.2763,-3.2763,-3.2763,-3.2763,-3.2763,-3.2763,-3.2763,-3.2763,-3.2763,-3.2763,-3.2763,-3.2763,-3.2617,-3.2763,-3.2763,-3.2763,-3.2763,-3.2763,-3.2763,-3.2778,-3.2822,-3.3071,-3.3113,-3.3232,-3.3202,-3.3393,-3.3656,-3.3568,-3.3832,-3.4373,-3.4373,-3.4666,-3.5266,-3.5522,-3.5596,-3.5602,-3.5728,-3.5742,-3.5728,-3.5757,-3.5661,-3.5602,-3.5786,-3.5866,-3.6085,-3.6144,-3.6319,-3.6568,-3.6597,-3.6612,-3.6612,-3.6612,-3.6612,-3.6612,-3.6612,-3.6612,-3.6612,-3.6612,-3.6612,-3.6612,-3.6612,-3.6612,-3.6612,-3.6612,-3.6612,-3.6597,-3.6568,-3.6422,-3.6144,-3.6056,-3.5778,-3.5207,-3.4885,-3.471,-3.471,-3.4695,-3.4578,-3.4314,-3.4197,-3.4022,-3.3656,-3.3144,-3.2851,-3.2778,-3.2763,-3.2763,-3.2763,-3.2763,-3.2763,-3.2763,-3.2763,-3.2763,-3.2763,-3.2763,-3.2763,-3.2763,-3.2763,-3.2763,-3.2763,-3.2763,-3.2763,-3.2763,-3.2763,-3.2763,-3.2763,-3.2763,-3.2763,-3.2763,-3.2763,-3.2763,-3.2763,-3.2763,-3.2763,-3.2763,-3.2763,-3.2763,-3.2763,-3.2763,-3.2763,-3.2763,-3.2763,-3.2763,-3.2763,-3.2763,-3.2763,-3.2763,-3.2763,-3.2559,-3.2763,-3.2763,-3.2763,-3.2763,-3.2763,-3.2763,-3.288,-3.3056,-3.3188,-3.3361,-3.3802,-3.3817,-3.3905,-3.4022,-3.4022,-3.4271,-3.4695,-3.471,-3.4827,-3.5075,-3.509,-3.509,-3.509,-3.509,-3.509,-3.5105,-3.5266,-3.5266,-3.5149,-3.5266,-3.5529,-3.5836,-3.6027,-3.6187,-3.6319,-3.6509,-3.6612,-3.6612,-3.6612,-3.6612,-3.6612,-3.6612,-3.6612,-3.6612,-3.6612,-3.6612,-3.6612,-3.6612,-3.6612,-3.6612,-3.6612,-3.6612,-3.6612,-3.6612,-3.6553,-3.6392,-3.6041,-3.5631,-3.5178,-3.4871,-3.471,-3.471,-3.4519,-3.4358,-3.4212,-3.3875,-3.3583,-3.3436,-3.3202,-3.2983,-3.2807,-3.2763,-3.2763,-3.2763,-3.2763,-3.2763,-3.2763,-3.2763,-3.2763,-3.2763,-3.2763,-3.2763,-3.2763,-3.2763,-3.2763,-3.2763,-3.2763,-3.2763,-3.2763,-3.2763,-3.2763,-3.2763,-3.2763,-3.2763,-3.2763,-3.2763,-3.2763,-3.2763,-3.2763,-3.2763,-3.2763,-3.2763,-3.2763,-3.2763,-3.2763,-3.2763,-3.2763,-3.2763,-3.2763,-3.2763,-3.2763,-3.2763,-3.2763,-3.2763,-3.25,-3.2763,-3.2763,-3.2763,-3.2763,-3.2778,-3.2866,-3.3027,-3.3171,-3.3436,-3.3788,-3.4197,-3.43,-3.4358,-3.4358,-3.4344,-3.4475,-3.468,-3.471,-3.471,-3.471,-3.471,-3.471,-3.471,-3.471,-3.471,-3.4739,-3.4929,-3.4929,-3.4753,-3.4914,-3.5236,-3.5617,-3.5866,-3.607,-3.6261,-3.6495,-3.6612,-3.6612,-3.6612,-3.6612,-3.6612,-3.6612,-3.6612,-3.6612,-3.6612,-3.6612,-3.6612,-3.6612,-3.6612,-3.6612,-3.6612,-3.6612,-3.6612,-3.6612,-3.6612,-3.6568,-3.6085,-3.5631,-3.5405,-3.5002,-3.4783,-3.4695,-3.4475,-3.4271,-3.4051,-3.3656,-3.3319,-3.3115,-3.3115,-3.2983,-3.2822,-3.2763,-3.2763,-3.2763,-3.2763,-3.2763,-3.2763,-3.2763,-3.2763,-3.2763,-3.2763,-3.2763,-3.2763,-3.2763,-3.2763,-3.2763,-3.2763,-3.2763,-3.2763,-3.2763,-3.2763,-3.2763,-3.2763,-3.2763,-3.2763,-3.2763,-3.2763,-3.2763,-3.2763,-3.2763,-3.2763,-3.2763,-3.2763,-3.2763,-3.2763,-3.2763,-3.2763,-3.2763,-3.2763,-3.2763,-3.2763,-3.2763,-3.2763,-3.2763,-3.2485,-3.2763,-3.2763,-3.2763,-3.2778,-3.2793,-3.3085,-3.3232,-3.3349,-3.389,-3.4183,-3.4285,-3.4534,-3.468,-3.4666,-3.4651,-3.468,-3.471,-3.471,-3.471,-3.471,-3.471,-3.471,-3.471,-3.471,-3.471,-3.471,-3.4739,-3.4739,-3.471,-3.4724,-3.5046,-3.5698,-3.5772,-3.5983,-3.6451,-3.6568,-3.6612,-3.6612,-3.6612,-3.6612,-3.6612,-3.6612,-3.6612,-3.6612,-3.6612,-3.6612,-3.6612,-3.6612,-3.6612,-3.6612,-3.6612,-3.6612,-3.6612,-3.6612,-3.6612,-3.6568,-3.6275,-3.5953,-3.5617,-3.5295,-3.5002,-3.4753,-3.4651,-3.4402,-3.3861,-3.3685,-3.3393,-3.2866,-3.2837,-3.2807,-3.2778,-3.2763,-3.2763,-3.2763,-3.2763,-3.2763,-3.2763,-3.2763,-3.2763,-3.2763,-3.2763,-3.2763,-3.2763,-3.2763,-3.2763,-3.2763,-3.2763,-3.2763,-3.2763,-3.2763,-3.2763,-3.2763,-3.2763,-3.2763,-3.2763,-3.2763,-3.2763,-3.2763,-3.2763,-3.2763,-3.2763,-3.2763,-3.2763,-3.2763,-3.2763,-3.2763,-3.2763,-3.2763,-3.2763,-3.2763,-3.2763,-3.2763,-3.2763,-3.2763,-3.25,-3.2763,-3.2763,-3.2763,-3.288,-3.3085,-3.3202,-3.348,-3.3875,-3.411,-3.4344,-3.4519,-3.4651,-3.471,-3.471,-3.471,-3.471,-3.471,-3.471,-3.471,-3.471,-3.471,-3.471,-3.471,-3.471,-3.471,-3.471,-3.471,-3.471,-3.471,-3.471,-3.4914,-3.531,-3.564,-3.5866,-3.6261,-3.6509,-3.6612,-3.6612,-3.6612,-3.6612,-3.6612,-3.6612,-3.6612,-3.6612,-3.6612,-3.6612,-3.6612,-3.6612,-3.6612,-3.6612,-3.6612,-3.6612,-3.6612,-3.6612,-3.6612,-3.6583,-3.629,-3.5983,-3.5661,-3.5434,-3.5031,-3.4739,-3.4505,-3.4212,-3.3802,-3.3539,-3.3232,-3.288,-3.2763,-3.2763,-3.2763,-3.2763,-3.2763,-3.2763,-3.2763,-3.2763,-3.2763,-3.2763,-3.2763,-3.2763,-3.2763,-3.2763,-3.2763,-3.2763,-3.2763,-3.2763,-3.2763,-3.2763,-3.2763,-3.2763,-3.2763,-3.2763,-3.2763,-3.2763,-3.2763,-3.2763,-3.2763,-3.2763,-3.2763,-3.2763,-3.2763,-3.2763,-3.2763,-3.2763,-3.2763,-3.2763,-3.2763,-3.2763,-3.2763,-3.2763,-3.2763,-3.2763,-3.2763,-3.2763,-3.2456,-3.2763,-3.2763,-3.2763,-3.2954,-3.3156,-3.3363,-3.3715,-3.4212,-3.4329,-3.449,-3.468,-3.471,-3.471,-3.471,-3.471,-3.471,-3.471,-3.471,-3.471,-3.471,-3.471,-3.471,-3.471,-3.471,-3.471,-3.471,-3.471,-3.471,-3.4724,-3.4812,-3.5017,-3.5324,-3.5646,-3.5953,-3.6261,-3.6495,-3.6612,-3.6612,-3.6612,-3.6612,-3.6612,-3.6612,-3.6612,-3.6612,-3.6612,-3.6612,-3.6612,-3.6612,-3.6612,-3.6612,-3.6612,-3.6612,-3.6612,-3.6612,-3.6553,-3.6436,-3.6246,-3.5924,-3.5544,-3.5375,-3.4988,-3.4592,-3.4344,-3.4051,-3.3641,-3.3363,-3.3115,-3.2866,-3.2763,-3.2763,-3.2763,-3.2763,-3.2763,-3.2763,-3.2763,-3.2763,-3.2763,-3.2763,-3.2763,-3.2763,-3.2763,-3.2763,-3.2763,-3.2763,-3.2763,-3.2763,-3.2763,-3.2763,-3.2763,-3.2763,-3.2763,-3.2763,-3.2763,-3.2763,-3.2763,-3.2763,-3.2763,-3.2763,-3.2763,-3.2763,-3.2763,-3.2763,-3.2763,-3.2763,-3.2763,-3.2763,-3.2763,-3.2763,-3.2763,-3.2763,-3.2763,-3.2763,-3.2763,-3.2763,-3.2471,-3.2763,-3.2763,-3.2763,-3.2968,-3.3305,-3.3568,-3.3905,-3.4271,-3.4549,-3.468,-3.471,-3.471,-3.471,-3.471,-3.471,-3.471,-3.471,-3.471,-3.471,-3.471,-3.471,-3.471,-3.471,-3.471,-3.471,-3.471,-3.471,-3.471,-3.4724,-3.4973,-3.5375,-3.5713,-3.5909,-3.6217,-3.6583,-3.6597,-3.6612,-3.6612,-3.6612,-3.6612,-3.6612,-3.6612,-3.6612,-3.6612,-3.6612,-3.6612,-3.6612,-3.6612,-3.6612,-3.6612,-3.6612,-3.6612,-3.6612,-3.6612,-3.6466,-3.6217,-3.6114,-3.5822,-3.5295,-3.5149,-3.4841,-3.4388,-3.4212,-3.3919,-3.3422,-3.3261,-3.3115,-3.2837,-3.2763,-3.2763,-3.2763,-3.2763,-3.2763,-3.2763,-3.2763,-3.2763,-3.2763,-3.2763,-3.2763,-3.2763,-3.2763,-3.2763,-3.2763,-3.2763,-3.2763,-3.2763,-3.2763,-3.2763,-3.2763,-3.2763,-3.2763,-3.2763,-3.2763,-3.2763,-3.2763,-3.2763,-3.2763,-3.2763,-3.2763,-3.2763,-3.2763,-3.2763,-3.2763,-3.2763,-3.2763,-3.2763,-3.2763,-3.2763,-3.2763,-3.2763,-3.2763,-3.2763,-3.2763,-3.2734,-3.2588,-3.2763,-3.2763,-3.2763,-3.3085,-3.3554,-3.3685,-3.4036,-3.4534,-3.468,-3.471,-3.471,-3.471,-3.471,-3.471,-3.471,-3.471,-3.471,-3.471,-3.471,-3.471,-3.471,-3.471,-3.471,-3.471,-3.471,-3.471,-3.471,-3.471,-3.4768,-3.5017,-3.5324,-3.5742,-3.5968,-3.6275,-3.6583,-3.6612,-3.6612,-3.6612,-3.6612,-3.6612,-3.6612,-3.6612,-3.6612,-3.6612,-3.6612,-3.6612,-3.6612,-3.6612,-3.6612,-3.6612,-3.6612,-3.6612,-3.6612,-3.6612,-3.6451,-3.6173,-3.6114,-3.5836,-3.5251,-3.4944,-3.4666,-3.4271,-3.4022,-3.37,-3.3319,-3.3232,-3.31,-3.2822,-3.2763,-3.2763,-3.2763,-3.2763,-3.2763,-3.2763,-3.2763,-3.2763,-3.2763,-3.2763,-3.2763,-3.2763,-3.2763,-3.2763,-3.2778,-3.2778,-3.2807,-3.2778,-3.2778,-3.2793,-3.2778,-3.2763,-3.2763,-3.2763,-3.2763,-3.2763,-3.2763,-3.2763,-3.2763,-3.2763,-3.2763,-3.2763,-3.2763,-3.2763,-3.2763,-3.2763,-3.2763,-3.2763,-3.2763,-3.2763,-3.2763,-3.2763,-3.2763,-3.2763,-3.2763,-3.269,-3.2588,-3.2763,-3.2763,-3.2763,-3.3144,-3.37,-3.3729,-3.411,-3.4651,-3.471,-3.471,-3.471,-3.471,-3.471,-3.471,-3.471,-3.471,-3.471,-3.471,-3.471,-3.471,-3.471,-3.471,-3.471,-3.471,-3.471,-3.471,-3.471,-3.471,-3.4724,-3.5119,-3.5537,-3.5675,-3.6085,-3.6392,-3.6597,-3.6612,-3.6612,-3.6612,-3.6612,-3.6612,-3.6612,-3.6612,-3.6612,-3.6612,-3.6612,-3.6612,-3.6612,-3.6612,-3.6612,-3.6612,-3.6612,-3.6612,-3.6612,-3.6597,-3.6466,-3.6173,-3.5968,-3.569,-3.5192,-3.4768,-3.4388,-3.4051,-3.3729,-3.3407,-3.3144,-3.3071,-3.2954,-3.2822,-3.2763,-3.2763,-3.2763,-3.2763,-3.2763,-3.2763,-3.2763,-3.2763,-3.2763,-3.2763,-3.2763,-3.2793,-3.2866,-3.288,-3.2807,-3.3041,-3.2968,-3.2866,-3.288,-3.2866,-3.2822,-3.2763,-3.2763,-3.2763,-3.2763,-3.2763,-3.2763,-3.2763,-3.2763,-3.2763,-3.2763,-3.2763,-3.2763,-3.2763,-3.2763,-3.2763,-3.2763,-3.2763,-3.2763,-3.2763,-3.2763,-3.2763,-3.2763,-3.2763,-3.2763,-3.2763,-3.269,-3.2763,-3.2763,-3.2763,-3.3144,-3.37,-3.3729,-3.411,-3.4651,-3.471,-3.471,-3.471,-3.471,-3.471,-3.471,-3.471,-3.471,-3.471,-3.471,-3.471,-3.471,-3.471,-3.471,-3.471,-3.471,-3.471,-3.471,-3.471,-3.471,-3.4739,-3.5295,-3.5742,-3.5801,-3.6246,-3.6597,-3.6612,-3.6612,-3.6612,-3.6612,-3.6612,-3.6612,-3.6612,-3.6612,-3.6612,-3.6612,-3.6612,-3.6612,-3.6612,-3.6612,-3.6612,-3.6612,-3.6612,-3.6583,-3.6583,-3.6583,-3.6451,-3.6041,-3.5778,-3.5485,-3.509,-3.4592,-3.4154,-3.3875,-3.3568,-3.3158,-3.3012,-3.3012,-3.2997,-3.2939,-3.2866,-3.2837,-3.2866,-3.2851,-3.2851,-3.2837,-3.2837,-3.2778,-3.2763,-3.2763,-3.2793,-3.2851,-3.3041,-3.3129,-3.2851,-3.3276,-3.3202,-3.3041,-3.3027,-3.2968,-3.2924,-3.2851,-3.2778,-3.2763,-3.2763,-3.2763,-3.2763,-3.2763,-3.2763,-3.2763,-3.2763,-3.2763,-3.2763,-3.2763,-3.2763,-3.2763,-3.2763,-3.2763,-3.2763,-3.2763,-3.2763,-3.2763,-3.2763,-3.2763,-3.2763,-3.2763,-3.2763,-3.2763,-3.2763,-3.2763,-3.3144,-3.3685,-3.3729,-3.411,-3.4666,-3.471,-3.471,-3.471,-3.471,-3.471,-3.471,-3.471,-3.471,-3.471,-3.471,-3.471,-3.471,-3.471,-3.471,-3.471,-3.471,-3.471,-3.471,-3.471,-3.471,-3.4753,-3.5324,-3.5713,-3.5772,-3.6246,-3.6597,-3.6612,-3.6597,-3.6612,-3.6612,-3.6612,-3.6612,-3.6612,-3.6612,-3.6612,-3.6612,-3.6612,-3.6612,-3.6612,-3.6612,-3.6612,-3.6612,-3.6612,-3.648,-3.6319,-3.6466,-3.6261,-3.5631,-3.5573,-3.5397,-3.4885,-3.4461,-3.4183,-3.408,-3.3758,-3.3568,-3.3495,-3.3466,-3.348,-3.3436,-3.329,-3.3217,-3.3363,-3.3246,-3.3246,-3.3378,-3.3056,-3.2807,-3.2807,-3.2778,-3.2851,-3.3071,-3.3027,-3.3012,-3.3085,-3.31,-3.3115,-3.3071,-3.3012,-3.2968,-3.2954,-3.2866,-3.2763,-3.2763,-3.2763,-3.2763,-3.2763,-3.2763,-3.2763,-3.2763,-3.2763,-3.2763,-3.2763,-3.2763,-3.2763,-3.2763,-3.2763,-3.2763,-3.2763,-3.2763,-3.2763,-3.2763,-3.2763,-3.2763,-3.2763,-3.2763,-3.2763,-3.2763,-3.2763,-3.2763,-3.3071,-3.3524,-3.3671,-3.4022,-3.4461,-3.4651,-3.471,-3.471,-3.471,-3.471,-3.471,-3.471,-3.471,-3.471,-3.471,-3.471,-3.471,-3.471,-3.471,-3.471,-3.471,-3.471,-3.471,-3.471,-3.471,-3.4783,-3.5207,-3.5508,-3.5544,-3.6085,-3.6378,-3.6392,-3.6553,-3.6597,-3.6612,-3.6612,-3.6612,-3.6612,-3.6612,-3.6612,-3.6612,-3.6612,-3.6612,-3.6597,-3.648,-3.6451,-3.6568,-3.6597,-3.6451,-3.6173,-3.629,-3.607,-3.5412,-3.5522,-3.5266,-3.4914,-3.449,-3.4227,-3.4154,-3.3919,-3.3758,-3.3715,-3.3729,-3.3729,-3.3685,-3.3539,-3.3568,-3.3641,-3.3554,-3.348,-3.3436,-3.3188,-3.3027,-3.3144,-3.3056,-3.3129,-3.329,-3.3305,-3.3158,-3.3276,-3.3173,-3.3115,-3.3071,-3.3027,-3.2997,-3.2983,-3.2851,-3.2763,-3.2763,-3.2763,-3.2763,-3.2763,-3.2763,-3.2763,-3.2763,-3.2763,-3.2763,-3.2763,-3.2763,-3.2763,-3.2763,-3.2763,-3.2763,-3.2763,-3.2763,-3.2763,-3.2763,-3.2763,-3.2763,-3.2763,-3.2763,-3.2763,-3.2763,-3.2763,-3.2763,-3.2954,-3.3276,-3.3554,-3.3875,-3.4241,-3.4505,-3.4666,-3.4695,-3.471,-3.471,-3.471,-3.471,-3.471,-3.471,-3.471,-3.471,-3.471,-3.471,-3.471,-3.471,-3.471,-3.471,-3.471,-3.471,-3.471,-3.4797,-3.5031,-3.5163,-3.5339,-3.5807,-3.6041,-3.61,-3.6319,-3.648,-3.6451,-3.6466,-3.6495,-3.6524,-3.6553,-3.6612,-3.6612,-3.6612,-3.6612,-3.6524,-3.6348,-3.6261,-3.6539,-3.6524,-3.6305,-3.607,-3.6056,-3.5851,-3.5544,-3.5361,-3.5258,-3.5031,-3.4563,-3.4285,-3.4256,-3.4036,-3.3832,-3.3905,-3.3949,-3.3949,-3.3949,-3.3817,-3.3802,-3.3802,-3.3788,-3.37,-3.3448,-3.3259,-3.3393,-3.3612,-3.3375,-3.3363,-3.3627,-3.3656,-3.3524,-3.3422,-3.3407,-3.3422,-3.31,-3.3041,-3.2997,-3.2968,-3.288,-3.2807,-3.2763,-3.2763,-3.2763,-3.2763,-3.2763,-3.2763,-3.2763,-3.2763,-3.2763,-3.2763,-3.2763,-3.2763,-3.2763,-3.2763,-3.2763,-3.2763,-3.2763,-3.2763,-3.2763,-3.2763,-3.2763,-3.2763,-3.2763,-3.2763,-3.2763,-3.2763,-3.2763,-3.2954,-3.3232,-3.3334,-3.3685,-3.4197,-3.4285,-3.4446,-3.4651,-3.4695,-3.4695,-3.471,-3.471,-3.471,-3.471,-3.471,-3.471,-3.471,-3.471,-3.471,-3.471,-3.471,-3.471,-3.471,-3.471,-3.471,-3.4783,-3.4973,-3.5163,-3.5222,-3.55,-3.5845,-3.5778,-3.5851,-3.5851,-3.5895,-3.6085,-3.6231,-3.6305,-3.6466,-3.6583,-3.6597,-3.6583,-3.6597,-3.6539,-3.629,-3.6158,-3.6144,-3.5983,-3.5807,-3.5763,-3.5749,-3.55,-3.5134,-3.5105,-3.5046,-3.4827,-3.468,-3.4592,-3.4549,-3.4475,-3.4505,-3.4505,-3.4461,-3.4475,-3.4446,-3.4271,-3.4124,-3.4017,-3.411,-3.3915,-3.374,-3.3329,-3.3346,-3.3755,-3.3583,-3.3244,-3.3288,-3.3302,-3.3229,-3.3156,-3.2967,-3.2967,-3.3056,-3.2952,-3.2983,-3.2835,-3.2777,-3.2645,-3.2498,-3.2586,-3.2586,-3.2675,-3.2675,-3.2763,-3.2763,-3.2763,-3.2763,-3.2763,-3.2763,-3.2763,-3.2763,-3.2763,-3.2763,-3.2763,-3.2675,-3.2675,-3.2763,-3.2763,-3.2763,-3.2763,-3.2763,-3.2763,-3.2763,-3.2763,-3.2763,-3.2866,-3.3041,-3.3188,-3.3436,-3.3744,-3.3934,-3.4168,-3.4432,-3.4475,-3.4549,-3.4695,-3.471,-3.471,-3.471,-3.471,-3.471,-3.471,-3.471,-3.471,-3.471,-3.471,-3.471,-3.471,-3.471,-3.471,-3.4753,-3.4856,-3.4929,-3.4988,-3.5266,-3.5493,-3.5552,-3.5654,-3.5757,-3.5786,-3.5792,-3.5953,-3.6129,-3.6275,-3.648,-3.6524,-3.6466,-3.6378,-3.6348,-3.5909,-3.5792,-3.5749,-3.547,-3.528,-3.5397,-3.5508,-3.5163,-3.4856,-3.4827,-3.4885,-3.4739,-3.471,-3.4695,-3.471,-3.471,-3.471,-3.471,-3.471,-3.471,-3.468,-3.4549,-3.4353,-3.4138,-3.3886,-3.3813,-3.3277,-3.2904,-3.2732,-3.309,-3.3169,-3.3212,-3.3238,-3.3104,-3.2974,-3.28,-3.2465,-3.2378,-3.2376,-3.2094,-3.2051,-3.2051,-3.1905,-3.198,-3.1951,-3.2232,-3.2409,-3.2409,-3.2586,-3.2763,-3.2763,-3.2763,-3.2763,-3.2763,-3.2763,-3.2763,-3.2763,-3.2675,-3.2675,-3.2675,-3.2586,-3.2601,-3.2689,-3.2778,-3.2763,-3.2763,-3.2763,-3.2763,-3.2763,-3.2763,-3.2763,-3.2763,-3.2807,-3.3041,-3.3202,-3.3215,-3.3448,-3.3846,-3.4095,-3.4154,-3.43,-3.4563,-3.4607,-3.4636,-3.471,-3.471,-3.471,-3.471,-3.471,-3.471,-3.471,-3.471,-3.471,-3.471,-3.471,-3.471,-3.471,-3.471,-3.4768,-3.4768,-3.4944,-3.509,-3.5163,-3.5324,-3.5412,-3.5412,-3.55,-3.5661,-3.588,-3.5983,-3.6173,-3.6275,-3.6275,-3.6114,-3.5968,-3.5588,-3.5324,-3.561,-3.5017,-3.49,-3.5002,-3.5075,-3.5002,-3.471,-3.4739,-3.4739,-3.4724,-3.471,-3.471,-3.471,-3.471,-3.471,-3.471,-3.471,-3.471,-3.4601,-3.4557,-3.4262,-3.3887,-3.3536,-3.3037,-3.2479,-3.2078,-3.1873,-3.2062,-3.252,-3.2808,-3.3081,-3.2713,-3.2437,-3.219,-3.1902,-3.1831,-3.1685,-3.1418,-3.1329,-3.124,-3.1329,-3.1418,-3.1507,-3.1774,-3.2143,-3.2232,-3.2232,-3.2498,-3.2675,-3.2763,-3.2763,-3.2763,-3.2763,-3.2763,-3.2675,-3.2586,-3.2586,-3.2498,-3.2424,-3.2512,-3.2689,-3.2586,-3.2409,-3.2498,-3.2586,-3.2631,-3.2763,-3.2763,-3.2763,-3.2763,-3.2778,-3.2837,-3.3012,-3.3232,-3.329,-3.351,-3.3788,-3.3817,-3.3993,-3.4227,-3.43,-3.4432,-3.4607,-3.468,-3.471,-3.471,-3.471,-3.471,-3.471,-3.471,-3.471,-3.471,-3.471,-3.471,-3.471,-3.471,-3.471,-3.4724,-3.4768,-3.4812,-3.4827,-3.4856,-3.4958,-3.5017,-3.5149,-3.531,-3.5427,-3.5646,-3.5792,-3.5909,-3.5968,-3.5909,-3.569,-3.5383,-3.5192,-3.5192,-3.4885,-3.4768,-3.4797,-3.4812,-3.4768,-3.4724,-3.471,-3.471,-3.471,-3.471,-3.471,-3.471,-3.471,-3.471,-3.471,-3.4616,-3.4616,-3.4508,-3.4212,-3.3822,-3.3351,-3.3084,-3.2682,-3.2281,-3.191,-3.1763,-3.1769,-3.1746,-3.1869,-3.2171,-3.1977,-3.1797,-3.1539,-3.1338,-3.1282,-3.124,-3.1151,-3.0973,-3.0973,-3.1062,-3.1151,-3.124,-3.1418,-3.1685,-3.1966,-3.2054,-3.2143,-3.2498,-3.2586,-3.2675,-3.2675,-3.2763,-3.2763,-3.2675,-3.2498,-3.2409,-3.2321,-3.2246,-3.2232,-3.2321,-3.2232,-3.2054,-3.2071,-3.2176,-3.2163,-3.2763,-3.2763,-3.2763,-3.2763,-3.2763,-3.2763,-3.2851,-3.2983,-3.3012,-3.3188,-3.3407,-3.3495,-3.3671,-3.3905,-3.3963,-3.4154,-3.4417,-3.4651,-3.4695,-3.471,-3.471,-3.471,-3.471,-3.471,-3.471,-3.471,-3.471,-3.471,-3.471,-3.471,-3.471,-3.471,-3.471,-3.471,-3.471,-3.4724,-3.471,-3.4753,-3.4856,-3.5017,-3.5163,-3.5566,-3.5713,-3.5661,-3.5602,-3.5529,-3.5383,-3.509,-3.4929,-3.49,-3.4783,-3.4724,-3.471,-3.471,-3.471,-3.471,-3.471,-3.471,-3.471,-3.471,-3.471,-3.471,-3.471,-3.471,-3.4616,-3.4414,-3.4212,-3.393,-3.3742,-3.3351,-3.288,-3.2523,-3.2194,-3.171,-3.1368,-3.1303,-3.127,-3.087,-3.1028,-3.1254,-3.1173,-3.1125,-3.098,-3.0808,-3.0808,-3.0705,-3.0705,-3.0705,-3.0705,-3.0705,-3.0794,-3.0794,-3.0884,-3.124,-3.1521,-3.161,-3.1774,-3.2054,-3.2321,-3.2409,-3.2498,-3.2586,-3.2675,-3.2763,-3.2586,-3.2321,-3.2321,-3.2409,-3.2232,-3.2054,-3.2232,-3.2189,-3.1868,-3.1754,-3.1741,-3.2763,-3.2763,-3.2763,-3.2763,-3.2763,-3.2763,-3.2778,-3.2763,-3.2778,-3.291,-3.3129,-3.3173,-3.3334,-3.3583,-3.3729,-3.389,-3.4139,-3.4388,-3.449,-3.4578,-3.4578,-3.4607,-3.4508,-3.4601,-3.4601,-3.4414,-3.4508,-3.4601,-3.471,-3.471,-3.471,-3.471,-3.471,-3.471,-3.471,-3.471,-3.471,-3.471,-3.471,-3.4856,-3.509,-3.5368,-3.5596,-3.5566,-3.5346,-3.5163,-3.5046,-3.4871,-3.4753,-3.4739,-3.4724,-3.471,-3.471,-3.471,-3.471,-3.471,-3.471,-3.471,-3.471,-3.471,-3.471,-3.471,-3.471,-3.4616,-3.437,-3.3952,-3.3455,-3.3135,-3.2985,-3.273,-3.2367,-3.2122,-3.1731,-3.1222,-3.0807,-3.0576,-3.0583,-3.042,-3.0299,-3.0451,-3.0451,-3.0437,-3.0437,-3.0348,-3.0361,-3.0361,-3.0361,-3.0272,-3.0258,-3.0182,-3.0182,-3.0182,-3.0361,-3.0705,-3.0973,-3.1151,-3.1329,-3.1596,-3.1774,-3.1966,-3.2143,-3.2321,-3.2498,-3.2675,-3.2586,-3.2409,-3.2498,-3.2409,-3.2143,-3.2143,-3.2409,-3.222,-3.1592,-3.1523,-3.167,-3.2763,-3.2763,-3.2763,-3.2763,-3.2763,-3.2763,-3.2763,-3.2763,-3.2763,-3.2778,-3.2866,-3.2851,-3.3027,-3.329,-3.3597,-3.3729,-3.3802,-3.3905,-3.408,-3.4256,-3.4285,-3.4109,-3.4139,-3.4508,-3.4204,-3.4003,-3.3952,-3.4305,-3.4478,-3.4572,-3.471,-3.471,-3.471,-3.471,-3.471,-3.471,-3.471,-3.471,-3.471,-3.4724,-3.4812,-3.5075,-3.5061,-3.4988,-3.5002,-3.5031,-3.4841,-3.4739,-3.471,-3.471,-3.471,-3.471,-3.471,-3.471,-3.471,-3.471,-3.471,-3.471,-3.4601,-3.471,-3.4616,-3.4508,-3.4587,-3.4399,-3.3787,-3.3256,-3.2762,-3.2569,-3.2283,-3.2027,-3.18,-3.1759,-3.1423,-3.1129,-3.0742,-3.0394,-3.0244,-3.0214,-3.0016,-3.0003,-3.0182,-3.0093,-3.0093,-3.0003,-2.9913,-2.9913,-2.9913,-2.9913,-2.9913,-2.9913,-2.9913,-3.0003,-3.0003,-3.0361,-3.0437,-3.0616,-3.0794,-3.1062,-3.1329,-3.1507,-3.1699,-3.1966,-3.2321,-3.2498,-3.2498,-3.2586,-3.2601,-3.2498,-3.2143,-3.2086,-3.2205,-3.1797,-3.1113,-3.122,-3.1527,-3.2763,-3.2763,-3.2763,-3.2763,-3.2763,-3.2763,-3.2763,-3.2763,-3.2763,-3.2763,-3.2763,-3.2763,-3.2851,-3.3041,-3.3305,-3.3451,-3.3495,-3.3627,-3.3788,-3.3905,-3.3872,-3.3746,-3.3528,-3.3571,-3.3478,-3.3194,-3.3186,-3.3256,-3.3608,-3.4017,-3.4305,-3.4616,-3.471,-3.471,-3.471,-3.471,-3.471,-3.471,-3.471,-3.471,-3.4739,-3.4812,-3.4841,-3.471,-3.4841,-3.4812,-3.4753,-3.471,-3.471,-3.471,-3.471,-3.471,-3.471,-3.471,-3.4601,-3.4197,-3.4132,-3.4132,-3.4262,-3.4478,-3.4276,-3.4046,-3.3852,-3.3572,-3.2766,-3.2269,-3.183,-3.1502,-3.1434,-3.1262,-3.1249,-3.1169,-3.1049,-3.0849,-3.0662,-3.0461,-3.0181,-3.0007,-2.9913,-2.9913,-2.9913,-2.9913,-2.9913,-2.9913,-2.9913,-2.9913,-2.9913,-2.9913,-2.9913,-2.9913,-2.9913,-2.9913,-2.9913,-3.0003,-3.0093,-3.0182,-3.0272,-3.0437,-3.0794,-3.0973,-3.1151,-3.1521,-3.1877,-3.2321,-3.2498,-3.2586,-3.2763,-3.2646,-3.2337,-3.2147,-3.1958,-3.1553,-3.1137,-3.1138,-3.1335,-3.2763,-3.2763,-3.2763,-3.2763,-3.2763,-3.2763,-3.2763,-3.2763,-3.2763,-3.2763,-3.2763,-3.2763,-3.2763,-3.2807,-3.3012,-3.3129,-3.3144,-3.3393,-3.3524,-3.3583,-3.3536,-3.3307,-3.3028,-3.2937,-3.2753,-3.2056,-3.2306,-3.2496,-3.2752,-3.3064,-3.3514,-3.4305,-3.4414,-3.4414,-3.4508,-3.4616,-3.471,-3.471,-3.471,-3.471,-3.471,-3.471,-3.4724,-3.471,-3.471,-3.471,-3.471,-3.471,-3.471,-3.471,-3.4508,-3.4478,-3.4484,-3.4146,-3.3981,-3.3615,-3.3415,-3.3137,-3.3358,-3.3522,-3.3593,-3.3242,-3.2864,-3.2611,-3.1877,-3.1386,-3.1202,-3.0941,-3.082,-3.082,-3.0782,-3.0835,-3.0768,-3.0662,-3.0501,-3.0381,-3.0234,-3.0034,-2.9913,-2.9913,-2.9913,-2.9913,-2.9913,-2.9913,-2.9913,-2.9913,-2.9913,-2.9913,-2.9913,-2.9913,-2.9913,-2.9913,-2.9913,-2.9913,-2.9913,-2.9913,-2.9913,-3.0003,-3.0258,-3.0526,-3.0794,-3.1062,-3.1418,-3.1863,-3.2263,-3.2279,-3.2192,-3.2397,-3.25,-3.2266,-3.199,-3.1541,-3.1266,-3.1274,-3.1084,-3.2763,-3.2763,-3.2778,-3.2763,-3.2763,-3.2763,-3.2763,-3.2763,-3.2763,-3.2763,-3.2763,-3.2763,-3.2763,-3.2793,-3.2807,-3.2851,-3.2822,-3.2837,-3.3056,-3.3217,-3.3215,-3.2865,-3.2589,-3.2478,-3.2352,-3.1634,-3.1611,-3.1822,-3.2125,-3.1932,-3.2529,-3.3173,-3.3571,-3.3858,-3.4046,-3.4146,-3.4269,-3.4362,-3.4362,-3.4484,-3.4514,-3.4636,-3.4666,-3.4666,-3.468,-3.4695,-3.4695,-3.4622,-3.4484,-3.4484,-3.4161,-3.3887,-3.3915,-3.3408,-3.3108,-3.286,-3.2627,-3.2245,-3.2103,-3.2435,-3.2457,-3.2231,-3.202,-3.1689,-3.1263,-3.0762,-3.0619,-3.0635,-3.0474,-3.0501,-3.0635,-3.0755,-3.0555,-3.0434,-3.0287,-3.0207,-3.01,-3.002,-2.9913,-2.9913,-2.9913,-2.9913,-2.9913,-2.9913,-2.9913,-2.9913,-2.9913,-2.9913,-2.9913,-2.9913,-2.9913,-2.9913,-2.9913,-2.9913,-2.9913,-2.9913,-2.9913,-2.9913,-3.0093,-3.0258,-3.0526,-3.0794,-3.1054,-3.125,-3.1532,-3.1623,-3.1684,-3.1699,-3.1816,-3.2106,-3.1931,-3.1466,-3.1189,-3.1055,-3.0993,-3.2143,-3.1863,-3.1863,-3.2232,-3.2763,-3.2763,-3.2763,-3.2763,-3.2763,-3.2763,-3.2763,-3.2763,-3.2763,-3.2763,-3.2763,-3.2763,-3.2763,-3.2763,-3.2866,-3.2821,-3.2626,-3.2223,-3.1859,-3.1541,-3.1138,-3.0768,-3.0694,-3.088,-3.0985,-3.1093,-3.1205,-3.182,-3.251,-3.2788,-3.3066,-3.3229,-3.3308,-3.3386,-3.3556,-3.3634,-3.377,-3.4222,-3.4402,-3.4402,-3.4402,-3.4402,-3.4358,-3.4183,-3.394,-3.3741,-3.3464,-3.33,-3.3122,-3.2619,-3.2337,-3.2092,-3.1784,-3.135,-3.1195,-3.1656,-3.2078,-3.1532,-3.1154,-3.0735,-3.0704,-3.0244,-3.014,-3.0181,-3.0194,-3.0221,-3.0207,-3.0247,-3.0167,-3.0114,-3.006,-3.0034,-2.9993,-2.9927,-2.9913,-2.9913,-2.9913,-2.9913,-2.9913,-2.9913,-2.9913,-2.9913,-2.9913,-2.9913,-2.9913,-2.9913,-2.9913,-2.9913,-2.9913,-2.9913,-2.9913,-2.9913,-2.9913,-2.9913,-2.9913,-3.0052,-3.0204,-3.0294,-3.0552,-3.0673,-3.0752,-3.086,-3.0892,-3.0837,-3.1052,-3.1425,-3.1466,-3.1388,-3.1139,-3.0851,-3.0792,-3.1685,-3.1329,-3.1329,-3.1685,-3.2321,-3.2498,-3.2498,-3.2409,-3.2498,-3.2498,-3.2321,-3.2321,-3.2321,-3.2321,-3.2321,-3.2321,-3.2232,-3.2232,-3.2321,-3.2158,-3.1905,-3.1507,-3.1151,-3.0822,-3.0532,-3.0057,-3.0087,-3.0325,-3.0325,-3.0434,-3.0579,-3.0789,-3.1181,-3.1601,-3.2097,-3.2239,-3.2239,-3.2436,-3.2528,-3.2802,-3.2951,-3.3292,-3.3605,-3.3513,-3.3513,-3.3513,-3.347,-3.3355,-3.3177,-3.2873,-3.2662,-3.2394,-3.2155,-3.1825,-3.1615,-3.1218,-3.0899,-3.0596,-3.065,-3.0899,-3.1331,-3.0791,-3.0492,-3.0204,-2.998,-2.9913,-2.998,-2.9967,-2.994,-2.9913,-2.9913,-2.998,-3.0007,-2.9993,-2.998,-2.9953,-2.9953,-2.9913,-2.9913,-2.9913,-2.9913,-2.9913,-2.9913,-2.9913,-2.9913,-2.9913,-2.9913,-2.9913,-2.9913,-2.9913,-2.9913,-2.9913,-2.9913,-2.9913,-2.9913,-2.9913,-2.9913,-2.9913,-2.9887,-2.9806,-2.9904,-2.9981,-2.9893,-2.9899,-2.9937,-3.009,-3.0109,-3.0155,-3.0439,-3.0751,-3.079,-3.0858,-3.0869,-3.0611,-3.0513,-3.1685,-3.1329,-3.1226,-3.1226,-3.1226,-3.1877,-3.1774,-3.1596,-3.1877,-3.1877,-3.1493,-3.1507,-3.1507,-3.1507,-3.1596,-3.1596,-3.1596,-3.1507,-3.1507,-3.1507,-3.1418,-3.1062,-3.0794,-3.0526,-3.0272,-3.0003,-2.998,-3.0007,-2.9967,-3.006,-3.0047,-3.0034,-3.0294,-3.061,-3.145,-3.1964,-3.2239,-3.2225,-3.2183,-3.2155,-3.2246,-3.238,-3.2528,-3.2542,-3.2542,-3.2634,-3.2591,-3.2492,-3.233,-3.2148,-3.1811,-3.1623,-3.1548,-3.0899,-3.0623,-3.0676,-3.0263,-3.0043,-2.9953,-3.0043,-3.007,-3.0187,-3.002,-2.9967,-2.9927,-2.9913,-2.9913,-2.9913,-2.9913,-2.9913,-2.9913,-2.9913,-2.9913,-2.9913,-2.9913,-2.9913,-2.9913,-2.9913,-2.9913,-2.9913,-2.9913,-2.9913,-2.9913,-2.9913,-2.9913,-2.9913,-2.9913,-2.9913,-2.9913,-2.9913,-2.9913,-2.9913,-2.9913,-2.9913,-2.9913,-2.9913,-2.9913,-2.9913,-2.9847,-2.974,-2.9579,-2.9555,-2.9394,-2.9159,-2.919,-2.9302,-2.9336,-2.9381,-2.9663,-2.993,-3.0238,-3.0404,-3.0346,-3.0332,-3.0248,-3.0808,-3.0348,-3.0348,-2.9618,-2.8873,-3.0691,-3.1418,-3.1329,-3.1418,-3.1418,-3.1315,-3.1329,-3.1329,-3.1329,-3.1137,-3.1137,-3.1137,-3.1329,-3.1329,-3.124,-3.0973,-3.0794,-3.0526,-3.0258,-3.0093,-2.9913,-2.9913,-2.9913,-2.9927,-2.9913,-2.9913,-2.9913,-2.9927,-3.0097,-3.0334,-3.0659,-3.0646,-3.0736,-3.0917,-3.1187,-3.1229,-3.1652,-3.1945,-3.1945,-3.1854,-3.1854,-3.184,-3.1715,-3.1541,-3.127,-3.0908,-3.084,-3.0731,-3.0177,-3.0124,-3.0196,-2.9913,-2.9913,-2.9913,-2.9927,-2.9913,-2.9913,-2.9913,-2.9913,-2.9913,-2.9913,-2.9913,-2.9913,-2.9913,-2.9913,-2.9913,-2.9913,-2.9913,-2.9913,-2.9913,-2.9913,-2.9913,-2.9913,-2.9913,-2.9913,-2.9913,-2.9913,-2.9913,-2.9913,-2.9913,-2.9913,-2.9913,-2.9913,-2.9913,-2.9913,-2.9913,-2.9913,-2.9913,-2.9913,-2.9913,-2.9913,-2.9873,-2.9847,-2.9726,-2.9579,-2.9406,-2.9179,-2.8965,-2.8837,-2.8681,-2.8538,-2.8693,-2.8835,-2.8906,-2.9131,-2.9593,-2.983,-2.983,-2.9914,-3.0081,-2.9335,-2.8809,-2.8166,-2.716,-2.6513,-2.886,-2.977,-2.913,-2.886,-2.8771,-2.8681,-2.8681,-2.8591,-2.8771,-2.9502,-2.9784,-2.9873,-3.0616,-3.0794,-3.0794,-3.0526,-3.0348,-3.0182,-3.0093,-3.0003,-2.9913,-2.9913,-2.9913,-2.9913,-2.9913,-2.9913,-2.9913,-2.9913,-2.994,-3.0043,-3.0057,-3.0057,-3.016,-3.0353,-3.0415,-3.0546,-3.0807,-3.1097,-3.1097,-3.1097,-3.1097,-3.1042,-3.0932,-3.0705,-3.0437,-3.0361,-3.0272,-3.0003,-2.9913,-2.9913,-2.9913,-2.9913,-2.9913,-2.9913,-2.9913,-2.9913,-2.9913,-2.9913,-2.9913,-2.9913,-2.9913,-2.9913,-2.9913,-2.9913,-2.9913,-2.9913,-2.9913,-2.9913,-2.9913,-2.9913,-2.9913,-2.9913,-2.9913,-2.9913,-2.9913,-2.9913,-2.9913,-2.9913,-2.9913,-2.9913,-2.9913,-2.9913,-2.9913,-2.9913,-2.9913,-2.9913,-2.9913,-2.9913,-2.9913,-2.9913,-2.9913,-2.986,-2.978,-2.9619,-2.9432,-2.9112,-2.8871,-2.8657,-2.847,-2.8408,-2.8372,-2.8261,-2.8318,-2.8501,-2.8753,-2.9076,-2.9244,-2.9244,-2.9495,-2.9747,-2.7406,-2.6695,-2.4876,-2.4054,-2.4317,-2.6127,-2.6218,-2.4865,-2.4408,-2.4328,-2.4237,-2.4602,-2.4956,-2.4865,-2.6241,-2.6966,-2.7419,-2.8899,-2.9169,-2.9721,-2.9631,-2.9721,-2.9721,-2.9734,-2.9913,-2.9913,-2.9913,-2.9913,-2.9913,-2.9913,-2.9913,-2.9913,-2.9913,-2.9913,-2.9913,-2.9913,-2.9913,-2.9913,-3.0003,-3.0093,-3.0119,-3.0119,-3.0263,-3.0263,-3.0263,-3.0263,-3.0236,-3.0106,-3.0093,-3.0003,-2.9913,-2.9913,-2.9913,-2.9913,-2.9913,-2.9913,-2.9913,-2.9913,-2.9913,-2.9913,-2.9913,-2.9913,-2.9913,-2.9913,-2.9913,-2.9913,-2.9913,-2.9913,-2.9913,-2.9913,-2.9913,-2.9913,-2.9913,-2.9913,-2.9913,-2.9913,-2.9913,-2.9913,-2.9913,-2.9913,-2.9913,-2.9913,-2.9913,-2.9913,-2.9913,-2.9913,-2.9913,-2.9913,-2.9913,-2.9913,-2.9913,-2.9913,-2.9913,-2.9913,-2.9913,-2.99,-2.978,-2.9686,-2.9472,-2.9272,-2.8925,-2.8617,-2.8444,-2.831,-2.8288,-2.8234,-2.8234,-2.8234,-2.8234,-2.8487,-2.8726,-2.881,-2.8824,-2.916,-2.9328,-2.7148,-2.6785,-2.4876,-2.3229,-2.1942,-2.1194,-2.2116,-2.4043,-2.4054,-2.3962,-2.3962,-2.3962,-2.3596,-2.4054,-2.4602,-2.4785,-2.5605,-2.6423,-2.6435,-2.7069,-2.8269,-2.8449,-2.8719,-2.9079,-2.9631,-2.9913,-2.9913,-2.9913,-2.9913,-2.9913,-2.9913,-2.9913,-2.9913,-2.9913,-2.9913,-2.9913,-2.9913,-2.9913,-2.9913,-2.9913,-2.9913,-2.9913,-2.9913,-2.9913,-2.9913,-2.9913,-2.9913,-2.9913,-2.9913,-2.9913,-2.9913,-2.9913,-2.9913,-2.9913,-2.9913,-2.9913,-2.9913,-2.9913,-2.9913,-2.9913,-2.9913,-2.9913,-2.9913,-2.9913,-2.9913,-2.9913,-2.9913,-2.9913,-2.9913,-2.9913,-2.9913,-2.9913,-2.9913,-2.9913,-2.9913,-2.9913,-2.9913,-2.9913,-2.9913,-2.9913,-2.9913,-2.9913,-2.9913,-2.9913,-2.9913,-2.9913,-2.9913,-2.9913,-2.9913,-2.9913,-2.9847,-2.9847,-2.99,-2.99,-2.9887,-2.9873,-2.9726,-2.9566,-2.9325,-2.9058,-2.8724,-2.8457,-2.8283,-2.8274,-2.8234,-2.8234,-2.8234,-2.8234,-2.8234,-2.8234,-2.8403,-2.8389,-2.8389,-2.8726,-2.8894,-2.532,-2.4408,-2.2494,-2.1028,-1.9834,-1.8727,-1.9648,-2.1481,-2.1665,-2.1757,-2.1665,-2.1573,-2.1757,-2.1757,-2.2402,-2.2862,-2.3045,-2.4785,-2.5241,-2.5423,-2.6525,-2.7069,-2.7521,-2.8076,-2.9079,-2.9541,-2.9913,-2.9913,-2.9913,-2.9913,-2.9913,-2.9913,-2.9913,-2.9913,-2.9913,-2.9913,-2.9913,-2.9913,-2.9913,-2.9913,-2.9913,-2.9913,-2.9913,-2.9913,-2.9913,-2.9913,-2.9913,-2.9913,-2.9913,-2.9913,-2.9913,-2.9913,-2.9913,-2.9913,-2.9913,-2.9913,-2.9913,-2.9913,-2.9913,-2.9913,-2.9913,-2.9913,-2.9913,-2.9913,-2.9913,-2.9913,-2.9913,-2.9913,-2.9913,-2.9913,-2.9913,-2.9913,-2.9913,-2.9913,-2.9913,-2.9913,-2.9913,-2.9913,-2.9913,-2.9913,-2.9913,-2.9913,-2.9913,-2.9913,-2.9913,-2.9913,-2.9913,-2.9913,-2.9913,-2.9913,-2.9793,-2.9686,-2.9793,-2.9873,-2.9833,-2.974,-2.9553,-2.9325,-2.9045,-2.8764,-2.8497,-2.8337,-2.8301,-2.8248,-2.8234,-2.8234,-2.8234,-2.8234,-2.8234,-2.8234,-2.8234,-2.8221,-2.8305,-2.8403,-2.8487,-2.277,-2.1121,-1.9006,-1.8456,-1.8176,-1.8176,-1.8269,-1.8176,-1.8549,-1.8269,-1.8447,-1.8363,-1.8634,-1.9369,-2.0288,-2.0844,-2.149,-2.2862,-2.3412,-2.3687,-2.4511,-2.515,-2.5696,-2.6785,-2.7612,-2.8912,-2.9554,-2.9362,-2.9824,-2.9913,-2.9913,-2.9913,-2.9913,-2.9913,-2.9913,-2.9913,-2.9913,-2.9913,-2.9913,-2.9913,-2.9913,-2.9913,-2.9913,-2.9913,-2.9913,-2.9913,-2.9913,-2.9913,-2.9913,-2.9913,-2.9913,-2.9913,-2.9913,-2.9913,-2.9913,-2.9913,-2.9913,-2.9913,-2.9913,-2.9913,-2.9913,-2.9913,-2.9913,-2.9913,-2.9913,-2.9913,-2.9913,-2.9913,-2.9913,-2.9913,-2.9913,-2.9913,-2.9913,-2.9913,-2.9913,-2.9913,-2.9913,-2.9913,-2.9913,-2.9913,-2.9913,-2.9913,-2.9913,-2.9913,-2.9913,-2.9913,-2.9913,-2.9913,-2.9873,-2.9873,-2.97,-2.9539,-2.9646,-2.97,-2.9553,-2.9446,-2.9325,-2.9085,-2.8804,-2.8564,-2.8337,-2.8315,-2.8234,-2.8234,-2.8234,-2.8234,-2.8234,-2.8234,-2.8234,-2.8234,-2.8234,-2.8234,-2.8234,-2.8234,-2.8234,-2.149,-2.0936,-1.9006,-1.8176,-1.8176,-1.8176,-1.8176,-1.8176,-1.8176,-1.8176,-1.8176,-1.8176,-1.8176,-1.8363,-1.8727,-1.9192,-1.9555,-2.0844,-2.0659,-2.1296,-2.2218,-2.3045,-2.3219,-2.4328,-2.5878,-2.7069,-2.7895,-2.8809,-2.9644,-2.9913,-2.9913,-2.9913,-2.9913,-2.9913,-2.9913,-2.9913,-2.9913,-2.9913,-2.9913,-2.9913,-2.9913,-2.9913,-2.9913,-2.9913,-2.9913,-2.9913,-2.9913,-2.9913,-2.9913,-2.9913,-2.9913,-2.9913,-2.9913,-2.9913,-2.9913,-2.9913,-2.9913,-2.9913,-2.9913,-2.9913,-2.9913,-2.9913,-2.9913,-2.9913,-2.9913,-2.9913,-2.9913,-2.9913,-2.9913,-2.9913,-2.9913,-2.9913,-2.9913,-2.9913,-2.9913,-2.9913,-2.9913,-2.9913,-2.9913,-2.9913,-2.9913,-2.9913,-2.9913,-2.9913,-2.9913,-2.9913,-2.9913,-2.9887,-2.978,-2.9726,-2.9526,-2.9406,-2.9499,-2.9499,-2.9312,-2.9232,-2.9152,-2.8938,-2.8657,-2.8417,-2.8274,-2.8248,-2.8234,-2.8234,-2.8234,-2.8234,-2.8234,-2.8234,-2.8234,-2.8234,-2.8234,-2.8234,-2.8234,-2.8234,-2.8234,-2.0566,-1.9741,-1.8634,-1.8176,-1.8176,-1.8176,-1.8176,-1.8176,-1.8176,-1.8176,-1.8176,-1.8176,-1.8176,-1.8176,-1.8176,-1.8176,-1.8363,-1.9276,-1.9276,-1.9462,-2.0103,-2.1028,-2.1573,-2.2402,-2.4682,-2.6241,-2.7895,-2.9092,-2.9824,-2.9913,-2.9913,-2.9913,-2.9913,-2.9913,-2.9913,-2.9913,-2.9913,-2.9913,-2.9913,-2.9913,-2.9913,-2.9913,-2.9913,-2.9913,-2.9913,-2.9913,-2.9913,-2.9913,-2.9913,-2.9913,-2.9913,-2.9913,-2.9913,-2.9913,-2.9913,-2.9913,-2.9913,-2.9913,-2.9913,-2.9913,-2.9913,-2.9913,-2.9913,-2.9913,-2.9913,-2.9913,-2.9913,-2.9913,-2.9913,-2.9913,-2.9913,-2.9913,-2.9913,-2.9913,-2.9913,-2.9913,-2.9913,-2.9913,-2.9913,-2.9913,-2.9913,-2.9913,-2.9913,-2.9913,-2.9913,-2.9913,-2.9913,-2.9793,-2.97,-2.9526,-2.9339,-2.9232,-2.9285,-2.9179,-2.8951,-2.8965,-2.9045,-2.8804,-2.8497,-2.8337,-2.8248,-2.8234,-2.8234,-2.8234,-2.8234,-2.8234,-2.8234,-2.8234,-2.8234,-2.8234,-2.8234,-2.8234,-2.8234,-2.8234,-2.8234,-1.9741,-1.8269,-1.8176,-1.8176,-1.8176,-1.8176,-1.8176,-1.8176,-1.8176,-1.8176,-1.8176,-1.8176,-1.8176,-1.8176,-1.8176,-1.8176,-1.8269,-1.8634,-1.8269,-1.8269,-1.8456,-1.9926,-2.0844,-2.1481,-2.3951,-2.6513,-2.8629,-2.9272,-2.9913,-2.9913,-2.9913,-2.9913,-2.9913,-2.9913,-2.9913,-2.9913,-2.9913,-2.9913,-2.9913,-2.9913,-2.9913,-2.9913,-2.9913,-2.9913,-2.9913,-2.9913,-2.9913,-2.9913,-2.9913,-2.9913,-2.9913,-2.9913,-2.9913,-2.9913,-2.9913,-2.9913,-2.9913,-2.9913,-2.9913,-2.9913,-2.9913,-2.9913,-2.9913,-2.9913,-2.9913,-2.9913,-2.9913,-2.9913,-2.9913,-2.9913,-2.9913,-2.9913,-2.9913,-2.9913,-2.9913,-2.9913,-2.9913,-2.9913,-2.9913,-2.9913,-2.9913,-2.9913,-2.9913,-2.9913,-2.9913,-2.9913,-2.9833,-2.97,-2.9539,-2.9325,-2.9125,-2.9018,-2.9018,-2.8845,-2.8604,-2.8738,-2.8885,-2.8604,-2.8337,-2.8301,-2.8234,-2.8234,-2.8234,-2.8234,-2.8234,-2.8234,-2.8234,-2.8234,-2.8234,-2.8234,-2.8234,-2.8234,-2.8234,-2.8234,-2.8234,-1.8541,-1.8176,-1.8176,-1.8176,-1.8176,-1.8176,-1.8176,-1.8176,-1.8176,-1.8176,-1.8176,-1.8176,-1.8176,-1.8176,-1.8176,-1.8176,-1.8176,-1.8176,-1.8176,-1.8176,-1.8176,-1.9462,-2.0659,-2.1388,-2.3677,-2.6332,-2.8809,-2.9734,-2.9913,-2.9913,-2.9913,-2.9913,-2.9913,-2.9913,-2.9913,-2.9913,-2.9913,-2.9913,-2.9913,-2.9913,-2.9913,-2.9913,-2.9913,-2.9913,-2.9913,-2.9913,-2.9913,-2.9913,-2.9913,-2.9913,-2.9913,-2.9913,-2.9913,-2.9913,-2.9913,-2.9913,-2.9913,-2.9913,-2.9913,-2.9913,-2.9913,-2.9913,-2.9913,-2.9913,-2.9913,-2.9913,-2.9913,-2.9913,-2.9913,-2.9913,-2.9913,-2.9913,-2.9913,-2.9913,-2.9913,-2.9913,-2.9913,-2.9913,-2.9913,-2.9913,-2.9913,-2.9913,-2.9913,-2.99,-2.9887,-2.9887,-2.9847,-2.9686,-2.9366,-2.9138,-2.8911,-2.8818,-2.8738,-2.8524,-2.831,-2.8564,-2.8657,-2.839,-2.8288,-2.8248,-2.8234,-2.8234,-2.8234,-2.8234,-2.8234,-2.8234,-2.8234,-2.8234,-2.8234,-2.8234,-2.8234,-2.8234,-2.8234,-2.8234,-2.8234]}]]